[[{"header":{"parameterUnit":"m.s-1","parameterCategory":1,"la1":31.0,"la2":29.5877,"lo1":-88.7671,"lo2":-86.6584,"dy":0.0162,"dx":0.0185,"nx":115,"ny":88,"refTime":"2023-02-26T06:00:00:Z","depth":0,"parameterNumber":2,"parameterNumberName":"U-component_of_WINDS"},"data":[0.0,0.0,0.0,0.0,0.0,0.0,0.0,0.0,0.0,0.0,0.0,0.0,0.0,0.0,0.0,0.0,0.0,0.0,0.0,0.0,0.0,0.0,0.0,0.0,0.0,0.0,0.0,0.0,0.0,0.0,0.0,0.0,0.0,0.0,0.0,0.0,0.0,0.0,0.0,0.0,0.0,0.0,0.0,0.0,0.0,0.0,0.0,0.0,0.0,0.0,0.0,0.0,0.0,0.0,0.0,0.0,0.0,0.0,0.0,0.0,0.0,0.0,0.0,0.0,0.0,0.0,0.0,0.0,0.0,0.0,0.0,0.0,0.0,0.0,0.0,0.0,0.0,0.0,0.0,0.0,0.0,0.0,0.0,0.0,0.0,0.0,0.0,0.0,0.0,0.0,0.0,0.0,0.0,0.0,0.0,0.0,0.0,0.0,0.0,0.0,0.0,0.0,0.0,0.0,0.0,0.0,0.0,0.0,0.0,0.0,0.0,0.0,0.0,0.0,0.0,0.0,0.0,0.0,0.0,0.0,0.0,0.0,0.0,0.0,0.0,0.0,0.0,0.0,0.0,0.0,0.0,0.0,0.0,0.0,0.0,0.0,0.0,0.0,0.0,0.0,0.0,0.0,0.0,0.0,0.0,0.0,0.0,0.0,0.0,0.0,0.0,0.0,0.0,0.0,0.0,0.0,0.0,0.0,0.0,0.0,0.0,0.0,0.0,0.0,0.0,0.0,0.0,0.0,0.0,0.0,0.0,0.0,0.0,0.0,0.0,0.0,0.0,0.0,0.0,0.0,0.0,0.0,0.0,0.0,0.0,0.0,0.0,0.0,0.0,0.0,0.0,0.0,0.0,0.0,0.0,0.0,0.0,0.0,0.0,0.0,0.0,0.0,0.0,0.0,0.0,0.0,0.0,0.0,0.0,0.0,0.0,0.0,0.0,0.0,0.0,0.0,0.0,0.0,0.0,0.0,0.0,0.0,0.0,0.0,0.0,0.0,0.0,0.0,0.0,0.0,0.0,0.0,0.0,0.0,0.0,0.0,0.0,0.0,0.0,0.0,0.0,0.0,0.0,0.0,0.0,0.0,0.0,0.0,0.0,0.0,0.0,0.0,0.0,0.0,0.0,0.0,0.0,0.0,0.0,0.0,0.0,0.0,0.0,0.0,0.0,0.0,0.0,0.0,0.0,0.0,0.0,0.0,0.0,0.0,0.0,0.0,0.0,0.0,0.0,0.0,0.0,0.0,0.0,0.0,0.0,0.0,0.0,0.0,0.0,0.0,0.0,0.0,0.0,0.0,0.0,0.0,0.0,0.0,0.0,0.0,0.0,0.0,0.0,0.0,0.0,0.0,0.0,0.0,0.0,0.0,0.0,0.0,0.0,0.0,0.0,0.0,0.0,0.0,0.0,0.0,0.0,0.0,0.0,0.0,0.0,0.0,0.0,0.0,0.0,0.0,0.0,0.0,0.0,0.0,0.0,0.0,0.0,0.0,0.0,0.0,0.0,0.0,0.0,0.0,0.0,0.0,0.0,0.0,0.0,0.0,0.0,0.0,0.0,0.0,0.0,0.0,0.0,0.0,0.0,0.0,0.0,0.0,0.0,0.0,0.0,0.0,0.0,0.0,0.0,0.0,0.0,0.0,0.0,0.0,0.0,0.0,0.0,0.0,0.0,0.0,0.0,0.0,0.0,0.0,0.0,0.0,0.0,0.0,0.0,0.0,0.0,0.0,0.0,0.0,0.0,0.0,0.0,0.0,0.0,0.0,0.0,0.0,0.0,0.0,0.0,0.0,0.0,0.0,0.0,0.0,0.0,0.0,0.0,0.0,0.0,0.0,0.0,0.0,0.0,0.0,0.0,0.0,0.0,0.0,0.0,0.0,0.0,0.0,0.0,0.0,0.0,0.0,0.0,0.0,0.0,0.0,0.0,0.0,0.0,0.0,0.0,0.0,0.0,0.0,0.0,0.0,0.0,0.0,0.0,0.0,0.0,0.0,0.0,0.0,0.0,0.0,0.0,0.0,0.0,0.0,0.0,0.0,0.0,0.0,0.0,0.0,0.0,0.0,0.0,0.0,0.0,0.0,0.0,0.0,0.0,0.0,0.0,0.0,0.0,0.0,0.0,0.0,0.0,0.0,0.0,0.0,0.0,0.0,0.0,0.0,0.0,0.0,0.0,0.0,0.0,0.0,0.0,0.0,0.0,0.0,0.0,0.0,0.0,0.0,0.0,0.0,0.0,0.0,0.0,0.0,0.0,0.0,0.0,0.0,0.0,0.0,0.0,0.0,0.0,0.0,0.0,0.0,0.0,0.0,0.0,0.0,0.0,0.0,0.0,0.0,0.0,0.0,0.0,0.0,0.0,0.0,0.0,0.0,0.0,0.0,0.0,0.0,0.0,0.0,0.0,0.0,0.0,0.0,0.0,0.0,0.0,0.0,0.0,0.0,0.0,0.0,0.0,0.0,0.0,0.0,0.0,0.0,0.0,0.0,0.0,0.0,0.0,0.0,0.0,0.0,0.0,0.0,0.0,0.0,0.0,0.0,0.0,0.0,0.0,0.0,0.0,0.0,0.0,0.0,0.0,0.0,0.0,0.0,0.0,0.0,0.0,0.0,0.0,0.0,0.0,0.0,0.0,0.0,0.0,0.0,0.0,0.0,0.0,0.0,0.0,0.0,0.0,0.0,0.0,0.0,0.0,0.0,0.0,0.0,0.0,0.0,0.0,0.0,0.0,0.0,0.0,0.0,0.0,0.0,0.0,0.0,0.0,0.0,0.0,0.0,0.0,0.0,0.0,0.0,0.0,0.0,0.0,0.0,0.0,0.0,0.0,0.0,0.0,0.0,0.0,0.0,0.0,0.0,0.0,0.0,0.0,0.0,0.0,0.0,0.0,0.0,0.0,0.0,0.0,0.0,0.0,0.0,0.0,0.0,0.0,0.0,0.0,0.0,0.0,0.0,0.0,0.0,0.0,0.0,0.0,0.0,0.0,0.0,0.0,0.0,0.0,0.0,0.0,0.0,0.0,0.0,0.0,0.0,0.0,0.0,0.0,0.0,0.0,0.0,0.0,0.0,0.0,0.0,0.0,0.0,0.0,0.0,0.0,0.0,0.0,0.0,0.0,0.0,0.0,0.0,0.0,0.0,0.0,0.0,0.0,0.0,0.0,0.0,0.0,0.0,0.0,0.0,0.0,0.0,0.0,0.0,0.0,0.0,0.0,0.0,0.0,0.0,0.0,0.0,0.0,0.0,0.0,0.0,0.0,0.0,0.0,0.0,0.0,0.0,0.0,0.0,0.0,0.0,0.0,0.0,0.0,0.0,0.0,0.0,0.0,0.0,0.0,0.0,0.0,0.0,0.0,0.0,0.0,0.0,0.0,0.0,0.0,0.0,0.0,0.0,0.0,0.0,0.0,0.0,0.0,0.0,0.0,0.0,0.0,0.0,0.0,0.0,0.0,0.0,0.0,0.0,0.0,0.0,0.0,0.0,0.0,0.0,0.0,0.0,0.0,0.0,0.0,0.0,0.0,0.0,0.0,0.0,0.0,0.0,0.0,0.0,0.0,0.0,0.0,0.0,0.0,0.0,0.0,0.0,0.0,0.0,0.0,0.0,0.0,0.0,0.0,0.0,0.0,0.0,0.0,0.0,0.0,0.0,0.0,0.0,0.0,0.0,0.0,0.0,0.0,0.0,0.0,0.0,0.0,0.0,0.0,0.0,0.0,0.0,0.0,0.0,0.0,0.0,0.0,0.0,0.0,0.0,0.0,0.0,0.0,0.0,0.0,0.0,0.0,0.0,0.0,0.0,0.0,0.0,0.0,0.0,0.0,0.0,0.0,0.0,0.0,0.0,0.0,0.0,0.0,0.0,0.0,0.0,0.0,0.0,0.0,0.0,0.0,0.0,0.0,0.0,0.0,0.0,0.0,0.0,0.0,0.0,0.0,0.0,0.0,0.0,0.0,0.0,0.0,0.0,0.0,0.0,0.0,0.0,0.0,0.0,0.0,0.0,0.0,0.0,0.0,0.0,0.0,0.0,0.0,0.0,0.0,0.0,0.0,0.0,0.0,0.0,0.0,0.0,0.0,0.0,0.0,0.0,0.0,0.0,0.0,0.0,0.0,0.0,0.0,0.0,0.0,0.0,0.0,0.0,0.0,0.0,0.0,0.0,0.0,0.0,0.0,0.0,0.0,0.0,0.0,0.0,0.0,0.0,0.0,0.0,0.0,0.0,0.0,0.0,0.0,0.0,0.0,0.0,0.0,0.0,-4.0496,0.0,0.0,0.0,0.0,0.0,0.0,0.0,0.0,0.0,0.0,0.0,0.0,0.0,0.0,0.0,0.0,0.0,0.0,0.0,0.0,0.0,0.0,0.0,0.0,0.0,0.0,0.0,0.0,0.0,0.0,0.0,0.0,0.0,0.0,0.0,0.0,0.0,0.0,0.0,0.0,0.0,0.0,0.0,0.0,0.0,0.0,0.0,0.0,0.0,0.0,0.0,0.0,0.0,0.0,0.0,0.0,0.0,0.0,0.0,0.0,0.0,0.0,0.0,0.0,0.0,0.0,0.0,0.0,0.0,0.0,0.0,0.0,0.0,0.0,0.0,0.0,0.0,0.0,0.0,0.0,0.0,0.0,0.0,0.0,0.0,0.0,0.0,0.0,0.0,0.0,0.0,0.0,0.0,0.0,0.0,0.0,0.0,0.0,0.0,0.0,0.0,0.0,0.0,0.0,0.0,0.0,0.0,0.0,0.0,0.0,-4.0383,-4.0402,-4.0295,-4.0295,-4.0383,0.0,0.0,0.0,0.0,0.0,0.0,0.0,0.0,0.0,0.0,0.0,0.0,0.0,0.0,0.0,0.0,0.0,0.0,0.0,0.0,0.0,0.0,0.0,0.0,0.0,0.0,0.0,0.0,0.0,0.0,0.0,0.0,0.0,0.0,0.0,0.0,0.0,0.0,0.0,0.0,0.0,0.0,0.0,0.0,0.0,0.0,0.0,0.0,0.0,0.0,0.0,0.0,0.0,0.0,0.0,0.0,0.0,0.0,0.0,0.0,0.0,0.0,0.0,0.0,0.0,0.0,0.0,0.0,0.0,0.0,0.0,0.0,0.0,0.0,0.0,0.0,0.0,0.0,0.0,0.0,0.0,0.0,0.0,0.0,0.0,0.0,0.0,0.0,0.0,0.0,0.0,0.0,0.0,0.0,0.0,0.0,0.0,0.0,0.0,0.0,0.0,0.0,0.0,0.0,0.0,0.0,0.0,0.0,0.0,0.0,0.0,0.0,-4.0032,-4.0022,-4.0139,0.0,0.0,0.0,0.0,0.0,0.0,0.0,0.0,0.0,0.0,0.0,0.0,0.0,0.0,0.0,0.0,0.0,0.0,0.0,0.0,0.0,0.0,0.0,0.0,0.0,0.0,0.0,0.0,0.0,0.0,0.0,0.0,0.0,0.0,0.0,0.0,0.0,0.0,0.0,0.0,0.0,0.0,0.0,0.0,0.0,0.0,0.0,0.0,0.0,0.0,0.0,0.0,0.0,0.0,0.0,0.0,0.0,0.0,0.0,0.0,0.0,0.0,0.0,0.0,0.0,0.0,0.0,0.0,0.0,0.0,0.0,0.0,0.0,0.0,0.0,0.0,0.0,0.0,0.0,0.0,0.0,0.0,0.0,0.0,0.0,0.0,0.0,0.0,0.0,0.0,0.0,0.0,0.0,0.0,0.0,0.0,0.0,0.0,0.0,0.0,0.0,0.0,0.0,0.0,0.0,0.0,0.0,0.0,0.0,0.0,-3.9963,-3.984,-3.9829,0.0,-3.9668,0.0,0.0,0.0,0.0,0.0,0.0,0.0,0.0,0.0,0.0,0.0,0.0,0.0,0.0,0.0,0.0,0.0,0.0,0.0,0.0,0.0,0.0,0.0,0.0,0.0,0.0,0.0,0.0,0.0,0.0,0.0,0.0,0.0,0.0,0.0,0.0,0.0,0.0,0.0,0.0,0.0,0.0,0.0,0.0,0.0,0.0,0.0,0.0,0.0,0.0,0.0,0.0,0.0,0.0,0.0,0.0,0.0,0.0,0.0,0.0,0.0,0.0,0.0,0.0,0.0,0.0,0.0,0.0,0.0,0.0,0.0,0.0,0.0,0.0,0.0,0.0,0.0,0.0,0.0,0.0,0.0,0.0,0.0,0.0,0.0,0.0,0.0,0.0,0.0,0.0,0.0,0.0,0.0,0.0,0.0,0.0,0.0,0.0,0.0,0.0,0.0,0.0,0.0,0.0,0.0,0.0,0.0,0.0,0.0,0.0,-3.9854,-3.981,-3.9732,-3.9597,0.0,0.0,0.0,0.0,0.0,0.0,0.0,0.0,0.0,0.0,0.0,0.0,0.0,0.0,0.0,0.0,0.0,0.0,0.0,0.0,0.0,0.0,0.0,0.0,0.0,0.0,0.0,0.0,0.0,0.0,0.0,0.0,0.0,0.0,0.0,0.0,0.0,0.0,0.0,0.0,0.0,0.0,0.0,0.0,0.0,0.0,0.0,0.0,0.0,0.0,0.0,0.0,0.0,0.0,0.0,0.0,0.0,0.0,0.0,0.0,0.0,0.0,0.0,0.0,0.0,0.0,0.0,0.0,0.0,0.0,0.0,0.0,0.0,0.0,0.0,0.0,0.0,0.0,0.0,0.0,0.0,0.0,0.0,0.0,0.0,0.0,0.0,0.0,0.0,0.0,0.0,0.0,0.0,0.0,0.0,0.0,0.0,0.0,0.0,0.0,0.0,0.0,0.0,0.0,0.0,0.0,0.0,0.0,0.0,0.0,-3.9516,-3.9373,-3.9326,-3.9164,-3.9001,-3.8856,0.0,0.0,0.0,0.0,0.0,0.0,0.0,0.0,0.0,0.0,0.0,0.0,0.0,0.0,0.0,0.0,0.0,0.0,0.0,0.0,0.0,0.0,0.0,0.0,0.0,0.0,0.0,0.0,0.0,0.0,0.0,0.0,0.0,0.0,0.0,0.0,0.0,0.0,0.0,0.0,0.0,0.0,0.0,0.0,0.0,0.0,0.0,0.0,0.0,0.0,0.0,0.0,0.0,0.0,0.0,0.0,0.0,0.0,0.0,0.0,0.0,0.0,0.0,0.0,0.0,0.0,0.0,0.0,0.0,0.0,0.0,0.0,0.0,0.0,0.0,0.0,0.0,0.0,0.0,0.0,0.0,0.0,0.0,0.0,0.0,0.0,0.0,0.0,0.0,0.0,0.0,0.0,0.0,0.0,0.0,0.0,0.0,0.0,0.0,0.0,0.0,0.0,0.0,0.0,0.0,0.0,0.0,0.0,-3.9526,-3.88,-3.8308,-3.824,-3.7927,-3.7775,0.0,0.0,0.0,0.0,0.0,0.0,0.0,0.0,0.0,0.0,0.0,0.0,0.0,0.0,0.0,0.0,0.0,0.0,0.0,0.0,0.0,0.0,0.0,0.0,0.0,0.0,0.0,0.0,0.0,0.0,0.0,0.0,0.0,0.0,0.0,0.0,0.0,0.0,0.0,0.0,0.0,0.0,0.0,0.0,0.0,0.0,0.0,0.0,0.0,0.0,0.0,0.0,0.0,0.0,0.0,0.0,0.0,0.0,0.0,0.0,0.0,0.0,0.0,0.0,0.0,0.0,0.0,0.0,0.0,0.0,0.0,0.0,0.0,0.0,0.0,0.0,0.0,0.0,0.0,0.0,0.0,0.0,0.0,0.0,0.0,0.0,0.0,0.0,0.0,0.0,0.0,0.0,0.0,0.0,0.0,0.0,0.0,0.0,0.0,0.0,0.0,0.0,0.0,0.0,0.0,0.0,0.0,0.0,0.0,-3.8609,-3.8239,-3.8268,-3.8667,-3.7581,-3.7188,0.0,0.0,0.0,0.0,0.0,0.0,0.0,0.0,0.0,0.0,0.0,0.0,0.0,0.0,0.0,0.0,0.0,0.0,0.0,0.0,0.0,0.0,0.0,0.0,0.0,0.0,0.0,0.0,0.0,0.0,0.0,0.0,0.0,0.0,0.0,0.0,0.0,0.0,0.0,0.0,0.0,0.0,0.0,0.0,0.0,0.0,0.0,0.0,0.0,0.0,0.0,0.0,0.0,0.0,0.0,0.0,0.0,0.0,0.0,0.0,0.0,0.0,0.0,0.0,0.0,0.0,0.0,0.0,0.0,0.0,0.0,0.0,0.0,0.0,0.0,0.0,0.0,0.0,0.0,0.0,0.0,0.0,0.0,0.0,0.0,0.0,0.0,0.0,0.0,0.0,0.0,0.0,0.0,0.0,0.0,0.0,0.0,0.0,0.0,0.0,0.0,0.0,0.0,0.0,0.0,0.0,0.0,0.0,0.0,-3.7653,0.0,-3.8042,-3.8265,-3.7128,-3.662,0.0,0.0,0.0,0.0,0.0,0.0,0.0,0.0,0.0,0.0,0.0,0.0,0.0,0.0,0.0,0.0,0.0,0.0,0.0,0.0,0.0,0.0,0.0,0.0,0.0,0.0,0.0,0.0,0.0,0.0,0.0,0.0,0.0,0.0,0.0,0.0,0.0,0.0,0.0,0.0,0.0,0.0,0.0,0.0,0.0,0.0,0.0,0.0,0.0,0.0,0.0,0.0,0.0,0.0,0.0,0.0,0.0,0.0,0.0,0.0,0.0,0.0,0.0,0.0,0.0,0.0,0.0,0.0,0.0,0.0,0.0,0.0,0.0,0.0,0.0,0.0,0.0,0.0,0.0,0.0,0.0,0.0,0.0,0.0,0.0,0.0,0.0,0.0,0.0,0.0,0.0,0.0,0.0,0.0,0.0,0.0,0.0,0.0,0.0,0.0,0.0,0.0,0.0,0.0,0.0,0.0,0.0,0.0,-3.6742,-3.676,-3.749,-3.7556,-3.6766,-3.6582,-3.6076,0.0,0.0,0.0,0.0,0.0,0.0,0.0,0.0,0.0,0.0,0.0,0.0,0.0,0.0,0.0,0.0,0.0,0.0,0.0,0.0,0.0,0.0,0.0,0.0,0.0,0.0,0.0,0.0,0.0,0.0,0.0,0.0,0.0,0.0,0.0,0.0,0.0,0.0,0.0,0.0,0.0,0.0,0.0,0.0,0.0,0.0,0.0,0.0,0.0,0.0,0.0,0.0,0.0,0.0,0.0,0.0,0.0,0.0,0.0,0.0,0.0,0.0,0.0,0.0,0.0,0.0,0.0,0.0,0.0,0.0,0.0,0.0,0.0,0.0,0.0,0.0,0.0,0.0,0.0,0.0,0.0,0.0,0.0,0.0,0.0,0.0,0.0,0.0,0.0,0.0,0.0,0.0,0.0,0.0,0.0,0.0,0.0,0.0,0.0,0.0,0.0,0.0,0.0,0.0,0.0,0.0,0.0,0.0,0.0,-3.7378,-3.7552,-3.779,-3.7996,-3.637,-3.5625,0.0,0.0,0.0,0.0,0.0,0.0,0.0,0.0,0.0,0.0,0.0,0.0,0.0,0.0,0.0,0.0,0.0,0.0,0.0,0.0,0.0,0.0,0.0,0.0,0.0,0.0,0.0,0.0,0.0,0.0,0.0,0.0,0.0,0.0,0.0,0.0,0.0,0.0,0.0,0.0,0.0,0.0,0.0,0.0,0.0,0.0,0.0,0.0,0.0,0.0,0.0,0.0,0.0,0.0,0.0,0.0,0.0,0.0,0.0,0.0,0.0,0.0,0.0,0.0,0.0,0.0,0.0,0.0,0.0,0.0,0.0,0.0,0.0,0.0,0.0,0.0,0.0,0.0,0.0,0.0,0.0,0.0,0.0,0.0,0.0,0.0,0.0,0.0,0.0,0.0,0.0,0.0,0.0,0.0,0.0,0.0,0.0,0.0,0.0,0.0,0.0,0.0,0.0,0.0,0.0,0.0,0.0,0.0,0.0,-3.8033,-3.7996,-3.8028,-3.823,-3.6468,-3.5591,-3.5826,0.0,0.0,0.0,0.0,0.0,0.0,0.0,0.0,0.0,0.0,0.0,0.0,0.0,0.0,0.0,0.0,0.0,0.0,0.0,0.0,0.0,0.0,0.0,0.0,0.0,0.0,0.0,0.0,0.0,0.0,0.0,0.0,0.0,0.0,0.0,0.0,0.0,0.0,0.0,0.0,0.0,0.0,0.0,0.0,0.0,0.0,0.0,0.0,0.0,0.0,0.0,0.0,0.0,0.0,0.0,0.0,0.0,0.0,0.0,0.0,0.0,0.0,0.0,0.0,0.0,0.0,0.0,0.0,0.0,0.0,0.0,0.0,0.0,0.0,0.0,0.0,0.0,0.0,0.0,0.0,0.0,0.0,0.0,0.0,0.0,0.0,0.0,0.0,0.0,0.0,0.0,0.0,0.0,0.0,0.0,0.0,0.0,0.0,0.0,0.0,0.0,0.0,0.0,0.0,0.0,0.0,0.0,0.0,-3.8689,-3.8707,-3.8322,-3.7621,-3.674,-3.5903,0.0,0.0,0.0,0.0,0.0,0.0,0.0,0.0,0.0,0.0,0.0,0.0,0.0,0.0,0.0,0.0,0.0,0.0,0.0,0.0,0.0,0.0,0.0,0.0,0.0,0.0,0.0,0.0,0.0,0.0,0.0,0.0,0.0,0.0,0.0,0.0,0.0,0.0,0.0,0.0,0.0,0.0,0.0,0.0,0.0,0.0,0.0,0.0,0.0,0.0,0.0,0.0,0.0,0.0,0.0,0.0,0.0,0.0,0.0,0.0,0.0,0.0,0.0,0.0,0.0,0.0,0.0,0.0,0.0,0.0,0.0,0.0,0.0,0.0,0.0,0.0,0.0,0.0,0.0,0.0,0.0,0.0,0.0,0.0,0.0,0.0,0.0,0.0,0.0,0.0,0.0,0.0,0.0,0.0,0.0,0.0,0.0,0.0,0.0,0.0,0.0,0.0,0.0,0.0,0.0,0.0,0.0,0.0,0.0,-3.8634,-3.8707,-3.8597,-3.8358,-3.7037,-3.6193,0.0,0.0,0.0,0.0,0.0,0.0,0.0,0.0,0.0,0.0,0.0,0.0,0.0,0.0,0.0,0.0,0.0,0.0,0.0,0.0,0.0,0.0,0.0,0.0,0.0,0.0,0.0,0.0,0.0,0.0,0.0,0.0,0.0,0.0,0.0,0.0,0.0,0.0,0.0,0.0,0.0,0.0,0.0,0.0,0.0,0.0,0.0,0.0,0.0,0.0,0.0,0.0,0.0,0.0,0.0,0.0,0.0,0.0,0.0,0.0,0.0,0.0,0.0,0.0,0.0,0.0,0.0,0.0,0.0,0.0,0.0,0.0,0.0,0.0,0.0,0.0,0.0,0.0,0.0,0.0,0.0,0.0,0.0,0.0,0.0,0.0,0.0,0.0,0.0,0.0,0.0,0.0,0.0,0.0,0.0,0.0,0.0,0.0,0.0,0.0,0.0,0.0,0.0,0.0,0.0,0.0,0.0,0.0,-3.7584,-3.9166,-3.8872,-3.8872,-3.9203,-3.7643,-3.6648,0.0,0.0,0.0,0.0,0.0,0.0,0.0,0.0,0.0,0.0,0.0,0.0,0.0,0.0,0.0,0.0,0.0,0.0,0.0,0.0,0.0,0.0,0.0,0.0,0.0,0.0,0.0,0.0,0.0,0.0,0.0,0.0,0.0,0.0,0.0,0.0,0.0,0.0,0.0,0.0,0.0,0.0,0.0,0.0,0.0,0.0,0.0,0.0,0.0,0.0,0.0,0.0,0.0,0.0,0.0,0.0,0.0,0.0,0.0,0.0,0.0,0.0,0.0,0.0,0.0,0.0,0.0,0.0,0.0,0.0,0.0,0.0,0.0,0.0,0.0,0.0,0.0,0.0,0.0,0.0,0.0,0.0,0.0,0.0,0.0,0.0,0.0,0.0,0.0,0.0,0.0,0.0,0.0,0.0,0.0,0.0,0.0,0.0,0.0,0.0,0.0,0.0,0.0,0.0,0.0,0.0,0.0,0.0,-3.8227,-3.9735,-3.9148,-3.9129,-3.9698,-3.83,-3.7125,0.0,0.0,0.0,0.0,0.0,0.0,0.0,0.0,0.0,0.0,0.0,0.0,0.0,0.0,0.0,0.0,0.0,0.0,0.0,0.0,0.0,0.0,0.0,0.0,0.0,0.0,0.0,0.0,0.0,0.0,0.0,0.0,0.0,0.0,0.0,0.0,0.0,0.0,0.0,0.0,0.0,0.0,0.0,0.0,0.0,0.0,0.0,0.0,0.0,0.0,0.0,0.0,0.0,0.0,0.0,0.0,0.0,0.0,0.0,0.0,0.0,0.0,0.0,0.0,0.0,0.0,0.0,0.0,0.0,0.0,0.0,0.0,0.0,0.0,0.0,0.0,0.0,0.0,0.0,0.0,0.0,0.0,0.0,0.0,0.0,0.0,0.0,0.0,0.0,0.0,0.0,0.0,0.0,0.0,0.0,0.0,0.0,0.0,0.0,0.0,0.0,0.0,0.0,0.0,0.0,0.0,0.0,0.0,-3.797,-3.8946,-3.9386,-3.9423,-3.8964,-3.8025,-3.7125,0.0,0.0,0.0,0.0,0.0,0.0,0.0,0.0,0.0,0.0,0.0,0.0,0.0,0.0,0.0,0.0,0.0,0.0,0.0,0.0,0.0,0.0,0.0,0.0,0.0,0.0,0.0,0.0,0.0,0.0,0.0,0.0,0.0,0.0,0.0,0.0,0.0,0.0,0.0,0.0,0.0,0.0,0.0,0.0,0.0,0.0,0.0,0.0,-3.119,0.0,0.0,0.0,0.0,0.0,0.0,0.0,0.0,0.0,0.0,0.0,0.0,0.0,0.0,0.0,0.0,0.0,0.0,0.0,0.0,0.0,0.0,0.0,0.0,0.0,0.0,0.0,0.0,0.0,0.0,0.0,0.0,0.0,0.0,0.0,0.0,0.0,0.0,0.0,0.0,0.0,0.0,0.0,0.0,0.0,0.0,0.0,0.0,0.0,0.0,0.0,0.0,0.0,0.0,0.0,0.0,0.0,0.0,0.0,-3.7679,-3.9203,-3.9313,-3.9313,-3.9221,-3.8117,-3.7125,0.0,0.0,0.0,0.0,0.0,0.0,0.0,0.0,0.0,0.0,0.0,0.0,0.0,0.0,0.0,0.0,0.0,0.0,0.0,0.0,0.0,0.0,0.0,0.0,0.0,0.0,0.0,0.0,0.0,0.0,0.0,0.0,0.0,0.0,0.0,0.0,0.0,0.0,0.0,0.0,0.0,0.0,0.0,0.0,0.0,0.0,0.0,0.0,0.0,0.0,0.0,0.0,0.0,0.0,0.0,0.0,0.0,0.0,0.0,0.0,0.0,0.0,0.0,0.0,0.0,0.0,0.0,0.0,0.0,0.0,0.0,0.0,0.0,0.0,0.0,0.0,0.0,0.0,0.0,0.0,0.0,0.0,0.0,0.0,0.0,0.0,0.0,0.0,0.0,0.0,0.0,0.0,0.0,0.0,0.0,0.0,0.0,0.0,0.0,0.0,0.0,0.0,0.0,0.0,0.0,0.0,0.0,-3.6413,-3.7514,-3.9588,-3.9166,-3.9148,-3.968,-3.8282,-3.7125,-3.6321,0.0,0.0,0.0,0.0,0.0,0.0,0.0,0.0,0.0,0.0,0.0,0.0,0.0,0.0,0.0,0.0,0.0,0.0,0.0,0.0,0.0,0.0,0.0,0.0,0.0,0.0,0.0,0.0,0.0,0.0,0.0,0.0,0.0,0.0,0.0,0.0,0.0,0.0,-2.923,-3.0598,0.0,0.0,0.0,0.0,0.0,0.0,0.0,0.0,-3.1461,0.0,0.0,0.0,0.0,0.0,0.0,0.0,0.0,0.0,0.0,0.0,0.0,0.0,0.0,0.0,0.0,0.0,0.0,0.0,0.0,0.0,0.0,0.0,0.0,0.0,0.0,0.0,0.0,0.0,0.0,0.0,0.0,0.0,0.0,0.0,0.0,0.0,0.0,0.0,0.0,0.0,0.0,0.0,0.0,0.0,0.0,0.0,0.0,0.0,0.0,0.0,0.0,0.0,0.0,0.0,0.0,-3.6285,-3.696,-3.7808,-3.8872,-3.9423,-3.9441,-3.8891,-3.7988,-3.7125,-3.6321,0.0,0.0,0.0,0.0,0.0,0.0,0.0,0.0,0.0,0.0,0.0,0.0,0.0,0.0,0.0,0.0,0.0,0.0,0.0,0.0,0.0,0.0,0.0,0.0,0.0,0.0,0.0,0.0,0.0,0.0,0.0,0.0,0.0,0.0,0.0,0.0,0.0,0.0,0.0,-3.2121,-3.2848,0.0,0.0,0.0,0.0,0.0,0.0,0.0,0.0,-3.3051,0.0,0.0,0.0,0.0,0.0,0.0,0.0,0.0,0.0,0.0,0.0,0.0,0.0,0.0,0.0,0.0,0.0,0.0,0.0,0.0,0.0,0.0,0.0,0.0,0.0,0.0,0.0,0.0,0.0,0.0,0.0,0.0,0.0,0.0,0.0,0.0,0.0,0.0,0.0,0.0,0.0,0.0,0.0,0.0,0.0,0.0,0.0,0.0,0.0,0.0,0.0,0.0,0.0,0.0,0.0,-3.6266,-3.7107,-3.7881,-3.867,-3.9074,-3.9093,-3.8689,-3.7529,-3.6688,0.0,0.0,0.0,0.0,0.0,0.0,0.0,0.0,0.0,0.0,0.0,0.0,0.0,0.0,0.0,0.0,0.0,0.0,0.0,0.0,0.0,0.0,0.0,0.0,0.0,0.0,0.0,0.0,0.0,0.0,0.0,0.0,0.0,0.0,0.0,0.0,0.0,0.0,0.0,0.0,-3.2395,-3.2831,-3.2848,0.0,0.0,0.0,0.0,0.0,0.0,-3.2916,-3.3389,0.0,0.0,0.0,0.0,0.0,0.0,0.0,0.0,0.0,0.0,0.0,0.0,0.0,0.0,0.0,0.0,0.0,0.0,0.0,0.0,0.0,0.0,0.0,0.0,0.0,0.0,0.0,0.0,0.0,0.0,0.0,0.0,0.0,0.0,0.0,0.0,0.0,0.0,0.0,0.0,0.0,0.0,0.0,0.0,0.0,0.0,0.0,0.0,0.0,0.0,0.0,0.0,0.0,0.0,0.0,-3.6285,-3.7088,-3.7896,-3.8652,-3.8707,-3.8634,-3.8432,-3.689,-3.6046,0.0,0.0,0.0,0.0,0.0,0.0,0.0,0.0,0.0,0.0,0.0,0.0,0.0,0.0,0.0,0.0,0.0,0.0,0.0,0.0,0.0,0.0,0.0,0.0,0.0,0.0,0.0,0.0,0.0,0.0,0.0,0.0,0.0,0.0,0.0,0.0,0.0,0.0,0.0,0.0,0.0,-3.2899,-3.3339,-3.2882,0.0,0.0,0.0,0.0,-3.2919,-3.3592,0.0,0.0,0.0,0.0,0.0,0.0,0.0,0.0,0.0,0.0,0.0,0.0,0.0,0.0,0.0,0.0,0.0,0.0,0.0,0.0,0.0,0.0,0.0,0.0,0.0,0.0,0.0,0.0,0.0,0.0,0.0,0.0,0.0,0.0,0.0,0.0,0.0,0.0,0.0,0.0,0.0,0.0,0.0,0.0,0.0,0.0,0.0,0.0,0.0,0.0,0.0,0.0,0.0,0.0,0.0,0.0,-3.6285,-3.7107,-3.7896,-3.8652,-3.8707,-3.8358,-3.7639,-3.6028,-3.5169,0.0,0.0,0.0,0.0,0.0,0.0,0.0,0.0,0.0,0.0,0.0,0.0,0.0,0.0,0.0,0.0,0.0,0.0,0.0,0.0,0.0,0.0,0.0,0.0,0.0,0.0,0.0,0.0,0.0,0.0,0.0,0.0,0.0,0.0,0.0,0.0,0.0,0.0,0.0,0.0,0.0,-3.4032,-3.3474,-3.3339,-3.3237,0.0,0.0,-3.3744,-3.4991,-3.5893,0.0,0.0,0.0,0.0,0.0,0.0,0.0,0.0,0.0,0.0,0.0,0.0,0.0,0.0,0.0,0.0,0.0,0.0,0.0,0.0,0.0,0.0,0.0,0.0,0.0,0.0,0.0,0.0,0.0,0.0,0.0,0.0,0.0,0.0,0.0,0.0,0.0,0.0,0.0,0.0,0.0,0.0,0.0,0.0,0.0,0.0,0.0,0.0,0.0,0.0,0.0,0.0,0.0,0.0,0.0,-3.5426,-3.6285,-3.7088,-3.7881,-3.867,-3.8707,-3.8102,-3.685,-3.5628,-3.4784,0.0,0.0,0.0,0.0,0.0,0.0,0.0,0.0,0.0,0.0,0.0,0.0,0.0,0.0,0.0,0.0,0.0,0.0,0.0,0.0,0.0,0.0,0.0,0.0,0.0,0.0,0.0,0.0,0.0,0.0,0.0,0.0,0.0,0.0,0.0,0.0,0.0,0.0,0.0,0.0,0.0,0.0,-3.3998,-3.4015,0.0,0.0,0.0,-3.4873,-3.5498,0.0,0.0,0.0,0.0,0.0,0.0,0.0,0.0,0.0,0.0,0.0,0.0,0.0,0.0,0.0,0.0,0.0,0.0,0.0,0.0,0.0,0.0,0.0,0.0,0.0,0.0,0.0,0.0,0.0,0.0,0.0,0.0,0.0,0.0,0.0,0.0,0.0,0.0,0.0,0.0,0.0,0.0,0.0,0.0,0.0,0.0,0.0,0.0,0.0,0.0,0.0,0.0,0.0,0.0,0.0,0.0,0.0,-3.6285,-3.7088,-3.7896,-3.867,-3.8707,-3.7826,-3.6046,-3.5334,0.0,0.0,0.0,0.0,0.0,0.0,0.0,0.0,0.0,0.0,0.0,0.0,0.0,0.0,0.0,0.0,0.0,0.0,0.0,0.0,0.0,0.0,0.0,0.0,0.0,0.0,0.0,-2.7874,0.0,0.0,0.0,0.0,0.0,0.0,0.0,0.0,0.0,0.0,0.0,0.0,0.0,0.0,-3.3947,-3.4675,-3.4945,-3.4928,0.0,0.0,-3.6028,-3.6394,-3.6789,-3.7013,0.0,0.0,0.0,0.0,0.0,0.0,0.0,0.0,0.0,0.0,0.0,0.0,0.0,0.0,0.0,0.0,0.0,0.0,0.0,0.0,0.0,0.0,0.0,0.0,0.0,0.0,0.0,0.0,0.0,0.0,0.0,0.0,0.0,0.0,0.0,0.0,0.0,0.0,0.0,0.0,0.0,0.0,0.0,0.0,0.0,0.0,0.0,0.0,0.0,0.0,0.0,0.0,0.0,0.0,-3.5426,-3.6285,-3.7088,-3.7881,-3.867,-3.8707,-3.7536,-3.5188,-3.5041,-3.4252,0.0,0.0,0.0,0.0,0.0,0.0,0.0,0.0,0.0,0.0,0.0,0.0,0.0,0.0,0.0,0.0,0.0,0.0,0.0,0.0,0.0,0.0,0.0,0.0,0.0,0.0,0.0,0.0,0.0,0.0,0.0,0.0,0.0,0.0,0.0,0.0,0.0,0.0,0.0,0.0,0.0,-3.4692,-3.5414,-3.6163,-3.688,0.0,-3.7094,-3.7218,-3.8548,-3.821,-3.7578,-3.6912,0.0,0.0,0.0,0.0,0.0,0.0,0.0,0.0,0.0,0.0,0.0,0.0,0.0,0.0,0.0,0.0,0.0,0.0,0.0,0.0,0.0,0.0,0.0,0.0,0.0,0.0,0.0,0.0,0.0,0.0,0.0,0.0,0.0,0.0,0.0,0.0,0.0,0.0,0.0,0.0,0.0,0.0,0.0,0.0,0.0,0.0,0.0,0.0,0.0,0.0,0.0,0.0,0.0,-3.4945,-3.6285,-3.6597,-3.7386,-3.8615,-3.8212,-3.7257,-3.5844,-3.4802,-3.3738,0.0,0.0,0.0,0.0,0.0,0.0,0.0,0.0,0.0,0.0,0.0,0.0,0.0,0.0,0.0,0.0,0.0,0.0,0.0,0.0,0.0,0.0,0.0,0.0,0.0,0.0,0.0,0.0,-2.8993,-2.9179,-2.9634,0.0,0.0,0.0,0.0,0.0,0.0,0.0,0.0,0.0,0.0,-3.495,-3.6163,-3.6586,0.0,0.0,-3.7652,-3.7821,-3.8836,-3.799,-3.7205,-3.7103,-3.596,0.0,0.0,0.0,0.0,0.0,0.0,0.0,0.0,0.0,0.0,0.0,0.0,0.0,0.0,0.0,0.0,0.0,0.0,0.0,0.0,0.0,0.0,0.0,0.0,0.0,0.0,0.0,0.0,0.0,0.0,0.0,0.0,0.0,0.0,0.0,0.0,0.0,0.0,0.0,0.0,0.0,0.0,0.0,0.0,0.0,0.0,0.0,0.0,0.0,0.0,0.0,0.0,-3.4871,-3.6266,-3.6523,-3.7331,-3.8655,-3.7933,-3.6997,-3.5917,-3.4761,-3.3638,0.0,0.0,0.0,0.0,0.0,0.0,0.0,0.0,0.0,0.0,0.0,0.0,0.0,0.0,0.0,0.0,0.0,0.0,0.0,0.0,0.0,0.0,0.0,0.0,0.0,0.0,0.0,0.0,-2.9653,-2.9854,-3.0378,0.0,0.0,0.0,0.0,0.0,0.0,0.0,0.0,0.0,0.0,-3.5301,-3.6609,-3.6981,-3.732,-3.7838,-3.7898,-3.8075,-3.8599,-3.753,-3.6618,-3.6622,0.0,0.0,0.0,0.0,0.0,0.0,0.0,0.0,0.0,0.0,0.0,0.0,0.0,0.0,0.0,0.0,0.0,0.0,0.0,0.0,0.0,0.0,0.0,0.0,0.0,0.0,0.0,-3.8707,0.0,0.0,-3.8707,0.0,0.0,0.0,0.0,0.0,0.0,0.0,0.0,0.0,0.0,0.0,0.0,0.0,0.0,0.0,0.0,0.0,0.0,0.0,0.0,0.0,0.0,-3.5389,-3.6303,-3.7052,-3.7845,-3.8637,-3.7933,-3.6707,-3.5155,-3.499,-3.4156,-3.2447,0.0,0.0,0.0,0.0,0.0,0.0,0.0,0.0,0.0,0.0,0.0,0.0,0.0,0.0,0.0,0.0,0.0,0.0,0.0,0.0,0.0,0.0,0.0,0.0,0.0,0.0,-3.114,-3.1157,-3.114,0.0,0.0,0.0,0.0,0.0,0.0,0.0,0.0,0.0,0.0,-3.5115,-3.5876,-3.6694,-3.7398,-3.7821,-3.7905,-3.7882,-3.7905,-3.7956,-3.6961,-3.5967,0.0,0.0,0.0,0.0,0.0,0.0,0.0,0.0,0.0,0.0,0.0,0.0,0.0,0.0,0.0,0.0,0.0,0.0,0.0,0.0,0.0,0.0,0.0,0.0,0.0,0.0,0.0,-3.8707,-3.8707,0.0,0.0,0.0,0.0,0.0,0.0,0.0,0.0,0.0,0.0,0.0,-3.8707,-3.8707,0.0,0.0,0.0,0.0,0.0,0.0,0.0,0.0,0.0,0.0,0.0,0.0,-3.5426,-3.6285,-3.7107,-3.7787,-3.8382,-3.714,-3.641,-3.6325,-3.5337,-3.4852,-3.496,0.0,0.0,0.0,0.0,0.0,0.0,0.0,0.0,0.0,0.0,0.0,0.0,0.0,0.0,0.0,0.0,0.0,0.0,0.0,0.0,0.0,0.0,0.0,0.0,0.0,-3.1938,0.0,0.0,0.0,0.0,0.0,0.0,0.0,0.0,0.0,0.0,0.0,-3.494,-3.5216,-3.543,-3.591,-3.6694,-3.6992,-3.733,0.0,0.0,0.0,0.0,0.0,0.0,0.0,0.0,0.0,0.0,0.0,0.0,0.0,0.0,-3.1796,-3.1553,-3.0957,-3.0492,-3.0492,0.0,0.0,0.0,0.0,0.0,0.0,0.0,0.0,0.0,0.0,0.0,0.0,0.0,0.0,-3.8707,0.0,-3.8707,0.0,0.0,0.0,0.0,0.0,0.0,0.0,0.0,-3.8707,-3.8707,-3.8707,-3.8707,-3.8707,0.0,-3.8707,-3.8707,0.0,0.0,0.0,0.0,0.0,0.0,0.0,0.0,-3.5776,-3.6707,-3.7511,-3.808,-3.838,-3.714,-3.651,-3.6599,-3.4901,-3.4452,-3.5439,-3.5616,-3.5363,0.0,0.0,0.0,0.0,0.0,0.0,0.0,0.0,0.0,0.0,0.0,0.0,0.0,0.0,0.0,0.0,0.0,0.0,0.0,0.0,0.0,0.0,0.0,-3.2682,0.0,0.0,0.0,0.0,0.0,0.0,0.0,0.0,0.0,-3.4895,-3.5278,-3.5616,-3.5616,-3.5616,-3.5785,-3.6315,0.0,0.0,0.0,0.0,0.0,0.0,0.0,-3.5501,-3.5792,-3.51,-3.4342,-3.3716,-3.2964,-3.2315,-3.1923,0.0,0.0,-3.1524,-3.1152,-3.0866,-3.0866,-3.0537,-3.0387,-3.0776,-3.0552,-3.0193,0.0,0.0,0.0,0.0,0.0,0.0,0.0,0.0,-3.8781,-3.8781,0.0,-3.8744,0.0,0.0,0.0,0.0,0.0,-3.8707,0.0,0.0,-3.8707,-3.8707,-3.8707,-3.8707,-3.8707,-3.8707,-3.8707,-3.8707,-3.8707,-3.8707,0.0,0.0,0.0,0.0,0.0,0.0,-3.6462,-3.7477,-3.8267,-3.8707,-3.864,-3.7885,-3.6939,-3.5893,-3.3884,-3.3197,-3.3945,-3.4996,-3.5273,-3.4796,-3.5953,0.0,0.0,0.0,0.0,0.0,0.0,0.0,0.0,0.0,0.0,0.0,0.0,0.0,0.0,0.0,0.0,0.0,0.0,0.0,0.0,-3.3457,0.0,0.0,0.0,0.0,0.0,0.0,0.0,0.0,0.0,0.0,-3.5566,-3.56,-3.5616,-3.5616,0.0,0.0,0.0,0.0,-3.56,-3.5611,-3.5577,-3.5571,-3.5571,-3.5297,-3.5081,-3.5081,0.0,0.0,-3.4028,-3.3531,-3.3029,-3.2641,-3.233,-3.2066,-3.1597,-3.1481,-3.1466,-3.1466,-3.1436,-3.1481,-3.1481,-3.1391,-3.1212,-4.0286,0.0,0.0,0.0,0.0,-3.9313,-3.9221,-3.8781,-3.9921,-3.9772,-3.8744,-3.9313,0.0,0.0,0.0,0.0,0.0,0.0,-3.8707,-3.8707,-3.8707,-3.8707,-3.8707,-3.8707,-3.8707,-3.8707,-3.8707,-3.8707,-3.8707,-3.8707,-3.8707,-3.867,0.0,0.0,0.0,0.0,-3.7179,-3.7529,-3.8285,-3.8614,-3.8403,-3.7441,-3.6414,-3.5357,-3.437,-3.4223,-3.5012,-3.5701,-3.599,-3.5846,-3.5839,0.0,0.0,0.0,0.0,0.0,0.0,0.0,0.0,0.0,0.0,0.0,0.0,0.0,0.0,0.0,0.0,0.0,0.0,0.0,-3.4134,-3.4184,-3.4184,0.0,0.0,0.0,0.0,0.0,0.0,0.0,0.0,0.0,-3.5616,-3.5616,-3.5616,0.0,0.0,-3.5616,-3.5616,-3.5373,-3.5251,-3.5251,-3.5001,0.0,-3.4818,-3.4739,-3.4667,-3.4683,-3.4325,-3.3958,-3.363,-3.3245,-3.2812,-3.229,-3.2122,-3.194,-3.1597,-3.1496,-3.1496,-3.1496,-3.1496,-3.1496,-3.1496,-3.1496,-3.1301,-4.2213,-4.0561,-3.9937,-3.9662,-3.9717,-4.0175,-4.0102,-3.9701,-4.0673,-4.0545,-3.9646,-3.9827,-3.9643,-3.9166,-3.8836,0.0,0.0,0.0,-3.8707,-3.8707,-3.8707,-3.8707,-3.8707,-3.8707,-3.8707,-3.8707,-3.8707,-3.8707,-3.8707,-3.8707,-3.8707,-3.8655,0.0,0.0,-3.7799,-3.7395,-3.733,-3.7624,-3.8097,-3.8254,-3.8086,-3.7073,-3.6094,-3.5135,-3.4369,-3.4367,-3.5151,-3.5598,-3.606,-3.6535,-3.6364,-3.584,0.0,0.0,0.0,0.0,0.0,0.0,0.0,0.0,0.0,0.0,0.0,-3.2544,-3.2121,0.0,0.0,0.0,-3.3846,-3.445,-3.4895,-3.4945,0.0,0.0,0.0,0.0,0.0,0.0,0.0,-3.4996,-3.5351,-3.5616,-3.5616,-3.5616,-3.5554,-3.5418,-3.5509,-3.5554,-3.5435,0.0,-3.5251,-3.5111,-3.4899,-3.4683,-3.4521,-3.448,-3.448,-3.448,-3.4284,-3.4084,-3.3866,-3.3471,-3.3011,-3.2508,-3.2203,-3.1953,-3.1568,-3.1496,-3.1496,-3.1496,-3.1496,-3.1496,-3.1496,-3.1496,-3.1301,-4.4415,-4.3552,-4.2103,-4.137,-4.1187,-4.126,-4.1224,-4.1113,-4.1224,-4.1224,-4.104,-4.0396,-4.001,-3.9827,-3.9056,0.0,-3.8707,-3.8707,-3.8762,-3.8799,-3.8817,-3.8817,-3.8891,-3.8836,-3.8799,-3.8817,-3.8744,-3.8707,-3.8707,-3.8707,-3.8707,-3.8673,-3.7718,-3.7592,-3.8251,-3.7347,-3.7193,-3.7861,-3.7879,-3.7862,-3.7826,-3.6863,-3.5972,-3.5207,-3.4147,-3.395,-3.4653,-3.4995,-3.5686,-3.6814,-3.7186,-3.6716,-3.5293,0.0,0.0,0.0,0.0,0.0,0.0,0.0,0.0,0.0,0.0,0.0,0.0,0.0,0.0,0.0,-3.516,0.0,-3.5616,-3.5616,0.0,0.0,0.0,-3.5616,-3.5616,-3.56,-3.5616,-3.5616,0.0,0.0,-3.5616,-3.5616,-3.5481,-3.5135,-3.535,-3.5464,-3.5182,-3.5327,-3.5402,-3.5128,-3.5041,-3.4875,-3.4472,-3.4374,-3.4325,-3.4325,-3.4399,-3.4325,-3.4284,-3.3917,-3.3439,-3.2975,-3.2532,-3.2051,-3.1597,-3.1496,-3.1496,-3.1496,-3.1496,-3.1496,-3.1391,-3.1436,-3.1301,-4.6067,-4.5296,-4.4929,-4.3699,-4.2084,-4.2671,-4.2231,-4.1224,-4.2415,-4.2249,-4.1132,-4.1534,-4.1038,-3.9845,-3.9056,-3.8707,-3.8707,-3.8707,-3.9038,-3.9588,-3.9606,-3.9937,-4.049,-3.99,-3.9606,-3.957,-3.8982,-3.8707,-3.8707,-3.8707,-3.8707,-3.8689,-3.8444,-3.8428,-3.8596,-3.8366,-3.8316,-3.8483,-3.8483,-3.8387,-3.8153,-3.7141,-3.6433,-3.6007,-3.4976,-3.4495,-3.4705,-3.5307,-3.5706,-3.5861,-3.6494,-3.6359,-3.5269,-3.5456,0.0,0.0,0.0,0.0,0.0,0.0,0.0,0.0,0.0,-3.3998,-3.3457,0.0,-3.5098,0.0,-3.5182,-3.5616,-3.5616,-3.5616,0.0,0.0,-3.5616,-3.5616,-3.5616,-3.5616,-3.5616,-3.5616,-3.5616,-3.5616,-3.5616,-3.5616,-3.5503,-3.5158,-3.5158,-3.5274,-3.5458,-3.5048,-3.4859,-3.4994,-3.4611,-3.4151,-3.405,-3.3771,-3.3607,-3.3581,-3.3591,-3.3581,-3.3607,-3.3461,-3.3198,-3.2683,-3.248,-3.2163,-3.1611,-3.1496,-3.1496,-3.1496,-3.1496,-3.1346,-3.0881,-3.1137,-3.1301,-4.7369,-4.6966,-4.6966,-4.5993,-4.4433,-4.4158,-4.3314,-4.2268,-4.3129,-4.3002,-4.2176,-4.2268,-4.1607,-4.0432,-3.9974,-3.9772,-3.9774,-3.979,-4.001,-4.0432,-4.0432,-4.0671,-4.1077,-4.0634,-4.0432,-4.0414,-3.9992,-3.9772,-3.9756,-3.9756,-3.9588,-3.9239,-3.9221,-3.9056,-3.871,-3.858,-3.8387,-3.8138,-3.8019,-3.7862,-3.7703,-3.7131,-3.6576,-3.6091,-3.5501,-3.5197,-3.5197,-3.5564,-3.5871,-3.6043,-3.6458,-3.635,-3.5589,-3.5531,-3.5275,0.0,0.0,0.0,0.0,0.0,0.0,0.0,0.0,0.0,0.0,0.0,-3.543,-3.503,-3.5363,-3.5616,-3.5616,-3.5616,-3.5616,-3.5616,-3.5616,-3.5616,-3.5616,-3.5616,-3.5616,-3.5616,-3.5616,-3.5616,-3.5616,-3.5616,-3.5532,-3.5327,-3.5041,-3.497,-3.5258,-3.5018,-3.4804,-3.4804,-3.43,-3.3822,-3.3668,-3.345,-3.3293,-3.3293,-3.3293,-3.3293,-3.3293,-3.3203,-3.3016,-3.2687,-3.2496,-3.2315,-3.1966,-3.191,-3.191,-3.1881,-3.1811,-3.1413,-3.0685,-3.1017,-3.1301,-4.8324,-4.8324,-4.8324,-4.7846,-4.7003,-4.559,-4.4488,-4.3662,-4.3663,-4.3589,-4.346,-4.2653,-4.1919,-4.1242,-4.1132,-4.1113,-4.1113,-4.1113,-4.115,-4.1242,-4.126,-4.1297,-4.1407,-4.1297,-4.1242,-4.1242,-4.115,-4.1113,-4.1113,-4.1113,-4.0689,-3.9918,-3.9882,-3.9496,-3.871,-3.8469,-3.8071,-3.7449,-3.7222,-3.7106,-3.7089,-3.7068,-3.6712,-3.6043,-3.5952,-3.595,-3.5912,-3.5912,-3.6147,-3.6588,-3.6623,-3.6437,-3.5958,-3.5361,-3.5202,0.0,-3.4996,0.0,0.0,0.0,0.0,0.0,0.0,0.0,0.0,-3.5616,-3.5616,-3.5616,-3.5616,-3.5616,-3.5616,-3.5616,-3.5616,-3.5616,-3.5616,-3.5616,-3.5616,-3.5616,-3.5616,-3.5616,-3.5616,-3.5616,-3.5616,-3.5577,-3.5532,-3.5441,-3.5001,-3.4787,-3.5034,-3.5041,-3.4859,-3.4594,-3.43,-3.4,-3.3477,-3.3346,-3.3372,-3.3319,-3.3293,-3.3293,-3.3293,-3.3123,-3.2951,-3.287,-3.2621,-3.2398,-3.237,-3.2287,-3.2259,-3.2176,-3.2038,-3.16,-3.0902,-3.1061,-3.1241,-4.8324,-4.8324,-4.8324,-4.7847,-4.7076,-4.6782,-4.581,-4.447,-4.4452,-4.4103,-4.346,-4.2653,-4.2213,-4.2029,-4.1389,-4.1113,-4.1113,-4.1113,-4.1444,-4.2066,-4.2084,-4.2433,-4.2983,-4.2378,-4.2066,-4.2029,-4.1425,-4.1113,-4.1113,-4.1113,-4.0689,-3.99,-3.9882,-3.9496,-3.8744,0.0,0.0,0.0,-3.7685,-3.7667,-3.765,-3.7449,-3.7265,-3.7086,-3.6895,0.0,-3.6519,-3.6536,-3.6405,-3.617,-3.6297,0.0,0.0,0.0,0.0,0.0,0.0,0.0,0.0,0.0,0.0,0.0,-3.5515,-3.5616,-3.5616,-3.5616,-3.5616,-3.5616,-3.5616,-3.5616,-3.5616,-3.5616,-3.5616,-3.5616,-3.5616,-3.5616,-3.5616,-3.5616,-3.5616,-3.5616,-3.5616,-3.5616,-3.56,-3.5373,-3.5222,-3.5228,-3.5065,-3.5034,-3.5088,-3.4851,-3.4732,-3.4899,-3.4804,-3.4423,-3.345,-3.3539,-3.3607,-3.3398,-3.3293,-3.3293,-3.3293,-3.3256,-3.3123,-3.2951,-3.2633,-3.2327,-3.215,-3.1868,-3.1783,-3.1682,-3.1668,-3.1444,-3.1024,-3.1202,-3.1301,-4.8691,0.0,-4.8324,-4.8048,0.0,-4.7681,-4.7003,-4.5828,-4.504,-4.425,-4.3478,-4.3092,-4.2873,-4.2873,-4.2451,-4.2286,-4.2286,-4.2286,-4.2506,-4.2873,-4.2892,-4.3112,-4.3479,-4.3075,-4.2892,-4.2855,-4.247,-4.2304,-4.2286,-4.2268,-4.168,-4.0506,-4.0487,-3.9836,-3.8538,-3.8221,-3.7966,-3.7809,-3.7685,-3.7541,-3.7394,-3.7279,-3.7203,-3.7203,-3.7085,0.0,0.0,0.0,0.0,0.0,0.0,0.0,0.0,0.0,0.0,-3.5622,-3.5616,-3.5616,-3.5616,-3.5616,-3.5616,-3.5616,-3.5616,-3.5616,-3.5616,-3.5616,-3.5616,-3.5616,-3.5616,-3.5616,-3.5616,-3.5616,-3.5616,-3.5616,-3.5616,-3.5616,-3.5616,-3.5616,-3.5616,-3.5616,-3.5616,-3.5616,-3.5583,-3.5464,-3.535,-3.5327,-3.5222,-3.5088,-3.5088,-3.4923,-3.478,-3.4546,-3.4325,-3.4,-3.3477,-3.3466,-3.3581,-3.3346,-3.3293,-3.3293,-3.3293,-3.3293,-3.324,-3.3096,-3.2931,-3.2796,-3.2676,-3.2511,-3.2385,-3.2358,-3.2163,-3.1903,-3.1692,-3.1613,-3.1301,-4.8948,-4.8324,-4.8324,-4.8324,-4.8324,-4.8324,-4.7847,-4.6984,0.0,0.0,0.0,-4.3479,-4.3479,-4.3479,-4.3479,-4.3479,-4.3479,-4.3479,-4.3479,-4.3479,-4.3479,-4.3479,-4.3479,-4.3479,-4.3479,-4.3479,-4.3479,-4.3479,-4.3479,-4.3316,-4.2475,-4.1121,-4.0831,-3.9876,-3.828,-3.7721,-3.7559,-3.7703,-3.7468,-3.7223,-3.6989,-3.6989,-3.6989,-3.6989,-3.6989,-3.695,-3.6871,-3.6725,-3.6482,-3.6195,-3.6019,-3.5822,-3.5622,-3.5616,-3.5616,-3.5616,-3.5616,-3.5616,-3.5616,-3.5616,-3.5616,-3.5616,-3.5616,-3.5616,-3.5616,-3.5616,-3.5616,-3.5616,-3.5616,-3.5616,-3.5616,-3.5616,-3.5616,-3.5616,-3.5616,-3.5616,-3.5616,-3.5616,-3.5616,-3.5616,-3.5616,-3.5616,-3.56,-3.5532,-3.5509,-3.5464,-3.5251,-3.5135,-3.5158,-3.5135,-3.4875,-3.4349,-3.4184,-3.3797,-3.3555,-3.3684,-3.3555,-3.3477,-3.3424,-3.3372,-3.3335,-3.3293,-3.3293,-3.3282,-3.3282,-3.3203,-3.3203,-3.3069,-3.315,-3.3081,-3.2703,-3.233,-3.2188,-3.1853,-3.136,-4.8416,-4.8324,-4.8324,-4.8324,-4.8324,-4.8324,-4.7846,-4.6966,-4.5388,-4.425,-4.3479,-4.3479,-4.3479,-4.3479,-4.3479,-4.3479,-4.3479,-4.3479,-4.3479,-4.3479,-4.3479,-4.3479,-4.3479,-4.3479,-4.3479,-4.3479,-4.3479,-4.3479,-4.3388,-4.2592,-4.1648,-4.0757,-3.9768,-3.8815,-3.7934,-3.7792,-3.765,-3.7449,-3.7203,-3.7029,-3.6989,-3.6989,-3.6989,-3.6989,-3.6989,-3.6811,-3.6426,-3.6381,-3.6152,-3.5717,-3.5667,-3.5644,-3.56,-3.5616,-3.5616,-3.5616,-3.5616,-3.5616,-3.5616,-3.5616,-3.5616,-3.5616,-3.5616,-3.5616,-3.5616,-3.5616,-3.5616,-3.5616,-3.5616,-3.5616,-3.5616,-3.5616,-3.5616,-3.5616,-3.5616,-3.5616,-3.5616,-3.5616,-3.5616,-3.5616,-3.5616,-3.5616,-3.5577,-3.5373,-3.5228,-3.5182,-3.5205,-3.5205,-3.5412,-3.5297,-3.5088,-3.4994,-3.5142,-3.4984,-3.4399,-3.4635,-3.4399,-3.3899,-3.3771,-3.3617,-3.3319,-3.3293,-3.3293,-3.3293,-3.315,-3.3005,-3.2978,-3.2703,-3.2578,-3.2413,-3.2262,-3.2066,-3.1807,-3.1564,-3.145,-4.8728,-4.8324,-4.8324,-4.8324,-4.8324,-4.8324,-4.7846,-4.7058,-4.6324,-4.5553,-4.4837,-4.48,-4.4782,-4.4764,-4.436,-4.414,-4.4121,-4.3699,-4.3479,-4.3479,-4.3479,-4.3479,-4.3479,-4.3479,-4.3479,-4.3479,-4.3479,-4.3479,-4.3442,-4.2991,-4.2371,-4.1514,-3.9859,-3.8528,-3.7631,-3.7431,-3.7318,-3.7184,-3.7203,-3.7145,-3.6989,-3.6989,-3.6989,-3.6989,-3.6906,-3.6745,-3.6523,-3.6276,-3.6023,-3.5844,-3.5672,-3.5616,-3.5616,-3.5616,-3.5616,-3.5616,-3.5616,-3.5616,-3.5616,-3.5616,-3.5616,-3.5616,-3.5616,-3.5616,-3.5616,-3.5616,-3.5616,-3.5616,-3.5616,-3.5616,-3.5616,-3.5616,-3.5616,-3.5616,-3.5616,-3.5616,-3.5616,-3.5616,-3.5616,-3.5616,-3.5616,-3.5616,-3.5616,-3.5464,-3.5389,-3.5389,-3.5389,-3.5458,-3.5571,-3.5304,-3.5018,-3.4851,-3.4923,-3.4747,-3.43,-3.4325,-3.4275,-3.3924,-3.371,-3.3529,-3.3335,-3.3293,-3.3293,-3.3293,-3.3192,-3.3123,-3.3096,-3.3016,-3.2839,-3.2757,-3.2582,-3.2324,-3.1821,-3.142,-3.1261,-4.8912,-4.8324,-4.8324,-4.8324,-4.8324,-4.8324,-4.792,-4.7388,-4.7369,-4.7003,-4.6452,-4.6085,-4.5792,-4.5571,-4.4984,-4.4599,-4.436,-4.3791,-4.3479,-4.3479,-4.3479,-4.3588,-4.3735,-4.3625,-4.3698,-4.3956,-4.3864,-4.3773,-4.3754,-4.3519,-4.2862,-4.1752,-4.0059,-3.8776,-3.7962,-3.7461,-3.7253,-3.7235,-3.7291,-3.7222,-3.6989,-3.6989,-3.6989,-3.697,-3.6866,-3.6725,-3.6602,-3.6272,-3.6002,-3.591,-3.5711,-3.5616,-3.5616,-3.5616,-3.5616,-3.5616,-3.5616,-3.5616,-3.5616,-3.5616,-3.5616,-3.5616,-3.5616,-3.5616,-3.5616,-3.5616,-3.5616,-3.5616,-3.5616,-3.5616,-3.5616,-3.5616,-3.5616,-3.5616,-3.5616,-3.5616,-3.5616,-3.5616,-3.5616,-3.5616,-3.5616,-3.5616,-3.5616,-3.5616,-3.56,-3.5577,-3.5616,-3.5577,-3.5487,-3.5251,-3.4947,-3.4546,-3.4448,-3.4423,-3.4101,-3.4075,-3.405,-3.394,-3.3684,-3.3477,-3.3346,-3.3293,-3.3293,-3.3293,-3.3293,-3.3282,-3.3282,-3.3266,-3.3229,-3.3123,-3.2951,-3.2598,-3.1827,-3.1547,-3.1288,-4.8398,-4.8324,-4.8324,-4.8324,-4.8324,-4.8324,-4.8251,-4.8177,-4.8196,-4.814,-4.7884,-4.6562,-4.5553,-4.4874,-4.4783,-4.4378,-4.3773,-4.3551,-4.3516,-4.357,-4.3497,-4.3883,-4.4434,-4.3846,-4.425,-4.5351,-4.4874,-4.4562,-4.4544,-4.3652,-4.225,-4.0564,-3.9938,-3.9692,-3.9453,-3.8518,-3.8006,-3.7988,-3.7378,-3.7009,-3.7007,-3.6989,-3.6989,-3.6989,-3.697,-3.6771,-3.6381,-3.628,-3.6067,-3.5689,-3.5622,-3.5616,-3.5616,-3.5616,-3.5616,-3.5616,-3.5616,-3.5616,-3.5616,-3.5616,-3.5616,-3.5616,-3.5616,-3.5616,-3.5616,-3.5616,-3.5616,-3.5616,-3.5616,-3.5616,-3.5616,-3.5616,-3.5616,-3.5616,-3.5616,-3.5616,-3.5616,-3.5616,-3.5616,-3.5616,-3.5616,-3.5616,-3.5616,-3.5616,-3.5616,-3.5616,-3.5616,-3.5509,-3.5304,-3.5158,-3.4875,-3.43,-3.4275,-3.4448,-3.4374,-3.4423,-3.4226,-3.3965,-3.3864,-3.3633,-3.3398,-3.3293,-3.3293,-3.3293,-3.3293,-3.3293,-3.3293,-3.3309,-3.3203,-3.3081,-3.29,-3.2582,-3.1813,-3.177,-3.1906,-4.8324,-4.8324,-4.8324,-4.8324,-4.8324,-4.8324,-4.8324,-4.8324,-4.8324,-4.8324,-4.8251,-4.7609,-4.715,-4.6764,-4.5847,-4.5461,-4.5553,-4.4635,-4.447,-4.4892,-4.4911,-4.4856,-4.4654,-4.4397,-4.4599,-4.5131,-4.4856,-4.4929,-4.5186,-4.4473,-4.2978,-4.1121,-4.0806,-4.0339,-3.9532,-3.9033,-3.8831,-3.8796,-3.8058,-3.7654,-3.7602,-3.7198,-3.6989,-3.695,-3.6731,-3.6509,-3.6301,-3.6045,-3.58,-3.5622,-3.5616,-3.5616,-3.5616,-3.5616,-3.5616,-3.5616,-3.5616,-3.5616,-3.5616,-3.5616,-3.5616,-3.5616,-3.5616,-3.5616,-3.5616,-3.5616,-3.5616,-3.5616,-3.5616,-3.5616,-3.5616,-3.5616,-3.5616,-3.5616,-3.5616,-3.5616,-3.5616,-3.5616,-3.5616,-3.5616,-3.5616,-3.5616,-3.5616,-3.5616,-3.5616,-3.5616,-3.56,-3.5532,-3.5396,-3.5228,-3.497,-3.4691,-3.457,-3.439,-3.4226,-3.4151,-3.4075,-3.394,-3.371,-3.345,-3.3398,-3.3293,-3.3293,-3.3293,-3.3293,-3.3293,-3.3293,-3.3293,-3.3256,-3.3049,-3.273,-3.2405,-3.2033,-3.1905,-3.1708,-4.8324,-4.8324,-4.8324,-4.8324,-4.8324,-4.8324,-4.8324,-4.8324,-4.8324,-4.8324,-4.8324,-4.8324,-4.8324,-4.8104,-4.6838,-4.6471,-4.6581,-4.5553,-4.5333,-4.5865,-4.5902,-4.57,-4.5351,-4.5131,-4.5259,-4.559,-4.5498,-4.5663,-4.6049,-4.5059,-4.3743,-4.2334,-4.1781,-4.1069,-4.0123,-3.9824,-3.9621,-3.9533,-3.8638,-3.8093,-3.7968,-3.7314,-3.6908,-3.6888,-3.6588,-3.636,-3.6233,-3.5871,-3.5667,-3.5616,-3.5616,-3.5616,-3.5616,-3.5616,-3.5616,-3.5616,-3.5616,-3.5616,-3.5616,-3.5616,-3.5616,-3.5616,-3.5616,-3.5616,-3.5616,-3.5616,-3.5616,-3.5616,-3.5616,-3.5616,-3.5616,-3.5616,-3.5616,-3.5616,-3.5616,-3.5616,-3.5616,-3.5616,-3.5616,-3.5616,-3.5616,-3.5616,-3.5616,-3.5616,-3.5616,-3.5616,-3.56,-3.5515,-3.5464,-3.5228,-3.5041,-3.4963,-3.4667,-3.4407,-3.4126,-3.4126,-3.4075,-3.4025,-3.3848,-3.3694,-3.3529,-3.3477,-3.3346,-3.3372,-3.3319,-3.3293,-3.3293,-3.3293,-3.3256,-3.3108,-3.2762,-3.2316,-3.1971,-3.1782,-3.1625,-4.8324,-4.8324,-4.8324,-4.8324,-4.8324,-4.8324,-4.8324,-4.8324,-4.8324,-4.8324,-4.8324,-4.8324,-4.8324,-4.8269,-4.7406,-4.6672,-4.6085,-4.5938,-4.592,-4.603,-4.5993,-4.6324,-4.6929,-4.6269,-4.6617,-4.759,-4.7058,-4.6874,-4.6874,-4.5203,-4.4196,-4.3956,-4.2721,-4.2015,-4.1679,-4.0859,-4.045,-4.0309,-3.8954,-3.8146,-3.8003,-3.7207,-3.6722,-3.6684,-3.6664,-3.6437,-3.6084,-3.5997,-3.5866,-3.5622,-3.5616,-3.5616,-3.5616,-3.5616,-3.5616,-3.5616,-3.5616,-3.5616,-3.5616,-3.5616,-3.5616,-3.5616,-3.5616,-3.5616,-3.5616,-3.5616,-3.5616,-3.5616,-3.5616,-3.5616,-3.5616,-3.5616,-3.5616,-3.5616,-3.5616,-3.5616,-3.5616,-3.5616,-3.5616,-3.5616,-3.5616,-3.5616,-3.5616,-3.5616,-3.5616,-3.5616,-3.5616,-3.5509,-3.5297,-3.5158,-3.4994,-3.4763,-3.4618,-3.4497,-3.4497,-3.43,-3.4325,-3.425,-3.4075,-3.4176,-3.4041,-3.3838,-3.3607,-3.3424,-3.3346,-3.3293,-3.3293,-3.3256,-3.3176,-3.3038,-3.2765,-3.235,-3.2025,-3.2151,-3.1962,-4.8324,-4.8324,-4.8324,-4.8324,-4.8324,-4.8324,-4.8324,-4.8324,-4.8324,-4.8324,-4.8324,-4.8324,-4.8324,-4.8268,-4.8012,-4.7719,-4.7407,-4.6929,-4.6948,-4.7388,-4.7443,-4.7314,-4.7058,-4.6782,-4.6892,-4.7369,-4.7241,-4.7094,-4.7002,-4.6149,-4.5096,-4.3973,-4.3206,-4.2477,-4.1819,-4.1407,-4.12,-4.1042,-3.9656,-3.8883,-3.8737,-3.7469,-3.664,-3.6461,-3.6335,-3.617,-3.6036,-3.5844,-3.5711,-3.56,-3.5616,-3.5616,-3.5616,-3.5616,-3.5616,-3.5616,-3.5616,-3.5616,-3.5616,-3.5616,-3.5616,-3.5616,-3.5616,-3.5616,-3.5616,-3.5616,-3.5616,-3.5616,-3.5616,-3.5616,-3.5616,-3.5616,-3.5616,-3.5616,-3.5616,-3.5616,-3.5616,-3.5616,-3.5616,-3.5616,-3.5616,-3.5616,-3.565,-3.5616,-3.5616,-3.5616,-3.5616,-3.5532,-3.5464,-3.5418,-3.5344,-3.5258,-3.5195,-3.5195,-3.5211,-3.448,-3.4101,-3.4,-3.3899,-3.3736,-3.3581,-3.3607,-3.3424,-3.3372,-3.3293,-3.3293,-3.3293,-3.3256,-3.3176,-3.3096,-3.2823,-3.2431,-3.2133,-3.2164,-3.1898,-4.8324,-4.8324,-4.8324,-4.8324,-4.8324,-4.8324,-4.8324,-4.8324,-4.8324,-4.8324,-4.8324,-4.8324,-4.8324,-4.8324,-4.8324,-4.8324,-4.8269,-4.7718,-4.7773,-4.8269,-4.8324,-4.8012,-4.7553,-4.748,-4.748,-4.748,-4.748,-4.7442,-4.7197,-4.6466,-4.5493,-4.4423,-4.3316,-4.248,-4.1995,-4.1745,-4.1604,-4.1358,-4.0323,-3.9631,-3.9388,-3.8077,-3.7049,-3.6625,-3.6356,-3.6127,-3.5883,-3.5689,-3.5616,-3.5616,-3.5616,-3.5616,-3.5616,-3.5616,-3.5616,-3.5616,-3.5616,-3.5616,-3.5616,-3.5616,-3.5616,-3.5616,-3.5616,-3.5616,-3.5616,-3.5616,-3.5616,-3.5633,-3.587,-3.5994,-3.5994,-3.6011,-3.5893,-3.5684,-3.5616,-3.5616,-3.5616,-3.5616,-3.5735,-3.5977,-3.6045,-3.6011,-3.5994,-3.5994,-3.5893,-3.5667,-3.5616,-3.5616,-3.5616,-3.5616,-3.5616,-3.5616,-3.5554,-3.5532,-3.5441,-3.4906,-3.4546,-3.4423,-3.405,-3.371,-3.3414,-3.3424,-3.3372,-3.3319,-3.3293,-3.3293,-3.3266,-3.3214,-3.3187,-3.316,-3.285,-3.2407,-3.2238,-3.2076,-3.1849,-4.8324,-4.8324,-4.8324,-4.8324,-4.8324,-4.8324,-4.8324,-4.8324,-4.8324,-4.8324,-4.8324,-4.8324,-4.8324,-4.8324,-4.8324,-4.8324,-4.8288,-4.8195,-4.8214,-4.8324,-4.8324,-4.8306,-4.8195,-4.8196,-4.8139,-4.8138,-4.8231,-4.8076,-4.7629,-4.6181,-4.5358,-4.5027,-4.3169,-4.2404,-4.2763,-4.2061,-4.1657,-4.1429,-4.0783,-4.0307,-3.9996,-3.8975,-3.8011,-3.725,-3.6956,-3.6514,-3.5757,-3.565,-3.5616,-3.5616,-3.5616,-3.5616,-3.5616,-3.5616,-3.5616,-3.5616,-3.5616,-3.5616,-3.565,-3.5701,-3.5752,-3.587,-3.5735,-3.5853,-3.5921,-3.587,-3.5853,-3.5971,-3.6417,-3.6812,-3.6812,-3.6812,-3.6535,-3.5802,-3.5802,-3.5752,-3.5785,-3.5701,-3.5926,-3.6535,-3.6728,-3.6795,-3.6812,-3.6694,-3.64,-3.5943,-3.5667,-3.5616,-3.5616,-3.5616,-3.5616,-3.5616,-3.5616,-3.5616,-3.5503,-3.5344,-3.5182,-3.497,-3.4497,-3.4117,-3.371,-3.3555,-3.3424,-3.3372,-3.3293,-3.3293,-3.3266,-3.3214,-3.3123,-3.3043,-3.2687,-3.2496,-3.2401,-3.2249,-3.1925,-4.8324,-4.8324,-4.8324,-4.8324,-4.8324,-4.8324,-4.8324,-4.8324,-4.8324,-4.8324,-4.8324,-4.8324,-4.8324,-4.8324,-4.8324,-4.8324,-4.8324,-4.8324,-4.8324,-4.8324,-4.8324,-4.8324,-4.8324,-4.8324,-4.819,-4.7975,-4.7974,-4.7772,-4.7367,-4.6609,-4.6074,-4.5422,-4.453,-4.357,-4.2833,-4.2552,-4.2201,-4.1569,-4.0889,-4.0459,-4.0263,-3.9215,-3.8451,-3.815,-3.7767,-3.7432,-3.7155,-3.6174,-3.5633,-3.5633,-3.5616,-3.5616,-3.5616,-3.5616,-3.5616,-3.5616,-3.5616,-3.591,-3.6349,-3.6417,-3.6654,-3.7019,-3.7138,-3.7172,-3.7172,-3.7121,-3.7104,-3.7138,-3.7432,-3.7567,-3.755,-3.7567,-3.7432,-3.7212,-3.6738,-3.662,-3.6952,-3.7104,-3.7043,-3.6857,-3.7229,-3.7516,-3.7449,-3.7229,-3.6789,-3.6451,-3.5994,-3.5667,-3.5633,-3.5701,-3.5616,-3.5616,-3.5616,-3.5633,-3.5509,-3.5412,-3.5251,-3.4954,-3.4546,-3.4176,-3.3838,-3.3555,-3.345,-3.3372,-3.3319,-3.3293,-3.3266,-3.3214,-3.315,-3.3069,-3.292,-3.2773,-3.2609,-3.2361,-3.2038,-4.8324,-4.8324,-4.8324,-4.8324,-4.8324,-4.8324,-4.8324,-4.8324,-4.8324,-4.8324,-4.8324,-4.8324,-4.8324,-4.8324,-4.8324,-4.8324,-4.8324,-4.8324,-4.8324,-4.8324,-4.8324,-4.8324,-4.8379,-4.8673,-4.8705,-4.847,-4.8309,-4.7916,-4.728,-4.6659,-4.6181,-4.5782,-4.5058,-4.4202,-4.3237,-4.2921,-4.2412,-4.1639,-4.1148,-4.088,-4.0622,-3.9909,-3.9279,-3.8917,-3.851,-3.82,-3.7889,-3.6918,-3.6349,-3.6039,-3.5785,-3.5616,-3.5616,-3.5616,-3.5616,-3.565,-3.591,-3.6282,-3.6778,-3.7032,-3.7364,-3.7821,-3.7898,-3.7882,-3.7905,-3.7898,-3.7898,-3.7898,-3.8159,-3.8294,-3.8294,-3.8311,-3.8413,-3.87,-3.7787,-3.7466,-3.7838,-3.7898,-3.7905,-3.7753,-3.8058,-3.8244,-3.8176,-3.799,-3.7466,-3.7195,-3.6552,-3.6045,-3.6045,-3.6079,-3.5977,-3.5926,-3.5994,-3.5887,-3.5633,-3.5441,-3.5274,-3.4883,-3.4431,-3.4084,-3.3745,-3.3503,-3.3319,-3.3319,-3.3309,-3.3293,-3.3266,-3.3293,-3.3229,-3.3203,-3.3123,-3.2989,-3.28,-3.2484,-3.2163,-4.8324,-4.8324,-4.8324,-4.8324,-4.8324,-4.8324,-4.8324,-4.8324,-4.8324,-4.8324,-4.8324,-4.8324,-4.8324,-4.8324,-4.8324,-4.8324,-4.8324,-4.8324,-4.8324,-4.8361,-4.8434,-4.8563,-4.8802,-4.937,-4.9588,-4.947,-4.9076,-4.8341,-4.7411,-4.6354,-4.5823,-4.6007,-4.4963,-4.4062,-4.3886,-4.3254,-4.2552,-4.1903,-4.1622,-4.1388,-4.1208,-4.0932,-4.0421,-3.9549,-3.921,-3.8785,-3.8311,-3.7973,-3.7516,-3.6789,-3.6096,-3.5791,-3.5701,-3.5701,-3.5887,-3.5955,-3.6485,-3.6857,-3.71,-3.7635,-3.8058,-3.8227,-3.8261,-3.8041,-3.8244,-3.8328,-3.8328,-3.8311,-3.8734,-3.9039,-3.9056,-3.9056,-3.9351,-3.9757,-3.8853,-3.8227,-3.799,-3.8075,-3.8379,-3.8768,-3.8988,-3.9056,-3.9039,-3.892,-3.8514,-3.8024,-3.733,-3.6924,-3.6846,-3.6755,-3.6485,-3.6451,-3.6552,-3.6282,-3.6056,-3.5571,-3.5429,-3.5188,-3.4699,-3.4234,-3.3797,-3.3503,-3.3293,-3.3293,-3.3293,-3.3293,-3.3293,-3.3293,-3.3293,-3.3256,-3.3203,-3.315,-3.2947,-3.2605,-3.2315,-4.8324,-4.8324,-4.8324,-4.8324,-4.8324,-4.8324,-4.8324,-4.8324,-4.8324,-4.8324,-4.8324,-4.8324,-4.8324,-4.8324,-4.8324,-4.8324,-4.8324,-4.8324,-4.8324,-4.8416,-4.9003,-4.9591,-5.005,-5.0343,-5.0352,-4.9997,-4.9188,-4.834,-4.7777,-4.6607,-4.609,-4.6161,-4.5758,-4.5231,-4.4764,-4.3974,-4.3237,-4.25,-4.1868,-4.16,-4.1483,-4.1123,-4.0802,-4.0535,-4.0014,-3.9731,-3.9445,-3.8988,-3.8115,-3.6931,-3.662,-3.6491,-3.6518,-3.6924,-3.7138,-3.7205,-3.7432,-3.7855,-3.8294,-3.8582,-3.892,-3.9469,-3.9368,-3.9512,-3.9512,-3.9495,-3.952,-3.9571,-3.9757,-3.9791,-3.9808,-3.9791,-3.9926,-4.0011,-3.9639,-3.9233,-3.8903,-3.9199,-3.9436,-3.9148,-3.9486,-3.9706,-3.9648,-3.9343,-3.8971,-3.8667,-3.8125,-3.7601,-3.7601,-3.7584,-3.7381,-3.7229,-3.7161,-3.6806,-3.6417,-3.5887,-3.5588,-3.5464,-3.5055,-3.457,-3.4075,-3.3581,-3.3398,-3.3293,-3.3293,-3.3293,-3.3293,-3.3293,-3.3293,-3.3293,-3.3282,-3.3203,-3.3054,-3.278,-3.248,-4.8324,-4.8324,-4.8324,-4.8324,-4.8324,-4.8324,-4.8324,-4.8324,-4.8324,-4.8324,-4.8324,-4.8324,-4.8324,-4.8324,-4.8324,-4.8324,-4.8324,-4.8324,-4.8508,-4.904,-5.0068,-5.082,-5.1206,-5.1298,-5.1177,-5.0842,-4.9621,-4.8784,-4.8056,-4.6841,-4.6274,-4.6196,-4.6214,-4.581,-4.508,-4.4676,-4.4009,-4.3272,-4.2535,-4.2113,-4.2068,-4.1308,-4.0935,-4.0799,-4.0412,-4.0113,-3.9994,-3.9377,-3.8454,-3.7516,-3.7263,-3.7263,-3.7297,-3.7652,-3.7898,-3.7898,-3.8176,-3.8565,-3.8937,-3.9242,-3.9656,-3.9994,-4.0113,-4.0113,-4.0062,-4.0113,-4.0113,-4.0062,-4.0113,-4.0113,-4.0113,-4.0113,-4.0113,-4.0096,-4.0113,-3.9926,-3.9503,-3.9808,-3.9876,-3.9698,-3.9825,-4.0113,-4.0113,-3.9706,-3.9537,-3.9326,-3.8819,-3.8514,-3.8362,-3.8362,-3.8261,-3.8007,-3.7635,-3.7229,-3.6637,-3.6079,-3.565,-3.5532,-3.5327,-3.4859,-3.43,-3.3745,-3.3529,-3.3398,-3.3346,-3.3293,-3.3293,-3.3293,-3.3293,-3.3293,-3.3293,-3.3266,-3.3134,-3.2807,-3.2535,-4.8324,-4.8324,-4.8324,-4.8324,-4.8324,-4.8324,-4.8324,-4.8324,-4.8324,-4.8324,-4.8324,-4.8324,-4.8324,-4.8324,-4.8324,-4.8361,-4.8471,-4.8581,-4.9132,-4.9994,-5.1096,-5.1885,-5.2068,-5.2123,-5.2103,-5.1776,-5.0488,-4.9401,-4.8427,-4.7061,-4.6256,-4.6214,-4.6214,-4.5881,-4.5396,-4.5133,-4.4694,-4.4044,-4.3289,-4.2921,-4.2671,-4.1818,-4.1188,-4.1064,-4.0421,-4.0138,-3.996,-3.952,-3.8819,-3.8193,-3.8075,-3.8024,-3.8024,-3.8075,-3.8227,-3.8362,-3.8819,-3.9123,-3.9233,-3.974,-4.0045,-4.0113,-4.0113,-4.0113,-4.0113,-4.0113,-4.0113,-4.0113,-4.0113,-4.0113,-4.0113,-4.0113,-4.0113,-4.0113,-4.0113,-4.0113,-4.0113,-4.0113,-4.0113,-4.0113,-4.0113,-4.0113,-4.0113,-4.0113,-4.0079,-3.9808,-3.9419,-3.9249,-3.9106,-3.9089,-3.8886,-3.8565,-3.8125,-3.7618,-3.6924,-3.6214,-3.5836,-3.5577,-3.5435,-3.5048,-3.4521,-3.4025,-3.372,-3.3555,-3.345,-3.3346,-3.3293,-3.3293,-3.3293,-3.3293,-3.3293,-3.3293,-3.324,-3.2769,-3.2398,-4.8324,-4.8324,-4.8324,-4.8324,-4.8324,-4.8324,-4.8324,-4.8324,-4.8324,-4.8324,-4.8324,-4.8324,-4.8324,-4.8324,-4.8343,-4.8618,-4.9169,-4.9372,-5.0069,-5.1408,-5.1701,-5.238,-5.2766,-5.2894,-5.2913,-5.2416,-5.0709,-4.9649,-4.8962,-4.7447,-4.6214,-4.6196,-4.6196,-4.6144,-4.5916,-4.5414,-4.5062,-4.4729,-4.4079,-4.3676,-4.3407,-4.2408,-4.1671,-4.1529,-4.0677,-4.0155,-4.0096,-3.996,-3.9791,-3.9537,-3.9097,-3.8768,-3.8836,-3.9249,-3.9469,-3.9503,-3.9656,-3.9842,-3.9893,-3.9977,-4.0113,-4.0113,-4.0113,-4.0113,-4.0113,-4.0113,-4.0113,-4.0113,-4.0113,-4.0113,-4.0113,-4.0113,-4.0113,-4.0113,-4.0113,-4.0113,-4.0113,-4.0113,-4.0113,-4.0113,-4.0113,-4.0113,-4.0113,-4.0113,-4.0096,-4.0079,-3.9994,-3.9876,-3.9808,-3.9757,-3.952,-3.9123,-3.8514,-3.8024,-3.7584,-3.6789,-3.6146,-3.5808,-3.5588,-3.5367,-3.4818,-3.4275,-3.3949,-3.3694,-3.3503,-3.3424,-3.3293,-3.3293,-3.3293,-3.3293,-3.3293,-3.3293,-3.316,-3.2715,-3.2398,-4.8324,-4.8324,-4.8324,-4.8324,-4.8324,-4.8324,-4.8324,-4.8324,-4.8324,-4.8324,-4.8324,-4.8324,-4.8324,-4.8324,-4.8361,-4.8746,-4.9609,-5.0437,-5.1171,-5.1977,-5.2325,-5.2803,-5.3078,-5.3185,-5.3167,-5.292,-5.1431,-5.0358,-4.9331,-4.8034,-4.6804,-4.6214,-4.6232,-4.6196,-4.6214,-4.5793,-4.5653,-4.5484,-4.4887,-4.4448,-4.4237,-4.2973,-4.1757,-4.1459,-4.0831,-4.0502,-4.0146,-4.0096,-4.0096,-4.0011,-3.974,-3.952,-3.9554,-3.9876,-4.0079,-4.0113,-4.0113,-4.0113,-4.0096,-4.0113,-4.0113,-4.0113,-4.0113,-4.0113,-4.0113,-4.0113,-4.0113,-4.0113,-4.0113,-4.0113,-4.0113,-4.0113,-4.0113,-4.0113,-4.0113,-4.0113,-4.0113,-4.0113,-4.0113,-4.0113,-4.0113,-4.0113,-4.0113,-4.0113,-4.0096,-4.0096,-4.0096,-3.9994,-3.9994,-3.996,-3.9994,-3.9639,-3.8937,-3.8447,-3.8142,-3.7449,-3.6502,-3.6129,-3.5847,-3.5627,-3.5281,-3.4699,-3.4126,-3.3899,-3.3633,-3.3398,-3.3293,-3.3293,-3.3293,-3.3293,-3.3293,-3.3293,-3.3203,-3.2893,-3.2605,-4.8324,-4.8324,-4.8324,-4.8324,-4.8324,-4.8324,-4.8324,-4.8324,-4.8324,-4.8324,-4.8324,-4.8324,-4.8324,-4.8324,-4.8324,-4.8838,-4.9994,-5.1353,-5.2252,-5.2362,-5.2821,-5.3075,-5.3185,-5.3185,-5.3185,-5.3072,-5.1854,-5.0818,-4.9951,-4.8828,-4.7897,-4.6958,-4.6548,-4.6685,-4.6548,-4.6256,-4.6109,-4.5986,-4.5547,-4.5256,-4.5032,-4.3696,-4.2379,-4.1422,-4.1325,-4.1061,-4.0553,-4.0367,-4.0265,-4.013,-4.0113,-4.0113,-4.0113,-4.0113,-4.0113,-4.0113,-4.0113,-4.0113,-4.0113,-4.0113,-4.0113,-4.0113,-4.0113,-4.0113,-4.0113,-4.0113,-4.0113,-4.0113,-4.0113,-4.0113,-4.0113,-4.0113,-4.0113,-4.0113,-4.0113,-4.0113,-4.0113,-4.0113,-4.0113,-4.0113,-4.0113,-4.0113,-4.0113,-4.0113,-4.0113,-4.0113,-4.0113,-4.0113,-4.0113,-4.0113,-4.0113,-3.9926,-3.9208,-3.8497,-3.8159,-3.799,-3.7043,-3.6575,-3.6231,-3.5921,-3.561,-3.489,-3.43,-3.4,-3.3761,-3.3477,-3.3293,-3.3293,-3.3293,-3.3293,-3.3293,-3.3293,-3.3203,-3.3058,-3.2812,-4.8324,-4.8324,-4.8324,-4.8324,-4.8324,-4.8324,-4.8324,-4.8324,-4.8324,-4.8324,-4.8324,-4.8324,-4.8324,-4.8324,-4.8324,-4.915,-5.0582,-5.205,-5.2913,-5.2913,-5.313,-5.3185,-5.3185,-5.3185,-5.3185,-5.288,-5.212,-5.1373,-5.0836,-5.001,-4.9177,-4.8869,-4.8034,-4.7582,-4.7274,-4.6804,-4.6214,-4.6214,-4.6003,-4.5898,-4.5621,-4.4813,-4.3492,-4.2328,-4.227,-4.1827,-4.1154,-4.0933,-4.073,-4.018,-4.0113,-4.0113,-4.0113,-4.0113,-4.0113,-4.0113,-4.0113,-4.0113,-4.0113,-4.0113,-4.0113,-4.0113,-4.0113,-4.0113,-4.0113,-4.0113,-4.0113,-4.0113,-4.0113,-4.0113,-4.0113,-4.0113,-4.0113,-4.0113,-4.0113,-4.0113,-4.0113,-4.0113,-4.0113,-4.0113,-4.0113,-4.0113,-4.0113,-4.0113,-4.0113,-4.0113,-4.0113,-4.0113,-4.0113,-4.0113,-4.0113,-3.9825,-3.9428,-3.87,-3.8058,-3.8007,-3.7584,-3.7117,-3.6728,-3.6231,-3.5788,-3.4989,-3.4472,-3.4201,-3.3813,-3.3398,-3.3293,-3.3293,-3.3293,-3.3293,-3.3293,-3.3293,-3.3229,-3.3139,-3.2978,-4.8324,-4.8324,-4.8324,-4.8324,-4.8324,-4.8324,-4.8324,-4.8324,-4.8324,-4.8324,-4.8324,-4.8324,-4.8324,-4.8324,-4.8324,-4.9242,-5.0857,-5.2451,-5.313,-5.3185,-5.3185,-5.3185,-5.3185,-5.3185,-5.3185,-5.3072,-5.2596,-5.1949,-5.1413,-5.0895,-5.0317,-4.9485,-4.8556,-4.801,-4.7719,-4.6804,-4.6291,-4.6214,-4.6214,-4.6214,-4.6189,-4.5536,-4.4418,-4.3153,-4.2946,-4.2432,-4.1146,-4.1111,-4.0815,-4.024,-4.0113,-4.0113,-4.0113,-4.0113,-4.0113,-4.0113,-4.0113,-4.0113,-4.0113,-4.0113,-4.0113,-4.0113,-4.0113,-4.0113,-4.0113,-4.0113,-4.0113,-4.0113,-4.0113,-4.0113,-4.0113,-4.0113,-4.0113,-4.0113,-4.0113,-4.0113,-4.0113,-4.0113,-4.0113,-4.0113,-4.0113,-4.0113,-4.0113,-4.0113,-4.0113,-4.0113,-4.0113,-4.0113,-4.0113,-4.0113,-4.0113,-3.996,-3.969,-3.9402,-3.8751,-3.8531,-3.8278,-3.7794,-3.7269,-3.6789,-3.6057,-3.5319,-3.4782,-3.4423,-3.3949,-3.3346,-3.3293,-3.3293,-3.3293,-3.3293,-3.3293,-3.3309,-3.3282,-3.3203,-3.3058,-4.8324,-4.8324,-4.8324,-4.8324,-4.8324,-4.8324,-4.8324,-4.8324,-4.8324,-4.8324,-4.8324,-4.8324,-4.8324,-4.8379,-4.8673,-4.9426,-5.0894,-5.2323,-5.2931,-5.3185,-5.3185,-5.3185,-5.3185,-5.3185,-5.3185,-5.3185,-5.3109,-5.2691,-5.2101,-5.1814,-5.1238,-5.0606,-4.9372,-4.8496,-4.8265,-4.7351,-4.6685,-4.6214,-4.6214,-4.6214,-4.6147,-4.59,-4.507,-4.3297,-4.3708,-4.3108,-4.1551,-4.1495,-4.1078,-4.0544,-4.0299,-4.0282,-4.0146,-4.0113,-4.0113,-4.0113,-4.0113,-4.0113,-4.0113,-4.0113,-4.0113,-4.0113,-4.0113,-4.0113,-4.0113,-4.0113,-4.0113,-4.0113,-4.0113,-4.0113,-4.0113,-4.0113,-4.0113,-4.0113,-4.0113,-4.0113,-4.0113,-4.0113,-4.0113,-4.0113,-4.0113,-4.0113,-4.0113,-4.0113,-4.0113,-4.0113,-4.0113,-4.0113,-4.0113,-4.0113,-4.0113,-4.0113,-4.0028,-4.0011,-3.969,-3.9343,-3.9022,-3.8548,-3.8014,-3.7489,-3.6582,-3.5673,-3.5167,-3.4571,-3.3822,-3.3293,-3.3293,-3.3293,-3.3293,-3.3293,-3.3293,-3.3309,-3.3282,-3.3282,-3.3176,-4.8324,-4.8324,-4.8324,-4.8324,-4.8324,-4.8324,-4.8324,-4.8324,-4.8324,-4.8324,-4.8324,-4.8324,-4.8324,-4.8545,-4.9169,-4.9939,-5.0912,-5.1867,-5.2711,-5.313,-5.3185,-5.3185,-5.3185,-5.3185,-5.3185,-5.3185,-5.3185,-5.3148,-5.2825,-5.2804,-5.2843,-5.2291,-5.1201,-5.0507,-4.938,-4.8123,-4.7274,-4.6428,-4.6232,-4.6214,-4.6189,-4.6147,-4.5743,-4.5244,-4.4763,-4.3988,-4.2701,-4.2415,-4.1861,-4.0743,-4.0841,-4.0705,-4.0265,-4.0113,-4.0113,-4.0113,-4.0113,-4.0113,-4.0113,-4.0113,-4.0113,-4.0113,-4.0113,-4.0113,-4.0113,-4.0113,-4.0113,-4.0113,-4.0113,-4.0113,-4.0113,-4.0113,-4.0113,-4.0113,-4.0113,-4.0113,-4.0113,-4.0113,-4.0113,-4.0113,-4.0113,-4.0113,-4.0113,-4.0113,-4.0113,-4.0113,-4.0113,-4.0113,-4.0113,-4.0113,-4.0113,-4.0113,-4.0113,-4.0113,-4.0096,-3.9842,-3.9614,-3.9208,-3.865,-3.8058,-3.7093,-3.6111,-3.5226,-3.4586,-3.3822,-3.3319,-3.3293,-3.3293,-3.3293,-3.3293,-3.3293,-3.3293,-3.3309,-3.3282,-3.3282,-4.8324,-4.8324,-4.8324,-4.8324,-4.8324,-4.8324,-4.8324,-4.8324,-4.8324,-4.8324,-4.8324,-4.8324,-4.8526,-4.904,-4.9884,-5.071,-5.1518,-5.2252,-5.2821,-5.3093,-5.3185,-5.3185,-5.3185,-5.3185,-5.3185,-5.3185,-5.3185,-5.3185,-5.3185,-5.3185,-5.3185,-5.3014,-5.204,-5.1049,-5.0207,-4.877,-4.7747,-4.6952,-4.6495,-4.6232,-4.6214,-4.6154,-4.5954,-4.547,-4.5346,-4.4553,-4.363,-4.3053,-4.2463,-4.1435,-4.1144,-4.0678,-4.0373,-4.0213,-4.0113,-4.0113,-4.0113,-4.0113,-4.0113,-4.0113,-4.0113,-4.0113,-4.0113,-4.0113,-4.0113,-4.0113,-4.0113,-4.0113,-4.0113,-4.0113,-4.0113,-4.0113,-4.0113,-4.0113,-4.0113,-4.0113,-4.0113,-4.0113,-4.0113,-4.0113,-4.0113,-4.0113,-4.0113,-4.0113,-4.0113,-4.0113,-4.0113,-4.0113,-4.0113,-4.0113,-4.0113,-4.0113,-4.0113,-4.0113,-4.0113,-4.0011,-3.9977,-3.9622,-3.9123,-3.8456,-3.7535,-3.6608,-3.5663,-3.4683,-3.3851,-3.3477,-3.3346,-3.3293,-3.3293,-3.3293,-3.3293,-3.3293,-3.3293,-3.3309,-3.3272,-4.8324,-4.8324,-4.8324,-4.8324,-4.8324,-4.8324,-4.8324,-4.8324,-4.8324,-4.8324,-4.8324,-4.8343,-4.8765,-4.9481,-5.016,-5.0857,-5.1977,-5.2637,-5.2983,-5.3112,-5.3185,-5.3185,-5.3185,-5.3185,-5.3185,-5.3185,-5.3185,-5.3185,-5.3185,-5.3185,-5.3185,-5.3146,-5.2295,-5.1452,-5.0597,-4.9502,-4.8367,-4.7307,-4.6547,-4.6249,-4.6214,-4.6214,-4.5898,-4.5639,-4.5401,-4.5067,-4.4066,-4.3672,-4.316,-4.2075,-4.1697,-4.1319,-4.0905,-4.0474,-4.0375,-4.0341,-4.0316,-4.0113,-4.0113,-4.0113,-4.0113,-4.0113,-4.0113,-4.0113,-4.0113,-4.0113,-4.0113,-4.0113,-4.0113,-4.0113,-4.0113,-4.0113,-4.0113,-4.0113,-4.0113,-4.0113,-4.0113,-4.0113,-4.0113,-4.0113,-4.0113,-4.0113,-4.0113,-4.0113,-4.0113,-4.0113,-4.0113,-4.0113,-4.0113,-4.0113,-4.0113,-4.0113,-4.0113,-4.0113,-4.0113,-4.0113,-4.0113,-3.9994,-3.9495,-3.8794,-3.7887,-3.6917,-3.5968,-3.5002,-3.4018,-3.3555,-3.3372,-3.3319,-3.3293,-3.3293,-3.3293,-3.3293,-3.3293,-3.3309,-3.3277,-4.8324,-4.8324,-4.8324,-4.8324,-4.8324,-4.8324,-4.8324,-4.8324,-4.8324,-4.8324,-4.8324,-4.8379,-4.8802,-4.9537,-4.9958,-5.0749,-5.205,-5.205,-5.2619,-5.3059,-5.3185,-5.3185,-5.3185,-5.3185,-5.3185,-5.3185,-5.3185,-5.3185,-5.3185,-5.3185,-5.3185,-5.3088,-5.2652,-5.1855,-5.1041,-5.0125,-4.8778,-4.7666,-4.6688,-4.6284,-4.6232,-4.6214,-4.6126,-4.5968,-4.553,-4.5074,-4.4979,-4.4631,-4.4004,-4.2751,-4.258,-4.2194,-4.153,-4.1049,-4.0933,-4.0875,-4.0536,-4.035,-4.0299,-4.018,-4.0113,-4.0113,-4.0113,-4.0113,-4.0113,-4.0113,-4.0113,-4.0113,-4.0113,-4.0113,-4.0113,-4.0113,-4.0113,-4.0113,-4.0113,-4.0113,-4.0113,-4.0113,-4.0113,-4.0113,-4.0113,-4.0113,-4.0113,-4.0113,-4.0113,-4.0113,-4.0113,-4.0113,-4.0113,-4.0113,-4.0113,-4.0113,-4.0113,-4.0113,-4.0113,-4.0113,-4.0113,-4.0113,-3.9842,-3.9056,-3.8203,-3.7267,-3.6589,-3.5358,-3.4426,-3.3915,-3.3398,-3.3346,-3.3319,-3.3293,-3.3293,-3.3293,-3.3335,-3.3387,-3.3253,-4.8324,-4.8324,-4.8324,-4.8324,-4.8324,-4.8324,-4.8324,-4.8324,-4.8324,-4.8324,-4.8324,-4.8379,-4.9077,-5.0013,-5.0417,-5.1206,-5.2582,-5.2729,-5.2968,-5.3075,-5.3185,-5.3185,-5.3185,-5.3185,-5.3185,-5.3185,-5.3185,-5.3185,-5.3185,-5.3185,-5.3185,-5.3103,-5.2999,-5.2418,-5.1616,-5.0485,-4.9048,-4.7892,-4.7089,-4.6748,-4.6232,-4.6214,-4.6214,-4.6144,-4.6039,-4.5775,-4.5705,-4.5211,-4.4638,-4.4093,-4.3604,-4.2947,-4.2327,-4.1881,-4.1681,-4.152,-4.1044,-4.079,-4.0629,-4.0417,-4.0113,-4.0113,-4.0113,-4.013,-4.0197,-4.0146,-4.0113,-4.0113,-4.0163,-4.0214,-4.013,-4.0113,-4.0113,-4.0113,-4.0113,-4.0113,-4.0113,-4.0113,-4.0113,-4.0113,-4.0113,-4.0113,-4.0113,-4.0113,-4.0113,-4.0113,-4.0113,-4.0113,-4.0113,-4.0113,-4.0113,-4.0113,-4.0113,-4.0113,-4.0113,-4.0113,-4.0113,-4.0113,-4.0096,-3.9385,-3.8608,-3.8262,-3.7452,-3.6116,-3.4946,-3.442,-3.393,-3.353,-3.3346,-3.3293,-3.3293,-3.3293,-3.3355,-3.3433,-3.3407,-4.8324,-4.8324,-4.8324,-4.8324,-4.8324,-4.8324,-4.8324,-4.8324,-4.8324,-4.8324,-4.8343,-4.8581,-4.9444,-5.0545,-5.1132,-5.183,-5.2858,-5.3112,-5.3148,-5.3185,-5.3185,-5.3185,-5.3185,-5.3185,-5.3185,-5.3185,-5.3185,-5.3185,-5.3185,-5.3185,-5.3185,-5.3185,-5.3164,-5.2707,-5.1955,-5.0517,-4.9149,-4.8311,-4.7375,-4.7068,-4.6427,-4.6246,-4.6214,-4.6214,-4.6144,-4.6126,-4.6021,-4.5681,-4.5337,-4.4868,-4.4369,-4.3742,-4.3201,-4.279,-4.2516,-4.2159,-4.1707,-4.1409,-4.1264,-4.0663,-4.0163,-4.0113,-4.0409,-4.0426,-4.0468,-4.062,-4.0976,-4.0874,-4.0679,-4.0409,-4.0375,-4.0316,-4.0146,-4.0113,-4.0113,-4.0113,-4.0113,-4.0113,-4.0113,-4.0113,-4.0113,-4.0113,-4.0113,-4.0113,-4.0113,-4.0113,-4.0113,-4.0113,-4.0113,-4.0113,-4.0113,-4.0113,-4.0113,-4.0113,-4.0113,-4.0113,-4.0113,-4.0113,-4.0028,-3.9673,-3.91,-3.8799,-3.8187,-3.6837,-3.5786,-3.5029,-3.4378,-3.3825,-3.3525,-3.3293,-3.3293,-3.3309,-3.3387,-3.3469,-3.3681,-4.8324,-4.8324,-4.8324,-4.8324,-4.8324,-4.8324,-4.8324,-4.8324,-4.8324,-4.8324,-4.8416,-4.9058,-4.9903,-5.082,-5.1463,-5.2325,-5.2983,-5.3185,-5.3185,-5.3185,-5.3185,-5.3185,-5.3185,-5.3185,-5.3185,-5.3185,-5.3185,-5.3185,-5.3185,-5.3185,-5.3185,-5.3185,-5.3164,-5.2959,-5.2422,-5.07,-4.976,-4.9367,-4.7772,-4.7269,-4.6743,-4.6495,-4.6416,-4.6392,-4.6319,-4.6337,-4.6249,-4.6098,-4.5747,-4.5319,-4.5038,-4.462,-4.4356,-4.3273,-4.3057,-4.3417,-4.2313,-4.1929,-4.2044,-4.0832,-4.0383,-4.0451,-4.095,-4.117,-4.1339,-4.166,-4.1948,-4.166,-4.1491,-4.1221,-4.095,-4.0646,-4.0502,-4.0265,-4.0299,-4.018,-4.0197,-4.0113,-4.0113,-4.0113,-4.0113,-4.0113,-4.0113,-4.0113,-4.0113,-4.0113,-4.0113,-4.0113,-4.0113,-4.0113,-4.0113,-4.0113,-4.0113,-4.0113,-4.0113,-4.0113,-4.0113,-4.0113,-4.0011,-3.9757,-3.9495,-3.9244,-3.8455,-3.7452,-3.658,-3.5742,-3.4891,-3.4095,-3.3673,-3.3293,-3.3293,-3.3314,-3.3392,-3.363,-3.3951,-4.8324,-4.8324,-4.8324,-4.8324,-4.8324,-4.8324,-4.8324,-4.8324,-4.8324,-4.8324,-4.8489,-4.9205,-5.0051,-5.0839,-5.1628,-5.2417,-5.3038,-5.3185,-5.3185,-5.3185,-5.3185,-5.3185,-5.3185,-5.3185,-5.3185,-5.3185,-5.3185,-5.3185,-5.3185,-5.3185,-5.3185,-5.3185,-5.3164,-5.2977,-5.2518,-5.1486,-5.0874,-4.9831,-4.8926,-4.8307,-4.7263,-4.6985,-4.6875,-4.6875,-4.6684,-4.6607,-4.6566,-4.6398,-4.6108,-4.5785,-4.558,-4.5179,-4.5005,-4.4058,-4.3833,-4.3775,-4.2768,-4.2171,-4.1694,-4.083,-4.1016,-4.1367,-4.167,-4.189,-4.2016,-4.21,-4.2269,-4.2337,-4.2168,-4.1948,-4.1813,-4.1745,-4.1525,-4.0984,-4.0815,-4.0519,-4.0383,-4.0197,-4.0113,-4.0113,-4.0113,-4.0113,-4.0113,-4.0113,-4.0113,-4.0113,-4.0113,-4.0113,-4.0113,-4.0113,-4.0113,-4.0113,-4.0113,-4.0113,-4.0113,-4.0113,-4.0113,-4.0113,-4.0113,-4.0011,-3.9808,-3.9597,-3.9226,-3.8454,-3.7453,-3.6464,-3.5175,-3.4084,-3.3599,-3.3293,-3.3293,-3.3309,-3.335,-3.3877,-3.4547,-4.8324,-4.8324,-4.8324,-4.8324,-4.8324,-4.8324,-4.8324,-4.8324,-4.8324,-4.8324,-4.8508,-4.9205,-4.9849,-5.0563,-5.1499,-5.216,-5.2821,-5.3093,-5.3185,-5.3185,-5.3185,-5.3185,-5.3185,-5.3185,-5.3185,-5.3185,-5.3185,-5.3185,-5.3185,-5.3185,-5.3185,-5.3185,-5.3185,-5.3082,-5.2678,-5.2154,-5.1515,-5.0496,-4.9832,-4.8828,-4.8027,-4.7579,-4.7276,-4.7191,-4.708,-4.6962,-4.6893,-4.6754,-4.6548,-4.6383,-4.6047,-4.5682,-4.5551,-4.5095,-4.4726,-4.4282,-4.366,-4.2923,-4.2105,-4.1788,-4.2054,-4.2424,-4.2481,-4.2545,-4.2719,-4.3047,-4.3166,-4.3149,-4.2844,-4.2709,-4.2675,-4.2658,-4.2185,-4.1644,-4.1474,-4.117,-4.1001,-4.0874,-4.051,-4.046,-4.0146,-4.013,-4.0113,-4.0113,-4.0113,-4.0113,-4.0113,-4.0113,-4.0113,-4.0113,-4.0113,-4.0113,-4.0113,-4.0113,-4.0113,-4.0113,-4.0113,-4.0113,-4.0113,-4.0113,-4.0079,-3.9876,-3.969,-3.9269,-3.7853,-3.6419,-3.5026,-3.403,-3.3583,-3.334,-3.3293,-3.3309,-3.3324,-3.403,-3.4888,-4.8324,-4.8324,-4.8324,-4.8324,-4.8324,-4.8324,-4.8324,-4.8324,-4.8324,-4.8324,-4.8379,-4.9205,-4.9684,-4.9978,-5.1279,-5.2013,-5.227,-5.2876,-5.3112,-5.3185,-5.3185,-5.3185,-5.3185,-5.3185,-5.3185,-5.3185,-5.3185,-5.3185,-5.3185,-5.3185,-5.3185,-5.3185,-5.3185,-5.3124,-5.2898,-5.2544,-5.2011,-5.1304,-5.0265,-4.9395,-4.8753,-4.7946,-4.7611,-4.7475,-4.7389,-4.7323,-4.728,-4.7191,-4.7169,-4.7026,-4.6778,-4.6717,-4.6377,-4.5699,-4.5579,-4.5271,-4.4602,-4.3566,-4.2918,-4.2666,-4.2637,-4.2702,-4.2689,-4.2943,-4.3335,-4.3722,-4.3874,-4.3921,-4.3741,-4.3555,-4.3436,-4.3031,-4.2608,-4.2405,-4.2337,-4.2151,-4.1982,-4.1694,-4.1288,-4.0899,-4.0358,-4.0197,-4.013,-4.0113,-4.0113,-4.0113,-4.0113,-4.0113,-4.0113,-4.0113,-4.0113,-4.0113,-4.0113,-4.0113,-4.0113,-4.0113,-4.0113,-4.0113,-4.0113,-4.0113,-4.0113,-4.0113,-3.9943,-3.9286,-3.7851,-3.6364,-3.4736,-3.393,-3.3609,-3.3482,-3.3688,-3.3672,-3.3799,-3.4372,-3.5086,-4.8324,-4.8324,-4.8324,-4.8324,-4.8324,-4.8324,-4.8324,-4.8324,-4.8324,-4.8324,-4.8361,-4.9225,-4.95,-4.9757,-5.1281,-5.185,-5.227,-5.2729,-5.3075,-5.3185,-5.3185,-5.3185,-5.3185,-5.3185,-5.3185,-5.3185,-5.3185,-5.3185,-5.3185,-5.3185,-5.3185,-5.3185,-5.3185,-5.3185,-5.3093,-5.2949,-5.2509,-5.1864,-5.0753,-5.009,-4.9375,-4.8523,-4.8134,-4.7911,-4.7731,-4.7669,-4.7627,-4.7454,-4.7389,-4.728,-4.6436,-4.6166,-4.6701,-4.5776,-4.5218,-4.5089,-4.4117,-4.3022,-4.283,-4.2376,-4.2213,-4.2499,-4.2466,-4.2962,-4.344,-4.3861,-4.4147,-4.4109,-4.4196,-4.3976,-4.3931,-4.366,-4.3328,-4.3166,-4.3081,-4.2946,-4.2743,-4.2354,-4.1897,-4.1102,-4.0561,-4.0265,-4.0197,-4.0113,-4.0113,-4.0113,-4.0113,-4.0113,-4.0113,-4.0113,-4.0113,-4.0113,-4.0113,-4.0113,-4.0113,-4.0113,-4.0113,-4.0113,-4.0113,-4.0113,-4.0113,-4.0113,-4.0113,-3.9371,-3.8026,-3.62,-3.4272,-3.3914,-3.4149,-3.4252,-3.4415,-3.4304,-3.4356,-3.4955,-3.5448,-4.8012,-4.8288,-4.8324,-4.8324,-4.8324,-4.8324,-4.8324,-4.8324,-4.8324,-4.8324,-4.8361,-4.882,-4.9115,-4.9297,-5.0655,-5.1499,-5.1591,-5.2674,-5.3185,-5.3185,-5.3185,-5.3185,-5.3185,-5.3185,-5.3185,-5.3185,-5.3185,-5.3185,-5.3185,-5.3185,-5.3185,-5.3185,-5.3185,-5.3185,-5.3167,-5.3075,-5.2711,-5.2123,-5.1444,-5.082,-5.0013,-4.915,-4.8746,-4.8286,-4.8053,-4.7995,-4.7955,-4.771,-4.7708,-4.7645,-4.678,-4.6587,-4.6819,-4.587,-4.5139,-4.4881,-4.3752,-4.3045,-4.2694,-4.2068,-4.189,-4.1945,-4.2085,-4.243,-4.2923,-4.334,-4.3605,-4.3782,-4.4048,-4.4245,-4.4353,-4.4383,-4.4169,-4.3927,-4.3809,-4.3673,-4.3335,-4.2963,-4.2219,-4.1356,-4.0832,-4.0468,-4.0282,-4.0197,-4.0113,-4.0113,-4.0113,-4.0113,-4.0113,-4.0113,-4.0113,-4.0113,-4.0113,-4.0113,-4.0113,-4.0113,-4.0113,-4.0113,-4.0113,-4.0113,-4.0113,-4.0003,-3.9885,-3.9244,-3.8311,-3.6582,-3.4998,-3.492,-3.5058,-3.5129,-3.5154,-3.5142,-3.5221,-3.5603,-3.6019,-4.7571,-4.8324,-4.8324,-4.8324,-4.8324,-4.8324,-4.8324,-4.8324,-4.8324,-4.8324,-4.8324,-4.8343,-4.8398,-4.8802,-5.0031,-5.0784,-5.1316,-5.2307,-5.3038,-5.3167,-5.3185,-5.3185,-5.3185,-5.3185,-5.3185,-5.3185,-5.3185,-5.3185,-5.3185,-5.3167,-5.3148,-5.313,-5.3185,-5.3112,-5.2931,-5.2892,-5.2564,-5.2087,-5.1628,-5.1114,-5.0435,-4.9756,-4.9077,-4.8453,-4.8267,-4.8267,-4.8267,-4.8286,-4.8305,-4.8172,-4.7895,-4.7485,-4.6739,-4.5899,-4.5299,-4.4624,-4.3605,-4.3202,-4.2745,-4.2166,-4.185,-4.1758,-4.167,-4.195,-4.2356,-4.2807,-4.3097,-4.3486,-4.3757,-4.3983,-4.4072,-4.4376,-4.4378,-4.4282,-4.4215,-4.4147,-4.3995,-4.3504,-4.2777,-4.2016,-4.1542,-4.117,-4.0959,-4.0925,-4.0773,-4.0468,-4.0316,-4.0333,-4.013,-4.013,-4.0113,-4.0113,-4.0113,-4.0113,-4.0113,-4.0113,-4.0113,-4.0113,-4.0113,-4.0113,-4.0113,-3.9927,-3.9657,-3.8975,-3.8252,-3.7468,-3.6401,-3.6147,-3.5876,-3.5828,-3.5895,-3.596,-3.6153,-3.6374,-3.6564,-4.759,-4.8287,-4.8324,-4.8324,-4.8324,-4.8324,-4.8324,-4.8324,-4.8324,-4.8324,-4.8324,-4.8324,-4.8324,-4.8526,-4.9444,-5.0196,-5.0949,-5.1867,-5.2582,-5.2986,-5.313,-5.3185,-5.3185,-5.3185,-5.3185,-5.3185,-5.3185,-5.3185,-5.3185,-5.313,-5.2894,-5.2491,-5.2803,-5.302,-5.2546,-5.2491,-5.2215,-5.1977,-5.1279,-5.0765,-5.0033,-4.9205,-4.8434,-4.8324,-4.8324,-4.8324,-4.8324,-4.8324,-4.8324,-4.8229,-4.7689,-4.7107,-4.6459,-4.558,-4.5168,-4.4834,-4.3723,-4.3272,-4.3044,-4.2447,-4.192,-4.2008,-4.1986,-4.1788,-4.1903,-4.2264,-4.2656,-4.3045,-4.34,-4.3613,-4.3863,-4.4245,-4.4598,-4.4598,-4.4598,-4.4598,-4.4598,-4.3961,-4.3274,-4.2794,-4.2303,-4.1999,-4.1754,-4.1568,-4.1407,-4.1238,-4.1035,-4.0832,-4.035,-4.0163,-4.0113,-4.0113,-4.0113,-4.0113,-4.0113,-4.0113,-4.0113,-4.0113,-4.0113,-4.0113,-4.0113,-3.9961,-3.9775,-3.8958,-3.8184,-3.7786,-3.7416,-3.6967,-3.6727,-3.6634,-3.666,-3.68,-3.6875,-3.7038,-3.7148,-4.726,-4.8269,-4.8324,-4.8324,-4.8324,-4.8324,-4.8324,-4.8324,-4.8324,-4.8324,-4.8324,-4.8324,-4.8324,-4.8453,-4.9224,-4.9757,-5.0472,-5.1518,-5.2123,-5.2601,-5.3078,-5.3167,-5.3185,-5.3185,-5.3185,-5.3185,-5.3185,-5.3185,-5.3185,-5.3167,-5.2931,-5.2546,-5.2949,-5.2913,-5.238,-5.2215,-5.1942,-5.1961,-5.0857,-5.005,-4.9555,-4.9077,-4.8581,-4.8508,-4.8324,-4.8324,-4.8324,-4.8324,-4.8324,-4.8131,-4.7648,-4.728,-4.66,-4.5723,-4.5385,-4.4992,-4.4167,-4.3131,-4.3202,-4.2728,-4.1903,-4.2026,-4.2008,-4.1652,-4.173,-4.2068,-4.2155,-4.2573,-4.3114,-4.3374,-4.3647,-4.3983,-4.4427,-4.4598,-4.4598,-4.4598,-4.4581,-4.4327,-4.3707,-4.3183,-4.2811,-4.2574,-4.2286,-4.1999,-4.1863,-4.1771,-4.1593,-4.1238,-4.073,-4.0299,-4.0214,-4.0113,-4.0113,-4.0113,-4.0113,-4.0113,-4.0113,-4.0113,-4.0113,-4.0113,-4.0096,-4.0096,-3.9826,-3.932,-3.8966,-3.8838,-3.8444,-3.7947,-3.7626,-3.752,-3.7562,-3.7645,-3.7642,-3.7539,-3.7462,-4.6673,-4.8067,-4.8269,-4.8324,-4.8324,-4.8324,-4.8324,-4.8324,-4.8324,-4.8324,-4.8324,-4.8324,-4.8324,-4.86,-4.9022,-4.9372,-4.9996,-5.1077,-5.1683,-5.227,-5.2913,-5.3093,-5.3185,-5.3185,-5.3185,-5.3185,-5.3185,-5.3185,-5.3185,-5.3148,-5.3115,-5.3041,-5.2968,-5.2913,-5.2619,-5.2123,-5.1465,-5.1022,-5.0251,-4.9555,-4.9408,-4.9445,-4.8875,-4.8489,-4.8324,-4.8324,-4.8324,-4.8324,-4.8324,-4.8111,-4.777,-4.7414,-4.6825,-4.5975,-4.5547,-4.5082,-4.3857,-4.333,-4.3202,-4.2412,-4.1973,-4.178,-4.1674,-4.1635,-4.173,-4.1868,-4.198,-4.2282,-4.2815,-4.3288,-4.3545,-4.39,-4.4347,-4.4598,-4.4598,-4.4598,-4.4581,-4.4564,-4.4079,-4.3589,-4.342,-4.3183,-4.2963,-4.2658,-4.2472,-4.2347,-4.1999,-4.1576,-4.1153,-4.073,-4.0443,-4.0265,-4.0113,-4.0113,-4.0113,-4.0113,-4.0113,-4.0113,-4.0113,-4.0113,-4.0096,-4.0096,-4.0096,-4.0037,-3.9775,-3.9513,-3.9367,-3.903,-3.875,-3.8325,-3.8023,-3.7902,-3.7772,-3.7671,-3.7539,-4.5865,-4.7369,-4.8012,-4.8306,-4.8324,-4.8324,-4.8324,-4.8324,-4.8324,-4.8324,-4.8324,-4.8324,-4.8324,-4.8324,-4.8434,-4.8857,-4.9776,-5.0747,-5.1463,-5.205,-5.2839,-5.3093,-5.3185,-5.3185,-5.3185,-5.3185,-5.3185,-5.3185,-5.3112,-5.3096,-5.2582,-5.1701,-5.2105,-5.1646,-5.0472,-5.0235,-5.0308,-5.005,-4.9536,-4.8728,-4.871,-4.8673,-4.8526,-4.8343,-4.8324,-4.8324,-4.8324,-4.8324,-4.8324,-4.819,-4.7933,-4.7585,-4.7086,-4.6324,-4.5795,-4.5262,-4.3999,-4.3439,-4.31,-4.2382,-4.2008,-4.2289,-4.2131,-4.1674,-4.1808,-4.2056,-4.2172,-4.2374,-4.2879,-4.3485,-4.3831,-4.4198,-4.4581,-4.4598,-4.4598,-4.4598,-4.4581,-4.4581,-4.4395,-4.4215,-4.4164,-4.4062,-4.4028,-4.3758,-4.3572,-4.3352,-4.2997,-4.2506,-4.1617,-4.1187,-4.0747,-4.0476,-4.0231,-4.0113,-4.0113,-4.0113,-4.0113,-4.0113,-4.0113,-4.0113,-4.0113,-4.0113,-4.0113,-4.0113,-4.0113,-3.991,-3.9825,-3.967,-3.9391,-3.8887,-3.8367,-3.8075,-3.7947,-3.7801,-3.77]},{"header":{"parameterUnit":"m.s-1","parameterCategory":1,"la1":31.0,"la2":29.5877,"lo1":-88.7671,"lo2":-86.6584,"dy":0.0162,"dx":0.0185,"nx":115,"ny":88,"refTime":"2023-02-26T06:00:00:Z","depth":0,"parameterNumber":3,"parameterNumberName":"V-component_of_WINDS"},"data":[0.0,0.0,0.0,0.0,0.0,0.0,0.0,0.0,0.0,0.0,0.0,0.0,0.0,0.0,0.0,0.0,0.0,0.0,0.0,0.0,0.0,0.0,0.0,0.0,0.0,0.0,0.0,0.0,0.0,0.0,0.0,0.0,0.0,0.0,0.0,0.0,0.0,0.0,0.0,0.0,0.0,0.0,0.0,0.0,0.0,0.0,0.0,0.0,0.0,0.0,0.0,0.0,0.0,0.0,0.0,0.0,0.0,0.0,0.0,0.0,0.0,0.0,0.0,0.0,0.0,0.0,0.0,0.0,0.0,0.0,0.0,0.0,0.0,0.0,0.0,0.0,0.0,0.0,0.0,0.0,0.0,0.0,0.0,0.0,0.0,0.0,0.0,0.0,0.0,0.0,0.0,0.0,0.0,0.0,0.0,0.0,0.0,0.0,0.0,0.0,0.0,0.0,0.0,0.0,0.0,0.0,0.0,0.0,0.0,0.0,0.0,0.0,0.0,0.0,0.0,0.0,0.0,0.0,0.0,0.0,0.0,0.0,0.0,0.0,0.0,0.0,0.0,0.0,0.0,0.0,0.0,0.0,0.0,0.0,0.0,0.0,0.0,0.0,0.0,0.0,0.0,0.0,0.0,0.0,0.0,0.0,0.0,0.0,0.0,0.0,0.0,0.0,0.0,0.0,0.0,0.0,0.0,0.0,0.0,0.0,0.0,0.0,0.0,0.0,0.0,0.0,0.0,0.0,0.0,0.0,0.0,0.0,0.0,0.0,0.0,0.0,0.0,0.0,0.0,0.0,0.0,0.0,0.0,0.0,0.0,0.0,0.0,0.0,0.0,0.0,0.0,0.0,0.0,0.0,0.0,0.0,0.0,0.0,0.0,0.0,0.0,0.0,0.0,0.0,0.0,0.0,0.0,0.0,0.0,0.0,0.0,0.0,0.0,0.0,0.0,0.0,0.0,0.0,0.0,0.0,0.0,0.0,0.0,0.0,0.0,0.0,0.0,0.0,0.0,0.0,0.0,0.0,0.0,0.0,0.0,0.0,0.0,0.0,0.0,0.0,0.0,0.0,0.0,0.0,0.0,0.0,0.0,0.0,0.0,0.0,0.0,0.0,0.0,0.0,0.0,0.0,0.0,0.0,0.0,0.0,0.0,0.0,0.0,0.0,0.0,0.0,0.0,0.0,0.0,0.0,0.0,0.0,0.0,0.0,0.0,0.0,0.0,0.0,0.0,0.0,0.0,0.0,0.0,0.0,0.0,0.0,0.0,0.0,0.0,0.0,0.0,0.0,0.0,0.0,0.0,0.0,0.0,0.0,0.0,0.0,0.0,0.0,0.0,0.0,0.0,0.0,0.0,0.0,0.0,0.0,0.0,0.0,0.0,0.0,0.0,0.0,0.0,0.0,0.0,0.0,0.0,0.0,0.0,0.0,0.0,0.0,0.0,0.0,0.0,0.0,0.0,0.0,0.0,0.0,0.0,0.0,0.0,0.0,0.0,0.0,0.0,0.0,0.0,0.0,0.0,0.0,0.0,0.0,0.0,0.0,0.0,0.0,0.0,0.0,0.0,0.0,0.0,0.0,0.0,0.0,0.0,0.0,0.0,0.0,0.0,0.0,0.0,0.0,0.0,0.0,0.0,0.0,0.0,0.0,0.0,0.0,0.0,0.0,0.0,0.0,0.0,0.0,0.0,0.0,0.0,0.0,0.0,0.0,0.0,0.0,0.0,0.0,0.0,0.0,0.0,0.0,0.0,0.0,0.0,0.0,0.0,0.0,0.0,0.0,0.0,0.0,0.0,0.0,0.0,0.0,0.0,0.0,0.0,0.0,0.0,0.0,0.0,0.0,0.0,0.0,0.0,0.0,0.0,0.0,0.0,0.0,0.0,0.0,0.0,0.0,0.0,0.0,0.0,0.0,0.0,0.0,0.0,0.0,0.0,0.0,0.0,0.0,0.0,0.0,0.0,0.0,0.0,0.0,0.0,0.0,0.0,0.0,0.0,0.0,0.0,0.0,0.0,0.0,0.0,0.0,0.0,0.0,0.0,0.0,0.0,0.0,0.0,0.0,0.0,0.0,0.0,0.0,0.0,0.0,0.0,0.0,0.0,0.0,0.0,0.0,0.0,0.0,0.0,0.0,0.0,0.0,0.0,0.0,0.0,0.0,0.0,0.0,0.0,0.0,0.0,0.0,0.0,0.0,0.0,0.0,0.0,0.0,0.0,0.0,0.0,0.0,0.0,0.0,0.0,0.0,0.0,0.0,0.0,0.0,0.0,0.0,0.0,0.0,0.0,0.0,0.0,0.0,0.0,0.0,0.0,0.0,0.0,0.0,0.0,0.0,0.0,0.0,0.0,0.0,0.0,0.0,0.0,0.0,0.0,0.0,0.0,0.0,0.0,0.0,0.0,0.0,0.0,0.0,0.0,0.0,0.0,0.0,0.0,0.0,0.0,0.0,0.0,0.0,0.0,0.0,0.0,0.0,0.0,0.0,0.0,0.0,0.0,0.0,0.0,0.0,0.0,0.0,0.0,0.0,0.0,0.0,0.0,0.0,0.0,0.0,0.0,0.0,0.0,0.0,0.0,0.0,0.0,0.0,0.0,0.0,0.0,0.0,0.0,0.0,0.0,0.0,0.0,0.0,0.0,0.0,0.0,0.0,0.0,0.0,0.0,0.0,0.0,0.0,0.0,0.0,0.0,0.0,0.0,0.0,0.0,0.0,0.0,0.0,0.0,0.0,0.0,0.0,0.0,0.0,0.0,0.0,0.0,0.0,0.0,0.0,0.0,0.0,0.0,0.0,0.0,0.0,0.0,0.0,0.0,0.0,0.0,0.0,0.0,0.0,0.0,0.0,0.0,0.0,0.0,0.0,0.0,0.0,0.0,0.0,0.0,0.0,0.0,0.0,0.0,0.0,0.0,0.0,0.0,0.0,0.0,0.0,0.0,0.0,0.0,0.0,0.0,0.0,0.0,0.0,0.0,0.0,0.0,0.0,0.0,0.0,0.0,0.0,0.0,0.0,0.0,0.0,0.0,0.0,0.0,0.0,0.0,0.0,0.0,0.0,0.0,0.0,0.0,0.0,0.0,0.0,0.0,0.0,0.0,0.0,0.0,0.0,0.0,0.0,0.0,0.0,0.0,0.0,0.0,0.0,0.0,0.0,0.0,0.0,0.0,0.0,0.0,0.0,0.0,0.0,0.0,0.0,0.0,0.0,0.0,0.0,0.0,0.0,0.0,0.0,0.0,0.0,0.0,0.0,0.0,0.0,0.0,0.0,0.0,0.0,0.0,0.0,0.0,0.0,0.0,0.0,0.0,0.0,0.0,0.0,0.0,0.0,0.0,0.0,0.0,0.0,0.0,0.0,0.0,0.0,0.0,0.0,0.0,0.0,0.0,0.0,0.0,0.0,0.0,0.0,0.0,0.0,0.0,0.0,0.0,0.0,0.0,0.0,0.0,0.0,0.0,0.0,0.0,0.0,0.0,0.0,0.0,0.0,0.0,0.0,0.0,0.0,0.0,0.0,0.0,0.0,0.0,0.0,0.0,0.0,0.0,0.0,0.0,0.0,0.0,0.0,0.0,0.0,0.0,0.0,0.0,0.0,0.0,0.0,0.0,0.0,0.0,0.0,0.0,0.0,0.0,0.0,0.0,0.0,0.0,0.0,0.0,0.0,0.0,0.0,0.0,0.0,0.0,0.0,0.0,0.0,0.0,0.0,0.0,0.0,0.0,0.0,0.0,0.0,0.0,0.0,0.0,0.0,0.0,0.0,0.0,0.0,0.0,0.0,0.0,0.0,0.0,0.0,0.0,0.0,0.0,0.0,0.0,0.0,0.0,0.0,0.0,0.0,0.0,0.0,0.0,0.0,0.0,0.0,0.0,0.0,0.0,0.0,0.0,0.0,0.0,0.0,0.0,0.0,0.0,0.0,0.0,0.0,0.0,0.0,0.0,0.0,0.0,0.0,0.0,0.0,0.0,0.0,0.0,0.0,0.0,0.0,0.0,0.0,0.0,0.0,0.0,0.0,0.0,0.0,0.0,0.0,0.0,0.0,0.0,0.0,0.0,0.0,0.0,0.0,0.0,0.0,0.0,0.0,0.0,0.0,0.0,0.0,0.0,0.0,0.0,0.0,0.0,0.0,0.0,0.0,0.0,0.0,0.0,0.0,0.0,0.0,0.0,0.0,0.0,0.0,0.0,0.0,0.0,0.0,0.0,0.0,0.0,0.0,0.0,0.0,0.0,0.0,0.0,0.0,0.0,0.0,-0.7095,0.0,0.0,0.0,0.0,0.0,0.0,0.0,0.0,0.0,0.0,0.0,0.0,0.0,0.0,0.0,0.0,0.0,0.0,0.0,0.0,0.0,0.0,0.0,0.0,0.0,0.0,0.0,0.0,0.0,0.0,0.0,0.0,0.0,0.0,0.0,0.0,0.0,0.0,0.0,0.0,0.0,0.0,0.0,0.0,0.0,0.0,0.0,0.0,0.0,0.0,0.0,0.0,0.0,0.0,0.0,0.0,0.0,0.0,0.0,0.0,0.0,0.0,0.0,0.0,0.0,0.0,0.0,0.0,0.0,0.0,0.0,0.0,0.0,0.0,0.0,0.0,0.0,0.0,0.0,0.0,0.0,0.0,0.0,0.0,0.0,0.0,0.0,0.0,0.0,0.0,0.0,0.0,0.0,0.0,0.0,0.0,0.0,0.0,0.0,0.0,0.0,0.0,0.0,0.0,0.0,0.0,0.0,0.0,0.0,0.0,-0.7713,-0.7716,-0.8061,-0.8061,-0.7713,0.0,0.0,0.0,0.0,0.0,0.0,0.0,0.0,0.0,0.0,0.0,0.0,0.0,0.0,0.0,0.0,0.0,0.0,0.0,0.0,0.0,0.0,0.0,0.0,0.0,0.0,0.0,0.0,0.0,0.0,0.0,0.0,0.0,0.0,0.0,0.0,0.0,0.0,0.0,0.0,0.0,0.0,0.0,0.0,0.0,0.0,0.0,0.0,0.0,0.0,0.0,0.0,0.0,0.0,0.0,0.0,0.0,0.0,0.0,0.0,0.0,0.0,0.0,0.0,0.0,0.0,0.0,0.0,0.0,0.0,0.0,0.0,0.0,0.0,0.0,0.0,0.0,0.0,0.0,0.0,0.0,0.0,0.0,0.0,0.0,0.0,0.0,0.0,0.0,0.0,0.0,0.0,0.0,0.0,0.0,0.0,0.0,0.0,0.0,0.0,0.0,0.0,0.0,0.0,0.0,0.0,0.0,0.0,0.0,0.0,0.0,0.0,-0.9104,-0.9148,-0.8807,0.0,0.0,0.0,0.0,0.0,0.0,0.0,0.0,0.0,0.0,0.0,0.0,0.0,0.0,0.0,0.0,0.0,0.0,0.0,0.0,0.0,0.0,0.0,0.0,0.0,0.0,0.0,0.0,0.0,0.0,0.0,0.0,0.0,0.0,0.0,0.0,0.0,0.0,0.0,0.0,0.0,0.0,0.0,0.0,0.0,0.0,0.0,0.0,0.0,0.0,0.0,0.0,0.0,0.0,0.0,0.0,0.0,0.0,0.0,0.0,0.0,0.0,0.0,0.0,0.0,0.0,0.0,0.0,0.0,0.0,0.0,0.0,0.0,0.0,0.0,0.0,0.0,0.0,0.0,0.0,0.0,0.0,0.0,0.0,0.0,0.0,0.0,0.0,0.0,0.0,0.0,0.0,0.0,0.0,0.0,0.0,0.0,0.0,0.0,0.0,0.0,0.0,0.0,0.0,0.0,0.0,0.0,0.0,0.0,0.0,-0.9318,-0.9749,-0.9792,0.0,-1.0351,0.0,0.0,0.0,0.0,0.0,0.0,0.0,0.0,0.0,0.0,0.0,0.0,0.0,0.0,0.0,0.0,0.0,0.0,0.0,0.0,0.0,0.0,0.0,0.0,0.0,0.0,0.0,0.0,0.0,0.0,0.0,0.0,0.0,0.0,0.0,0.0,0.0,0.0,0.0,0.0,0.0,0.0,0.0,0.0,0.0,0.0,0.0,0.0,0.0,0.0,0.0,0.0,0.0,0.0,0.0,0.0,0.0,0.0,0.0,0.0,0.0,0.0,0.0,0.0,0.0,0.0,0.0,0.0,0.0,0.0,0.0,0.0,0.0,0.0,0.0,0.0,0.0,0.0,0.0,0.0,0.0,0.0,0.0,0.0,0.0,0.0,0.0,0.0,0.0,0.0,0.0,0.0,0.0,0.0,0.0,0.0,0.0,0.0,0.0,0.0,0.0,0.0,0.0,0.0,0.0,0.0,0.0,0.0,0.0,0.0,-0.9937,-1.0111,-1.0414,-1.0842,0.0,0.0,0.0,0.0,0.0,0.0,0.0,0.0,0.0,0.0,0.0,0.0,0.0,0.0,0.0,0.0,0.0,0.0,0.0,0.0,0.0,0.0,0.0,0.0,0.0,0.0,0.0,0.0,0.0,0.0,0.0,0.0,0.0,0.0,0.0,0.0,0.0,0.0,0.0,0.0,0.0,0.0,0.0,0.0,0.0,0.0,0.0,0.0,0.0,0.0,0.0,0.0,0.0,0.0,0.0,0.0,0.0,0.0,0.0,0.0,0.0,0.0,0.0,0.0,0.0,0.0,0.0,0.0,0.0,0.0,0.0,0.0,0.0,0.0,0.0,0.0,0.0,0.0,0.0,0.0,0.0,0.0,0.0,0.0,0.0,0.0,0.0,0.0,0.0,0.0,0.0,0.0,0.0,0.0,0.0,0.0,0.0,0.0,0.0,0.0,0.0,0.0,0.0,0.0,0.0,0.0,0.0,0.0,0.0,0.0,-1.0542,-1.055,-1.0722,-1.123,-1.1784,-1.2251,0.0,0.0,0.0,0.0,0.0,0.0,0.0,0.0,0.0,0.0,0.0,0.0,0.0,0.0,0.0,0.0,0.0,0.0,0.0,0.0,0.0,0.0,0.0,0.0,0.0,0.0,0.0,0.0,0.0,0.0,0.0,0.0,0.0,0.0,0.0,0.0,0.0,0.0,0.0,0.0,0.0,0.0,0.0,0.0,0.0,0.0,0.0,0.0,0.0,0.0,0.0,0.0,0.0,0.0,0.0,0.0,0.0,0.0,0.0,0.0,0.0,0.0,0.0,0.0,0.0,0.0,0.0,0.0,0.0,0.0,0.0,0.0,0.0,0.0,0.0,0.0,0.0,0.0,0.0,0.0,0.0,0.0,0.0,0.0,0.0,0.0,0.0,0.0,0.0,0.0,0.0,0.0,0.0,0.0,0.0,0.0,0.0,0.0,0.0,0.0,0.0,0.0,0.0,0.0,0.0,0.0,0.0,0.0,-1.1241,-1.108,-1.1166,-1.16,-1.2461,-1.2915,0.0,0.0,0.0,0.0,0.0,0.0,0.0,0.0,0.0,0.0,0.0,0.0,0.0,0.0,0.0,0.0,0.0,0.0,0.0,0.0,0.0,0.0,0.0,0.0,0.0,0.0,0.0,0.0,0.0,0.0,0.0,0.0,0.0,0.0,0.0,0.0,0.0,0.0,0.0,0.0,0.0,0.0,0.0,0.0,0.0,0.0,0.0,0.0,0.0,0.0,0.0,0.0,0.0,0.0,0.0,0.0,0.0,0.0,0.0,0.0,0.0,0.0,0.0,0.0,0.0,0.0,0.0,0.0,0.0,0.0,0.0,0.0,0.0,0.0,0.0,0.0,0.0,0.0,0.0,0.0,0.0,0.0,0.0,0.0,0.0,0.0,0.0,0.0,0.0,0.0,0.0,0.0,0.0,0.0,0.0,0.0,0.0,0.0,0.0,0.0,0.0,0.0,0.0,0.0,0.0,0.0,0.0,0.0,0.0,-1.1528,-1.1737,-1.1974,-1.2331,-1.2574,-1.276,0.0,0.0,0.0,0.0,0.0,0.0,0.0,0.0,0.0,0.0,0.0,0.0,0.0,0.0,0.0,0.0,0.0,0.0,0.0,0.0,0.0,0.0,0.0,0.0,0.0,0.0,0.0,0.0,0.0,0.0,0.0,0.0,0.0,0.0,0.0,0.0,0.0,0.0,0.0,0.0,0.0,0.0,0.0,0.0,0.0,0.0,0.0,0.0,0.0,0.0,0.0,0.0,0.0,0.0,0.0,0.0,0.0,0.0,0.0,0.0,0.0,0.0,0.0,0.0,0.0,0.0,0.0,0.0,0.0,0.0,0.0,0.0,0.0,0.0,0.0,0.0,0.0,0.0,0.0,0.0,0.0,0.0,0.0,0.0,0.0,0.0,0.0,0.0,0.0,0.0,0.0,0.0,0.0,0.0,0.0,0.0,0.0,0.0,0.0,0.0,0.0,0.0,0.0,0.0,0.0,0.0,0.0,0.0,0.0,-1.1782,0.0,-1.2361,-1.2433,-1.2513,-1.2609,0.0,0.0,0.0,0.0,0.0,0.0,0.0,0.0,0.0,0.0,0.0,0.0,0.0,0.0,0.0,0.0,0.0,0.0,0.0,0.0,0.0,0.0,0.0,0.0,0.0,0.0,0.0,0.0,0.0,0.0,0.0,0.0,0.0,0.0,0.0,0.0,0.0,0.0,0.0,0.0,0.0,0.0,0.0,0.0,0.0,0.0,0.0,0.0,0.0,0.0,0.0,0.0,0.0,0.0,0.0,0.0,0.0,0.0,0.0,0.0,0.0,0.0,0.0,0.0,0.0,0.0,0.0,0.0,0.0,0.0,0.0,0.0,0.0,0.0,0.0,0.0,0.0,0.0,0.0,0.0,0.0,0.0,0.0,0.0,0.0,0.0,0.0,0.0,0.0,0.0,0.0,0.0,0.0,0.0,0.0,0.0,0.0,0.0,0.0,0.0,0.0,0.0,0.0,0.0,0.0,0.0,0.0,0.0,-1.1938,-1.1944,-1.2227,-1.2339,-1.199,-1.2418,-1.251,0.0,0.0,0.0,0.0,0.0,0.0,0.0,0.0,0.0,0.0,0.0,0.0,0.0,0.0,0.0,0.0,0.0,0.0,0.0,0.0,0.0,0.0,0.0,0.0,0.0,0.0,0.0,0.0,0.0,0.0,0.0,0.0,0.0,0.0,0.0,0.0,0.0,0.0,0.0,0.0,0.0,0.0,0.0,0.0,0.0,0.0,0.0,0.0,0.0,0.0,0.0,0.0,0.0,0.0,0.0,0.0,0.0,0.0,0.0,0.0,0.0,0.0,0.0,0.0,0.0,0.0,0.0,0.0,0.0,0.0,0.0,0.0,0.0,0.0,0.0,0.0,0.0,0.0,0.0,0.0,0.0,0.0,0.0,0.0,0.0,0.0,0.0,0.0,0.0,0.0,0.0,0.0,0.0,0.0,0.0,0.0,0.0,0.0,0.0,0.0,0.0,0.0,0.0,0.0,0.0,0.0,0.0,0.0,0.0,-1.2688,-1.3022,-1.3289,-1.3409,-1.2969,-1.2791,0.0,0.0,0.0,0.0,0.0,0.0,0.0,0.0,0.0,0.0,0.0,0.0,0.0,0.0,0.0,0.0,0.0,0.0,0.0,0.0,0.0,0.0,0.0,0.0,0.0,0.0,0.0,0.0,0.0,0.0,0.0,0.0,0.0,0.0,0.0,0.0,0.0,0.0,0.0,0.0,0.0,0.0,0.0,0.0,0.0,0.0,0.0,0.0,0.0,0.0,0.0,0.0,0.0,0.0,0.0,0.0,0.0,0.0,0.0,0.0,0.0,0.0,0.0,0.0,0.0,0.0,0.0,0.0,0.0,0.0,0.0,0.0,0.0,0.0,0.0,0.0,0.0,0.0,0.0,0.0,0.0,0.0,0.0,0.0,0.0,0.0,0.0,0.0,0.0,0.0,0.0,0.0,0.0,0.0,0.0,0.0,0.0,0.0,0.0,0.0,0.0,0.0,0.0,0.0,0.0,0.0,0.0,0.0,0.0,-1.3422,-1.3642,-1.3841,-1.3915,-1.3273,-1.2998,-1.3039,0.0,0.0,0.0,0.0,0.0,0.0,0.0,0.0,0.0,0.0,0.0,0.0,0.0,0.0,0.0,0.0,0.0,0.0,0.0,0.0,0.0,0.0,0.0,0.0,0.0,0.0,0.0,0.0,0.0,0.0,0.0,0.0,0.0,0.0,0.0,0.0,0.0,0.0,0.0,0.0,0.0,0.0,0.0,0.0,0.0,0.0,0.0,0.0,0.0,0.0,0.0,0.0,0.0,0.0,0.0,0.0,0.0,0.0,0.0,0.0,0.0,0.0,0.0,0.0,0.0,0.0,0.0,0.0,0.0,0.0,0.0,0.0,0.0,0.0,0.0,0.0,0.0,0.0,0.0,0.0,0.0,0.0,0.0,0.0,0.0,0.0,0.0,0.0,0.0,0.0,0.0,0.0,0.0,0.0,0.0,0.0,0.0,0.0,0.0,0.0,0.0,0.0,0.0,0.0,0.0,0.0,0.0,0.0,-1.4082,-1.4088,-1.3948,-1.3646,-1.3327,-1.3112,0.0,0.0,0.0,0.0,0.0,0.0,0.0,0.0,0.0,0.0,0.0,0.0,0.0,0.0,0.0,0.0,0.0,0.0,0.0,0.0,0.0,0.0,0.0,0.0,0.0,0.0,0.0,0.0,0.0,0.0,0.0,0.0,0.0,0.0,0.0,0.0,0.0,0.0,0.0,0.0,0.0,0.0,0.0,0.0,0.0,0.0,0.0,0.0,0.0,0.0,0.0,0.0,0.0,0.0,0.0,0.0,0.0,0.0,0.0,0.0,0.0,0.0,0.0,0.0,0.0,0.0,0.0,0.0,0.0,0.0,0.0,0.0,0.0,0.0,0.0,0.0,0.0,0.0,0.0,0.0,0.0,0.0,0.0,0.0,0.0,0.0,0.0,0.0,0.0,0.0,0.0,0.0,0.0,0.0,0.0,0.0,0.0,0.0,0.0,0.0,0.0,0.0,0.0,0.0,0.0,0.0,0.0,0.0,0.0,-1.4062,-1.4088,-1.4048,-1.3961,-1.348,-1.3173,0.0,0.0,0.0,0.0,0.0,0.0,0.0,0.0,0.0,0.0,0.0,0.0,0.0,0.0,0.0,0.0,0.0,0.0,0.0,0.0,0.0,0.0,0.0,0.0,0.0,0.0,0.0,0.0,0.0,0.0,0.0,0.0,0.0,0.0,0.0,0.0,0.0,0.0,0.0,0.0,0.0,0.0,0.0,0.0,0.0,0.0,0.0,0.0,0.0,0.0,0.0,0.0,0.0,0.0,0.0,0.0,0.0,0.0,0.0,0.0,0.0,0.0,0.0,0.0,0.0,0.0,0.0,0.0,0.0,0.0,0.0,0.0,0.0,0.0,0.0,0.0,0.0,0.0,0.0,0.0,0.0,0.0,0.0,0.0,0.0,0.0,0.0,0.0,0.0,0.0,0.0,0.0,0.0,0.0,0.0,0.0,0.0,0.0,0.0,0.0,0.0,0.0,0.0,0.0,0.0,0.0,0.0,0.0,-1.3633,-1.4255,-1.4148,-1.4148,-1.4269,-1.3701,-1.3293,0.0,0.0,0.0,0.0,0.0,0.0,0.0,0.0,0.0,0.0,0.0,0.0,0.0,0.0,0.0,0.0,0.0,0.0,0.0,0.0,0.0,0.0,0.0,0.0,0.0,0.0,0.0,0.0,0.0,0.0,0.0,0.0,0.0,0.0,0.0,0.0,0.0,0.0,0.0,0.0,0.0,0.0,0.0,0.0,0.0,0.0,0.0,0.0,0.0,0.0,0.0,0.0,0.0,0.0,0.0,0.0,0.0,0.0,0.0,0.0,0.0,0.0,0.0,0.0,0.0,0.0,0.0,0.0,0.0,0.0,0.0,0.0,0.0,0.0,0.0,0.0,0.0,0.0,0.0,0.0,0.0,0.0,0.0,0.0,0.0,0.0,0.0,0.0,0.0,0.0,0.0,0.0,0.0,0.0,0.0,0.0,0.0,0.0,0.0,0.0,0.0,0.0,0.0,0.0,0.0,0.0,0.0,0.0,-1.3866,-1.4462,-1.4249,-1.4242,-1.4449,-1.3893,-1.3467,0.0,0.0,0.0,0.0,0.0,0.0,0.0,0.0,0.0,0.0,0.0,0.0,0.0,0.0,0.0,0.0,0.0,0.0,0.0,0.0,0.0,0.0,0.0,0.0,0.0,0.0,0.0,0.0,0.0,0.0,0.0,0.0,0.0,0.0,0.0,0.0,0.0,0.0,0.0,0.0,0.0,0.0,0.0,0.0,0.0,0.0,0.0,0.0,0.0,0.0,0.0,0.0,0.0,0.0,0.0,0.0,0.0,0.0,0.0,0.0,0.0,0.0,0.0,0.0,0.0,0.0,0.0,0.0,0.0,0.0,0.0,0.0,0.0,0.0,0.0,0.0,0.0,0.0,0.0,0.0,0.0,0.0,0.0,0.0,0.0,0.0,0.0,0.0,0.0,0.0,0.0,0.0,0.0,0.0,0.0,0.0,0.0,0.0,0.0,0.0,0.0,0.0,0.0,0.0,0.0,0.0,0.0,0.0,-1.3773,-1.4175,-1.4335,-1.4349,-1.4182,-1.3793,-1.3467,0.0,0.0,0.0,0.0,0.0,0.0,0.0,0.0,0.0,0.0,0.0,0.0,0.0,0.0,0.0,0.0,0.0,0.0,0.0,0.0,0.0,0.0,0.0,0.0,0.0,0.0,0.0,0.0,0.0,0.0,0.0,0.0,0.0,0.0,0.0,0.0,0.0,0.0,0.0,0.0,0.0,0.0,0.0,0.0,0.0,0.0,0.0,0.0,-1.8008,0.0,0.0,0.0,0.0,0.0,0.0,0.0,0.0,0.0,0.0,0.0,0.0,0.0,0.0,0.0,0.0,0.0,0.0,0.0,0.0,0.0,0.0,0.0,0.0,0.0,0.0,0.0,0.0,0.0,0.0,0.0,0.0,0.0,0.0,0.0,0.0,0.0,0.0,0.0,0.0,0.0,0.0,0.0,0.0,0.0,0.0,0.0,0.0,0.0,0.0,0.0,0.0,0.0,0.0,0.0,0.0,0.0,0.0,0.0,-1.3714,-1.4269,-1.4309,-1.4309,-1.4275,-1.3826,-1.3467,0.0,0.0,0.0,0.0,0.0,0.0,0.0,0.0,0.0,0.0,0.0,0.0,0.0,0.0,0.0,0.0,0.0,0.0,0.0,0.0,0.0,0.0,0.0,0.0,0.0,0.0,0.0,0.0,0.0,0.0,0.0,0.0,0.0,0.0,0.0,0.0,0.0,0.0,0.0,0.0,0.0,0.0,0.0,0.0,0.0,0.0,0.0,0.0,0.0,0.0,0.0,0.0,0.0,0.0,0.0,0.0,0.0,0.0,0.0,0.0,0.0,0.0,0.0,0.0,0.0,0.0,0.0,0.0,0.0,0.0,0.0,0.0,0.0,0.0,0.0,0.0,0.0,0.0,0.0,0.0,0.0,0.0,0.0,0.0,0.0,0.0,0.0,0.0,0.0,0.0,0.0,0.0,0.0,0.0,0.0,0.0,0.0,0.0,0.0,0.0,0.0,0.0,0.0,0.0,0.0,0.0,0.0,-1.3253,-1.3654,-1.4409,-1.4255,-1.4249,-1.4442,-1.3886,-1.3467,-1.322,0.0,0.0,0.0,0.0,0.0,0.0,0.0,0.0,0.0,0.0,0.0,0.0,0.0,0.0,0.0,0.0,0.0,0.0,0.0,0.0,0.0,0.0,0.0,0.0,0.0,0.0,0.0,0.0,0.0,0.0,0.0,0.0,0.0,0.0,0.0,0.0,0.0,0.0,-1.6833,-1.7666,0.0,0.0,0.0,0.0,0.0,0.0,0.0,0.0,-1.8164,0.0,0.0,0.0,0.0,0.0,0.0,0.0,0.0,0.0,0.0,0.0,0.0,0.0,0.0,0.0,0.0,0.0,0.0,0.0,0.0,0.0,0.0,0.0,0.0,0.0,0.0,0.0,0.0,0.0,0.0,0.0,0.0,0.0,0.0,0.0,0.0,0.0,0.0,0.0,0.0,0.0,0.0,0.0,0.0,0.0,0.0,0.0,0.0,0.0,0.0,0.0,0.0,0.0,0.0,0.0,0.0,-1.3206,-1.3407,-1.3761,-1.4148,-1.4349,-1.4355,-1.4155,-1.378,-1.3467,-1.322,0.0,0.0,0.0,0.0,0.0,0.0,0.0,0.0,0.0,0.0,0.0,0.0,0.0,0.0,0.0,0.0,0.0,0.0,0.0,0.0,0.0,0.0,0.0,0.0,0.0,0.0,0.0,0.0,0.0,0.0,0.0,0.0,0.0,0.0,0.0,0.0,0.0,0.0,0.0,-1.8545,-1.8965,0.0,0.0,0.0,0.0,0.0,0.0,0.0,0.0,-1.9082,0.0,0.0,0.0,0.0,0.0,0.0,0.0,0.0,0.0,0.0,0.0,0.0,0.0,0.0,0.0,0.0,0.0,0.0,0.0,0.0,0.0,0.0,0.0,0.0,0.0,0.0,0.0,0.0,0.0,0.0,0.0,0.0,0.0,0.0,0.0,0.0,0.0,0.0,0.0,0.0,0.0,0.0,0.0,0.0,0.0,0.0,0.0,0.0,0.0,0.0,0.0,0.0,0.0,0.0,0.0,-1.32,-1.346,-1.3788,-1.4075,-1.4222,-1.4229,-1.4082,-1.3613,-1.3353,0.0,0.0,0.0,0.0,0.0,0.0,0.0,0.0,0.0,0.0,0.0,0.0,0.0,0.0,0.0,0.0,0.0,0.0,0.0,0.0,0.0,0.0,0.0,0.0,0.0,0.0,0.0,0.0,0.0,0.0,0.0,0.0,0.0,0.0,0.0,0.0,0.0,0.0,0.0,0.0,-1.8656,-1.8955,-1.8965,0.0,0.0,0.0,0.0,0.0,0.0,-1.9004,-1.9277,0.0,0.0,0.0,0.0,0.0,0.0,0.0,0.0,0.0,0.0,0.0,0.0,0.0,0.0,0.0,0.0,0.0,0.0,0.0,0.0,0.0,0.0,0.0,0.0,0.0,0.0,0.0,0.0,0.0,0.0,0.0,0.0,0.0,0.0,0.0,0.0,0.0,0.0,0.0,0.0,0.0,0.0,0.0,0.0,0.0,0.0,0.0,0.0,0.0,0.0,0.0,0.0,0.0,0.0,0.0,-1.3206,-1.3453,-1.3746,-1.4068,-1.4088,-1.4062,-1.3988,-1.3427,-1.312,0.0,0.0,0.0,0.0,0.0,0.0,0.0,0.0,0.0,0.0,0.0,0.0,0.0,0.0,0.0,0.0,0.0,0.0,0.0,0.0,0.0,0.0,0.0,0.0,0.0,0.0,0.0,0.0,0.0,0.0,0.0,0.0,0.0,0.0,0.0,0.0,0.0,0.0,0.0,0.0,0.0,-1.8994,-1.9248,-1.8984,0.0,0.0,0.0,0.0,-1.8958,-1.9394,0.0,0.0,0.0,0.0,0.0,0.0,0.0,0.0,0.0,0.0,0.0,0.0,0.0,0.0,0.0,0.0,0.0,0.0,0.0,0.0,0.0,0.0,0.0,0.0,0.0,0.0,0.0,0.0,0.0,0.0,0.0,0.0,0.0,0.0,0.0,0.0,0.0,0.0,0.0,0.0,0.0,0.0,0.0,0.0,0.0,0.0,0.0,0.0,0.0,0.0,0.0,0.0,0.0,0.0,0.0,0.0,-1.3206,-1.346,-1.3746,-1.4068,-1.4088,-1.3961,-1.3653,-1.3113,-1.2844,0.0,0.0,0.0,0.0,0.0,0.0,0.0,0.0,0.0,0.0,0.0,0.0,0.0,0.0,0.0,0.0,0.0,0.0,0.0,0.0,0.0,0.0,0.0,0.0,0.0,0.0,0.0,0.0,0.0,0.0,0.0,0.0,0.0,0.0,0.0,0.0,0.0,0.0,0.0,0.0,0.0,-1.9648,-1.9326,-1.9248,-1.9189,0.0,0.0,-1.9482,-2.0253,-2.0723,0.0,0.0,0.0,0.0,0.0,0.0,0.0,0.0,0.0,0.0,0.0,0.0,0.0,0.0,0.0,0.0,0.0,0.0,0.0,0.0,0.0,0.0,0.0,0.0,0.0,0.0,0.0,0.0,0.0,0.0,0.0,0.0,0.0,0.0,0.0,0.0,0.0,0.0,0.0,0.0,0.0,0.0,0.0,0.0,0.0,0.0,0.0,0.0,0.0,0.0,0.0,0.0,0.0,0.0,0.0,-1.2938,-1.3206,-1.3453,-1.3788,-1.4075,-1.4088,-1.3868,-1.3367,-1.3012,-1.2703,0.0,0.0,0.0,0.0,0.0,0.0,0.0,0.0,0.0,0.0,0.0,0.0,0.0,0.0,0.0,0.0,0.0,0.0,0.0,0.0,0.0,0.0,0.0,0.0,0.0,0.0,0.0,0.0,0.0,0.0,0.0,0.0,0.0,0.0,0.0,0.0,0.0,0.0,0.0,0.0,0.0,0.0,-1.9629,-1.9639,0.0,0.0,0.0,-2.0184,-2.0546,0.0,0.0,0.0,0.0,0.0,0.0,0.0,0.0,0.0,0.0,0.0,0.0,0.0,0.0,0.0,0.0,0.0,0.0,0.0,0.0,0.0,0.0,0.0,0.0,0.0,0.0,0.0,0.0,0.0,0.0,0.0,0.0,0.0,0.0,0.0,0.0,0.0,0.0,0.0,0.0,0.0,0.0,0.0,0.0,0.0,0.0,0.0,0.0,0.0,0.0,0.0,0.0,0.0,0.0,0.0,0.0,0.0,-1.3206,-1.3453,-1.3746,-1.4075,-1.4088,-1.3768,-1.312,-1.2904,0.0,0.0,0.0,0.0,0.0,0.0,0.0,0.0,0.0,0.0,0.0,0.0,0.0,0.0,0.0,0.0,0.0,0.0,0.0,0.0,0.0,0.0,0.0,0.0,0.0,0.0,0.0,-1.6134,0.0,0.0,0.0,0.0,0.0,0.0,0.0,0.0,0.0,0.0,0.0,0.0,0.0,0.0,-1.96,-2.0019,-2.0176,-2.0166,0.0,0.0,-2.0801,-2.1065,-2.124,-2.1477,0.0,0.0,0.0,0.0,0.0,0.0,0.0,0.0,0.0,0.0,0.0,0.0,0.0,0.0,0.0,0.0,0.0,0.0,0.0,0.0,0.0,0.0,0.0,0.0,0.0,0.0,0.0,0.0,0.0,0.0,0.0,0.0,0.0,0.0,0.0,0.0,0.0,0.0,0.0,0.0,0.0,0.0,0.0,0.0,0.0,0.0,0.0,0.0,0.0,0.0,0.0,0.0,0.0,0.0,-1.2938,-1.3206,-1.3453,-1.3788,-1.4075,-1.4088,-1.3708,-1.2851,-1.2797,-1.2509,0.0,0.0,0.0,0.0,0.0,0.0,0.0,0.0,0.0,0.0,0.0,0.0,0.0,0.0,0.0,0.0,0.0,0.0,0.0,0.0,0.0,0.0,0.0,0.0,0.0,0.0,0.0,0.0,0.0,0.0,0.0,0.0,0.0,0.0,0.0,0.0,0.0,0.0,0.0,0.0,0.0,-2.0029,-2.0498,-2.0879,-2.1239,0.0,-2.1416,-2.1434,-2.2256,-2.206,-2.2135,-2.3009,0.0,0.0,0.0,0.0,0.0,0.0,0.0,0.0,0.0,0.0,0.0,0.0,0.0,0.0,0.0,0.0,0.0,0.0,0.0,0.0,0.0,0.0,0.0,0.0,0.0,0.0,0.0,0.0,0.0,0.0,0.0,0.0,0.0,0.0,0.0,0.0,0.0,0.0,0.0,0.0,0.0,0.0,0.0,0.0,0.0,0.0,0.0,0.0,0.0,0.0,0.0,0.0,0.0,-1.2719,-1.3206,-1.332,-1.3607,-1.4055,-1.3908,-1.3561,-1.3046,-1.271,-1.2321,0.0,0.0,0.0,0.0,0.0,0.0,0.0,0.0,0.0,0.0,0.0,0.0,0.0,0.0,0.0,0.0,0.0,0.0,0.0,0.0,0.0,0.0,0.0,0.0,0.0,0.0,0.0,0.0,-1.6697,-1.6804,-1.7109,0.0,0.0,0.0,0.0,0.0,0.0,0.0,0.0,0.0,0.0,-2.0128,-2.0879,-2.1123,0.0,0.0,-2.1738,-2.1836,-2.2422,-2.1934,-2.1806,-2.2848,-2.2579,0.0,0.0,0.0,0.0,0.0,0.0,0.0,0.0,0.0,0.0,0.0,0.0,0.0,0.0,0.0,0.0,0.0,0.0,0.0,0.0,0.0,0.0,0.0,0.0,0.0,0.0,0.0,0.0,0.0,0.0,0.0,0.0,0.0,0.0,0.0,0.0,0.0,0.0,0.0,0.0,0.0,0.0,0.0,0.0,0.0,0.0,0.0,0.0,0.0,0.0,0.0,0.0,-1.2692,-1.32,-1.3293,-1.3587,-1.4117,-1.376,-1.342,-1.3073,-1.2652,-1.2368,0.0,0.0,0.0,0.0,0.0,0.0,0.0,0.0,0.0,0.0,0.0,0.0,0.0,0.0,0.0,0.0,0.0,0.0,0.0,0.0,0.0,0.0,0.0,0.0,0.0,0.0,0.0,0.0,-1.7077,-1.7236,-1.7539,0.0,0.0,0.0,0.0,0.0,0.0,0.0,0.0,0.0,0.0,-2.0381,-2.1083,-2.1298,-2.1492,-2.1846,-2.1936,-2.1982,-2.2285,-2.1832,-2.184,-2.2884,0.0,0.0,0.0,0.0,0.0,0.0,0.0,0.0,0.0,0.0,0.0,0.0,0.0,0.0,0.0,0.0,0.0,0.0,0.0,0.0,0.0,0.0,0.0,0.0,0.0,0.0,0.0,-1.4088,0.0,0.0,-1.4088,0.0,0.0,0.0,0.0,0.0,0.0,0.0,0.0,0.0,0.0,0.0,0.0,0.0,0.0,0.0,0.0,0.0,0.0,0.0,0.0,0.0,0.0,-1.2924,-1.3213,-1.344,-1.3774,-1.411,-1.376,-1.336,-1.2882,-1.2822,-1.277,-1.2699,0.0,0.0,0.0,0.0,0.0,0.0,0.0,0.0,0.0,0.0,0.0,0.0,0.0,0.0,0.0,0.0,0.0,0.0,0.0,0.0,0.0,0.0,0.0,0.0,0.0,0.0,-1.7978,-1.7988,-1.7978,0.0,0.0,0.0,0.0,0.0,0.0,0.0,0.0,0.0,0.0,-2.0273,-2.0713,-2.1132,-2.1592,-2.1836,-2.1885,-2.1926,-2.1885,-2.1914,-2.199,-2.242,0.0,0.0,0.0,0.0,0.0,0.0,0.0,0.0,0.0,0.0,0.0,0.0,0.0,0.0,0.0,0.0,0.0,0.0,0.0,0.0,0.0,0.0,0.0,0.0,0.0,0.0,0.0,-1.4088,-1.4088,0.0,0.0,0.0,0.0,0.0,0.0,0.0,0.0,0.0,0.0,0.0,-1.4088,-1.4088,0.0,0.0,0.0,0.0,0.0,0.0,0.0,0.0,0.0,0.0,0.0,0.0,-1.2938,-1.3206,-1.346,-1.3987,-1.4734,-1.421,-1.3931,-1.3989,-1.3565,-1.3248,-1.3071,0.0,0.0,0.0,0.0,0.0,0.0,0.0,0.0,0.0,0.0,0.0,0.0,0.0,0.0,0.0,0.0,0.0,0.0,0.0,0.0,0.0,0.0,0.0,0.0,0.0,-1.8393,0.0,0.0,0.0,0.0,0.0,0.0,0.0,0.0,0.0,0.0,0.0,-2.0224,-2.0332,-2.0507,-2.0732,-2.1132,-2.1357,-2.1553,0.0,0.0,0.0,0.0,0.0,0.0,0.0,0.0,0.0,0.0,0.0,0.0,0.0,0.0,-2.6094,-2.6418,-2.6034,-2.5586,-2.5586,0.0,0.0,0.0,0.0,0.0,0.0,0.0,0.0,0.0,0.0,0.0,0.0,0.0,0.0,-1.4088,0.0,-1.4088,0.0,0.0,0.0,0.0,0.0,0.0,0.0,0.0,-1.4088,-1.4088,-1.4088,-1.4088,-1.4088,0.0,-1.4088,-1.4088,0.0,0.0,0.0,0.0,0.0,0.0,0.0,0.0,-1.3287,-1.336,-1.3606,-1.4096,-1.4685,-1.421,-1.4106,-1.4417,-1.419,-1.4051,-1.4004,-1.4299,-1.4558,0.0,0.0,0.0,0.0,0.0,0.0,0.0,0.0,0.0,0.0,0.0,0.0,0.0,0.0,0.0,0.0,0.0,0.0,0.0,0.0,0.0,0.0,0.0,-1.8822,0.0,0.0,0.0,0.0,0.0,0.0,0.0,0.0,0.0,-2.0146,-2.0419,-2.0615,-2.0615,-2.0615,-2.0713,-2.0967,0.0,0.0,0.0,0.0,0.0,0.0,0.0,-2.1121,-2.1773,-2.2039,-2.2462,-2.339,-2.4504,-2.5418,-2.5908,0.0,0.0,-2.6452,-2.6197,-2.59,-2.59,-2.5624,-2.5498,-2.5824,-2.5636,-2.5335,0.0,0.0,0.0,0.0,0.0,0.0,0.0,0.0,-1.4115,-1.4115,0.0,-1.4102,0.0,0.0,0.0,0.0,0.0,-1.4088,0.0,0.0,-1.4088,-1.4088,-1.4088,-1.4088,-1.4088,-1.4088,-1.4088,-1.4088,-1.4088,-1.4088,0.0,0.0,0.0,0.0,0.0,0.0,-1.3905,-1.3641,-1.3928,-1.4088,-1.4159,-1.3836,-1.3857,-1.4184,-1.4646,-1.5041,-1.5425,-1.5126,-1.5566,-1.6784,-1.6054,0.0,0.0,0.0,0.0,0.0,0.0,0.0,0.0,0.0,0.0,0.0,0.0,0.0,0.0,0.0,0.0,0.0,0.0,0.0,0.0,-1.9316,0.0,0.0,0.0,0.0,0.0,0.0,0.0,0.0,0.0,0.0,-2.0586,-2.0605,-2.0615,-2.0615,0.0,0.0,0.0,0.0,-2.0605,-2.0664,-2.0644,-2.0693,-2.0693,-2.1156,-2.155,-2.155,0.0,0.0,-2.2898,-2.3588,-2.4384,-2.4933,-2.543,-2.5793,-2.6396,-2.6474,-2.6461,-2.6461,-2.6436,-2.6474,-2.6474,-2.6399,-2.6248,-1.4663,0.0,0.0,0.0,0.0,-1.4309,-1.4275,-1.4115,-1.4579,-1.4476,-1.4102,-1.4309,0.0,0.0,0.0,0.0,0.0,0.0,-1.4088,-1.4088,-1.4088,-1.4088,-1.4088,-1.4088,-1.4088,-1.4088,-1.4088,-1.4088,-1.4088,-1.4088,-1.4088,-1.4075,0.0,0.0,0.0,0.0,-1.3716,-1.3613,-1.3935,-1.4341,-1.479,-1.489,-1.5083,-1.5374,-1.49,-1.4748,-1.5088,-1.5709,-1.6212,-1.662,-1.7094,0.0,0.0,0.0,0.0,0.0,0.0,0.0,0.0,0.0,0.0,0.0,0.0,0.0,0.0,0.0,0.0,0.0,0.0,0.0,-1.9707,-1.9736,-1.9736,0.0,0.0,0.0,0.0,0.0,0.0,0.0,0.0,0.0,-2.0615,-2.0615,-2.0615,0.0,0.0,-2.0615,-2.0615,-2.0992,-2.1233,-2.1233,-2.1606,0.0,-2.1863,-2.2025,-2.2138,-2.2149,-2.2665,-2.3176,-2.3548,-2.4154,-2.4838,-2.5512,-2.5723,-2.598,-2.6396,-2.6487,-2.6487,-2.6487,-2.6487,-2.6487,-2.6487,-2.6487,-2.6323,-1.5364,-1.4763,-1.4536,-1.4436,-1.4456,-1.4623,-1.4596,-1.4499,-1.4854,-1.4807,-1.4479,-1.4496,-1.4429,-1.4255,-1.4135,0.0,0.0,0.0,-1.4088,-1.4088,-1.4088,-1.4088,-1.4088,-1.4088,-1.4088,-1.4088,-1.4088,-1.4088,-1.4088,-1.4088,-1.4088,-1.4117,0.0,0.0,-1.4179,-1.4308,-1.4423,-1.4584,-1.4767,-1.5117,-1.5484,-1.5784,-1.5882,-1.5873,-1.5482,-1.5391,-1.5696,-1.6036,-1.6529,-1.7085,-1.7491,-1.7674,0.0,0.0,0.0,0.0,0.0,0.0,0.0,0.0,0.0,0.0,0.0,-1.8789,-1.8545,0.0,0.0,0.0,-1.9541,-1.994,-2.0146,-2.0176,0.0,0.0,0.0,0.0,0.0,0.0,0.0,-2.0205,-2.041,-2.0615,-2.0615,-2.0615,-2.0683,-2.0915,-2.076,-2.0683,-2.0925,0.0,-2.1233,-2.1464,-2.1807,-2.2149,-2.2365,-2.2392,-2.2392,-2.2392,-2.2692,-2.299,-2.3276,-2.3875,-2.4539,-2.517,-2.5558,-2.5933,-2.643,-2.6487,-2.6487,-2.6487,-2.6487,-2.6487,-2.6487,-2.6487,-2.6323,-1.6166,-1.5852,-1.5324,-1.5109,-1.5042,-1.5068,-1.5055,-1.5015,-1.5055,-1.5055,-1.4988,-1.4703,-1.4563,-1.4496,-1.4215,0.0,-1.4088,-1.4088,-1.4108,-1.4122,-1.4128,-1.4128,-1.4155,-1.4135,-1.4122,-1.4128,-1.4102,-1.4088,-1.4088,-1.4088,-1.4088,-1.4124,-1.4337,-1.4666,-1.5019,-1.5279,-1.5549,-1.5925,-1.5933,-1.5974,-1.6008,-1.6268,-1.6251,-1.5952,-1.6287,-1.6559,-1.6855,-1.6365,-1.6641,-1.7906,-1.7489,-1.766,-1.8618,0.0,0.0,0.0,0.0,0.0,0.0,0.0,0.0,0.0,0.0,0.0,0.0,0.0,0.0,0.0,-2.0351,0.0,-2.0615,-2.0615,0.0,0.0,0.0,-2.0615,-2.0615,-2.0605,-2.0615,-2.0615,0.0,0.0,-2.0615,-2.0615,-2.0848,-2.1425,-2.1031,-2.0838,-2.1349,-2.1069,-2.0905,-2.1474,-2.1578,-2.1845,-2.244,-2.259,-2.2665,-2.2665,-2.2553,-2.2665,-2.2692,-2.3202,-2.3852,-2.4456,-2.5075,-2.5781,-2.6396,-2.6487,-2.6487,-2.6487,-2.6487,-2.6487,-2.6399,-2.6436,-2.6323,-1.6767,-1.6486,-1.6353,-1.5905,-1.5317,-1.5531,-1.5371,-1.5055,-1.5438,-1.5378,-1.5022,-1.5117,-1.4937,-1.4502,-1.4215,-1.4088,-1.4088,-1.4088,-1.4208,-1.4409,-1.4416,-1.4536,-1.4787,-1.4522,-1.4416,-1.4402,-1.4188,-1.4088,-1.4088,-1.4088,-1.4088,-1.4082,-1.4183,-1.4225,-1.4334,-1.4392,-1.4469,-1.458,-1.458,-1.4831,-1.5318,-1.5622,-1.5936,-1.6362,-1.6636,-1.6824,-1.6927,-1.703,-1.7415,-1.8026,-1.8245,-1.8426,-1.8704,-1.9101,0.0,0.0,0.0,0.0,0.0,0.0,0.0,0.0,0.0,-1.9629,-1.9316,0.0,-2.0264,0.0,-2.0312,-2.0615,-2.0615,-2.0615,0.0,0.0,-2.0615,-2.0615,-2.0615,-2.0615,-2.0615,-2.0615,-2.0615,-2.0615,-2.0615,-2.0615,-2.0809,-2.1387,-2.1387,-2.1195,-2.0886,-2.153,-2.1835,-2.1655,-2.2262,-2.2927,-2.3075,-2.3482,-2.3751,-2.3787,-2.374,-2.3787,-2.3751,-2.3922,-2.4286,-2.4909,-2.5206,-2.5641,-2.6349,-2.6487,-2.6487,-2.6487,-2.6487,-2.6361,-2.5912,-2.6185,-2.6323,-1.73,-1.7094,-1.7094,-1.674,-1.6172,-1.6072,-1.5765,-1.5384,-1.5644,-1.5651,-1.5351,-1.5384,-1.5144,-1.4716,-1.4549,-1.4476,-1.4526,-1.4482,-1.4563,-1.4716,-1.4716,-1.4803,-1.5001,-1.479,-1.4716,-1.471,-1.4556,-1.4476,-1.4519,-1.4519,-1.4409,-1.4282,-1.4275,-1.4215,-1.4137,-1.4377,-1.4831,-1.5409,-1.5699,-1.6023,-1.6394,-1.6532,-1.6717,-1.6926,-1.7076,-1.7167,-1.7167,-1.7394,-1.7787,-1.8315,-1.8576,-1.8872,-1.9223,-1.9493,-1.9553,0.0,0.0,0.0,0.0,0.0,0.0,0.0,0.0,0.0,0.0,0.0,-2.0507,-2.0225,-2.0468,-2.0615,-2.0615,-2.0615,-2.0615,-2.0615,-2.0615,-2.0615,-2.0615,-2.0615,-2.0615,-2.0615,-2.0615,-2.0615,-2.0615,-2.0615,-2.0722,-2.1069,-2.1578,-2.1693,-2.1185,-2.1617,-2.1959,-2.1959,-2.2703,-2.3409,-2.3629,-2.397,-2.4189,-2.4189,-2.4189,-2.4189,-2.4189,-2.4345,-2.4598,-2.4969,-2.5218,-2.5418,-2.5886,-2.5955,-2.5955,-2.599,-2.6107,-2.6068,-2.5691,-2.6084,-2.6323,-1.7589,-1.7589,-1.7589,-1.7474,-1.7166,-1.665,-1.6192,-1.5838,-1.5892,-1.5865,-1.5764,-1.5524,-1.5257,-1.5062,-1.5022,-1.5015,-1.5015,-1.5015,-1.5028,-1.5062,-1.5068,-1.5082,-1.5122,-1.5082,-1.5062,-1.5062,-1.5028,-1.5015,-1.5015,-1.5015,-1.481,-1.4529,-1.4516,-1.4376,-1.4137,-1.4671,-1.5624,-1.6968,-1.7505,-1.7749,-1.774,-1.7829,-1.7757,-1.7482,-1.7535,-1.7583,-1.7661,-1.7661,-1.8022,-1.8794,-1.8812,-1.917,-1.9932,-1.9601,-1.9765,0.0,-2.0205,0.0,0.0,0.0,0.0,0.0,0.0,0.0,0.0,-2.0615,-2.0615,-2.0615,-2.0615,-2.0615,-2.0615,-2.0615,-2.0615,-2.0615,-2.0615,-2.0615,-2.0615,-2.0615,-2.0615,-2.0615,-2.0615,-2.0615,-2.0615,-2.0644,-2.0722,-2.0876,-2.1606,-2.1949,-2.1627,-2.1578,-2.1835,-2.2252,-2.2703,-2.315,-2.3934,-2.4116,-2.408,-2.4152,-2.4189,-2.4189,-2.4189,-2.4454,-2.4718,-2.4825,-2.5087,-2.5312,-2.5347,-2.5453,-2.5488,-2.5594,-2.5828,-2.5933,-2.5644,-2.6063,-2.6273,-1.7589,-1.7589,-1.7589,-1.7415,-1.7192,-1.7085,-1.673,-1.6186,-1.6234,-1.6052,-1.5764,-1.5524,-1.5364,-1.5297,-1.5115,-1.5015,-1.5015,-1.5015,-1.5135,-1.5311,-1.5317,-1.5444,-1.5645,-1.5424,-1.5311,-1.5297,-1.5129,-1.5015,-1.5015,-1.5015,-1.481,-1.4522,-1.4516,-1.4376,-1.4102,0.0,0.0,0.0,-1.6386,-1.6427,-1.6468,-1.6968,-1.7229,-1.7195,-1.7647,0.0,-1.8457,-1.8466,-1.885,-1.9587,-1.935,0.0,0.0,0.0,0.0,0.0,0.0,0.0,0.0,0.0,0.0,0.0,-2.0556,-2.0615,-2.0615,-2.0615,-2.0615,-2.0615,-2.0615,-2.0615,-2.0615,-2.0615,-2.0615,-2.0615,-2.0615,-2.0615,-2.0615,-2.0615,-2.0615,-2.0615,-2.0615,-2.0615,-2.0605,-2.0992,-2.132,-2.1272,-2.154,-2.1627,-2.1502,-2.1883,-2.2073,-2.1807,-2.1959,-2.2515,-2.397,-2.3813,-2.3751,-2.4043,-2.4189,-2.4189,-2.4189,-2.4273,-2.4454,-2.4718,-2.504,-2.537,-2.5688,-2.6037,-2.6141,-2.6233,-2.628,-2.6152,-2.5404,-2.5893,-2.6323,-1.7722,0.0,-1.7589,-1.7548,0.0,-1.7414,-1.7166,-1.6737,-1.6449,-1.6106,-1.5771,-1.5631,-1.5605,-1.5605,-1.5451,-1.5391,-1.5391,-1.5391,-1.5471,-1.5605,-1.5611,-1.5691,-1.5825,-1.5678,-1.5611,-1.5598,-1.5458,-1.5398,-1.5391,-1.5384,-1.517,-1.4743,-1.4736,-1.4696,-1.4601,-1.52,-1.5726,-1.6098,-1.6386,-1.6714,-1.7041,-1.7383,-1.7546,-1.7546,-1.7838,0.0,0.0,0.0,0.0,0.0,0.0,0.0,0.0,0.0,0.0,-2.0566,-2.0615,-2.0615,-2.0615,-2.0615,-2.0615,-2.0615,-2.0615,-2.0615,-2.0615,-2.0615,-2.0615,-2.0615,-2.0615,-2.0615,-2.0615,-2.0615,-2.0615,-2.0615,-2.0615,-2.0615,-2.0615,-2.0615,-2.0615,-2.0615,-2.0615,-2.0615,-2.0595,-2.0838,-2.1031,-2.1069,-2.132,-2.1502,-2.1502,-2.1769,-2.1997,-2.2327,-2.2665,-2.315,-2.3934,-2.3982,-2.3787,-2.4116,-2.4189,-2.4189,-2.4189,-2.4189,-2.4261,-2.449,-2.4647,-2.4826,-2.5016,-2.523,-2.5359,-2.5394,-2.5641,-2.5777,-2.5322,-2.5886,-2.6323,-1.7816,-1.7589,-1.7589,-1.7589,-1.7589,-1.7589,-1.7415,-1.7159,0.0,0.0,0.0,-1.5825,-1.5825,-1.5825,-1.5825,-1.5825,-1.5825,-1.5825,-1.5825,-1.5825,-1.5825,-1.5825,-1.5825,-1.5825,-1.5825,-1.5825,-1.5825,-1.5825,-1.5825,-1.5873,-1.567,-1.5221,-1.5215,-1.5257,-1.5369,-1.6304,-1.6673,-1.6345,-1.6878,-1.7456,-1.7991,-1.7991,-1.7991,-1.7991,-1.7991,-1.8072,-1.8233,-1.8612,-1.9042,-1.9499,-1.9863,-2.0216,-2.0566,-2.0615,-2.0615,-2.0615,-2.0615,-2.0615,-2.0615,-2.0615,-2.0615,-2.0615,-2.0615,-2.0615,-2.0615,-2.0615,-2.0615,-2.0615,-2.0615,-2.0615,-2.0615,-2.0615,-2.0615,-2.0615,-2.0615,-2.0615,-2.0615,-2.0615,-2.0615,-2.0615,-2.0615,-2.0615,-2.0605,-2.0722,-2.076,-2.0838,-2.1233,-2.1425,-2.1387,-2.1425,-2.1845,-2.2628,-2.2841,-2.3446,-2.3824,-2.3641,-2.3824,-2.3934,-2.4007,-2.408,-2.4164,-2.4189,-2.4189,-2.4236,-2.4236,-2.4345,-2.4345,-2.4526,-2.4418,-2.4478,-2.4981,-2.543,-2.5546,-2.6025,-2.6314,-1.7622,-1.7589,-1.7589,-1.7589,-1.7589,-1.7589,-1.7474,-1.7152,-1.6576,-1.6106,-1.5825,-1.5825,-1.5825,-1.5825,-1.5825,-1.5825,-1.5825,-1.5825,-1.5825,-1.5825,-1.5825,-1.5825,-1.5825,-1.5825,-1.5825,-1.5825,-1.5825,-1.5825,-1.5846,-1.6137,-1.6144,-1.585,-1.6118,-1.6177,-1.6004,-1.6139,-1.6468,-1.6968,-1.7546,-1.791,-1.7991,-1.7991,-1.7991,-1.7991,-1.7991,-1.8353,-1.9063,-1.9192,-1.9578,-2.0362,-2.0489,-2.0527,-2.0605,-2.0615,-2.0615,-2.0615,-2.0615,-2.0615,-2.0615,-2.0615,-2.0615,-2.0615,-2.0615,-2.0615,-2.0615,-2.0615,-2.0615,-2.0615,-2.0615,-2.0615,-2.0615,-2.0615,-2.0615,-2.0615,-2.0615,-2.0615,-2.0615,-2.0615,-2.0615,-2.0615,-2.0615,-2.0615,-2.0644,-2.0992,-2.1272,-2.1349,-2.131,-2.131,-2.0964,-2.1156,-2.1502,-2.1655,-2.1377,-2.1596,-2.2553,-2.2225,-2.2553,-2.3298,-2.3482,-2.3703,-2.4152,-2.4189,-2.4189,-2.4189,-2.4418,-2.4646,-2.4682,-2.4981,-2.5111,-2.5324,-2.5548,-2.5793,-2.5988,-2.6252,-2.6389,-1.7736,-1.7589,-1.7589,-1.7589,-1.7589,-1.7589,-1.7474,-1.7186,-1.6918,-1.658,-1.6319,-1.6306,-1.6299,-1.6293,-1.6146,-1.6066,-1.6059,-1.5905,-1.5825,-1.5825,-1.5825,-1.5825,-1.5825,-1.5825,-1.5825,-1.5825,-1.5825,-1.5825,-1.5812,-1.602,-1.5894,-1.5676,-1.6205,-1.6553,-1.6656,-1.696,-1.7253,-1.7587,-1.7546,-1.7668,-1.7991,-1.7991,-1.7991,-1.7991,-1.825,-1.8571,-1.8962,-1.939,-1.9814,-2.0177,-2.044,-2.0615,-2.0615,-2.0615,-2.0615,-2.0615,-2.0615,-2.0615,-2.0615,-2.0615,-2.0615,-2.0615,-2.0615,-2.0615,-2.0615,-2.0615,-2.0615,-2.0615,-2.0615,-2.0615,-2.0615,-2.0615,-2.0615,-2.0615,-2.0615,-2.0615,-2.0615,-2.0615,-2.0615,-2.0615,-2.0615,-2.0615,-2.0615,-2.0838,-2.1002,-2.1002,-2.1002,-2.0886,-2.0693,-2.1108,-2.1617,-2.1883,-2.1769,-2.1977,-2.2703,-2.2665,-2.274,-2.3261,-2.3604,-2.3861,-2.4164,-2.4189,-2.4189,-2.4189,-2.4393,-2.4454,-2.449,-2.4598,-2.4802,-2.4909,-2.5171,-2.5311,-2.5255,-2.5443,-2.5884,-1.7802,-1.7589,-1.7589,-1.7589,-1.7589,-1.7589,-1.7501,-1.7306,-1.73,-1.7166,-1.6907,-1.6774,-1.6667,-1.6587,-1.6373,-1.6233,-1.6146,-1.5939,-1.5825,-1.5825,-1.5825,-1.5811,-1.5864,-1.5824,-1.5851,-1.5999,-1.5965,-1.5932,-1.5925,-1.6001,-1.5919,-1.5819,-1.6491,-1.7011,-1.73,-1.7868,-1.8119,-1.8111,-1.7588,-1.7505,-1.7991,-1.7991,-1.7991,-1.8031,-1.8331,-1.8612,-1.8851,-1.9439,-1.9854,-2.0059,-2.0411,-2.0615,-2.0615,-2.0615,-2.0615,-2.0615,-2.0615,-2.0615,-2.0615,-2.0615,-2.0615,-2.0615,-2.0615,-2.0615,-2.0615,-2.0615,-2.0615,-2.0615,-2.0615,-2.0615,-2.0615,-2.0615,-2.0615,-2.0615,-2.0615,-2.0615,-2.0615,-2.0615,-2.0615,-2.0615,-2.0615,-2.0615,-2.0615,-2.0615,-2.0605,-2.0644,-2.0615,-2.0644,-2.0799,-2.1233,-2.1731,-2.2327,-2.2478,-2.2515,-2.3001,-2.3038,-2.3075,-2.3272,-2.3641,-2.3934,-2.4116,-2.4189,-2.4189,-2.4189,-2.4189,-2.4236,-2.4236,-2.4225,-2.4309,-2.4454,-2.4718,-2.4732,-2.4422,-2.4814,-2.545,-1.7615,-1.7589,-1.7589,-1.7589,-1.7589,-1.7589,-1.7562,-1.7535,-1.7542,-1.7581,-1.7428,-1.6947,-1.658,-1.6333,-1.6355,-1.6152,-1.5932,-1.5798,-1.5838,-1.5804,-1.5832,-1.5972,-1.6228,-1.5959,-1.6106,-1.6506,-1.6333,-1.6219,-1.6268,-1.6538,-1.6696,-1.6854,-1.7573,-1.7932,-1.8032,-1.8372,-1.8537,-1.8528,-1.813,-1.7951,-1.8,-1.7991,-1.7991,-1.7991,-1.8031,-1.8434,-1.9192,-1.9341,-1.9736,-2.045,-2.0566,-2.0615,-2.0615,-2.0615,-2.0615,-2.0615,-2.0615,-2.0615,-2.0615,-2.0615,-2.0615,-2.0615,-2.0615,-2.0615,-2.0615,-2.0615,-2.0615,-2.0615,-2.0615,-2.0615,-2.0615,-2.0615,-2.0615,-2.0615,-2.0615,-2.0615,-2.0615,-2.0615,-2.0615,-2.0615,-2.0615,-2.0615,-2.0615,-2.0615,-2.0615,-2.0615,-2.0615,-2.076,-2.1108,-2.1387,-2.1845,-2.2703,-2.274,-2.2478,-2.259,-2.2515,-2.2815,-2.3235,-2.3383,-2.3714,-2.4043,-2.4189,-2.4189,-2.4189,-2.4189,-2.4189,-2.4189,-2.42,-2.4345,-2.4478,-2.4623,-2.472,-2.4632,-2.4878,-2.5493,-1.7589,-1.7589,-1.7589,-1.7589,-1.7589,-1.7589,-1.7589,-1.7589,-1.7589,-1.7589,-1.7562,-1.7328,-1.7161,-1.7021,-1.6687,-1.6547,-1.658,-1.6246,-1.6186,-1.6339,-1.6346,-1.6326,-1.6308,-1.6159,-1.6233,-1.6426,-1.6326,-1.6409,-1.6502,-1.6517,-1.6767,-1.7243,-1.7584,-1.8065,-1.8697,-1.888,-1.8939,-1.8922,-1.8562,-1.8365,-1.834,-1.8143,-1.7991,-1.8072,-1.8514,-1.8904,-1.9301,-1.9775,-2.0255,-2.0566,-2.0615,-2.0615,-2.0615,-2.0615,-2.0615,-2.0615,-2.0615,-2.0615,-2.0615,-2.0615,-2.0615,-2.0615,-2.0615,-2.0615,-2.0615,-2.0615,-2.0615,-2.0615,-2.0615,-2.0615,-2.0615,-2.0615,-2.0615,-2.0615,-2.0615,-2.0615,-2.0615,-2.0615,-2.0615,-2.0615,-2.0615,-2.0615,-2.0615,-2.0615,-2.0615,-2.0615,-2.0605,-2.0722,-2.0954,-2.1272,-2.1693,-2.2101,-2.2289,-2.2601,-2.2815,-2.2927,-2.3038,-2.3272,-2.3604,-2.397,-2.4043,-2.4189,-2.4189,-2.4189,-2.4189,-2.4189,-2.4189,-2.4189,-2.4273,-2.4455,-2.4164,-2.4143,-2.4858,-2.4927,-2.5335,-1.7589,-1.7589,-1.7589,-1.7589,-1.7589,-1.7589,-1.7589,-1.7589,-1.7589,-1.7589,-1.7589,-1.7589,-1.7589,-1.7508,-1.7048,-1.6914,-1.7012,-1.658,-1.65,-1.6693,-1.6707,-1.6633,-1.6563,-1.6426,-1.6473,-1.6593,-1.6616,-1.6677,-1.6817,-1.6679,-1.6901,-1.7427,-1.7789,-1.8393,-1.9138,-1.9263,-1.9324,-1.9281,-1.8845,-1.8579,-1.8569,-1.8351,-1.8201,-1.8241,-1.8794,-1.9231,-1.9469,-2.0089,-2.0489,-2.0615,-2.0615,-2.0615,-2.0615,-2.0615,-2.0615,-2.0615,-2.0615,-2.0615,-2.0615,-2.0615,-2.0615,-2.0615,-2.0615,-2.0615,-2.0615,-2.0615,-2.0615,-2.0615,-2.0615,-2.0615,-2.0615,-2.0615,-2.0615,-2.0615,-2.0615,-2.0615,-2.0615,-2.0615,-2.0615,-2.0615,-2.0615,-2.0615,-2.0615,-2.0615,-2.0615,-2.0615,-2.0605,-2.0712,-2.0838,-2.1272,-2.1578,-2.1741,-2.2138,-2.2505,-2.2964,-2.2964,-2.3038,-2.3113,-2.3372,-2.3593,-2.3861,-2.3934,-2.4116,-2.408,-2.4152,-2.4189,-2.4189,-2.4189,-2.4273,-2.4276,-2.4187,-2.4132,-2.481,-2.4831,-2.5156,-1.7589,-1.7589,-1.7589,-1.7589,-1.7589,-1.7589,-1.7589,-1.7589,-1.7589,-1.7589,-1.7589,-1.7589,-1.7589,-1.7569,-1.7313,-1.7045,-1.6774,-1.672,-1.6714,-1.6754,-1.674,-1.686,-1.7139,-1.684,-1.6967,-1.7321,-1.7186,-1.7119,-1.7177,-1.7295,-1.7353,-1.7481,-1.852,-1.9147,-1.9269,-1.9544,-1.9674,-1.9606,-1.8999,-1.8605,-1.8587,-1.8652,-1.866,-1.8692,-1.8732,-1.917,-1.9745,-1.9902,-2.0137,-2.0566,-2.0615,-2.0615,-2.0615,-2.0615,-2.0615,-2.0615,-2.0615,-2.0615,-2.0615,-2.0615,-2.0615,-2.0615,-2.0615,-2.0615,-2.0615,-2.0615,-2.0615,-2.0615,-2.0615,-2.0615,-2.0615,-2.0615,-2.0615,-2.0615,-2.0615,-2.0615,-2.0615,-2.0615,-2.0615,-2.0615,-2.0615,-2.0615,-2.0615,-2.0615,-2.0615,-2.0615,-2.0615,-2.076,-2.1156,-2.1387,-2.1655,-2.1987,-2.2214,-2.2402,-2.2402,-2.2703,-2.2665,-2.2777,-2.3038,-2.2889,-2.3124,-2.342,-2.3751,-2.4007,-2.4116,-2.4189,-2.4189,-2.4273,-2.4381,-2.4503,-2.4802,-2.4991,-2.4964,-2.5119,-2.5423,-1.7589,-1.7589,-1.7589,-1.7589,-1.7589,-1.7589,-1.7589,-1.7589,-1.7589,-1.7589,-1.7589,-1.7589,-1.7589,-1.7628,-1.7475,-1.7368,-1.7255,-1.7081,-1.7088,-1.7248,-1.7268,-1.728,-1.7186,-1.7085,-1.7125,-1.73,-1.7253,-1.7199,-1.7282,-1.7773,-1.8049,-1.827,-1.9067,-1.9638,-1.9891,-2.0028,-2.0095,-2.0018,-1.9341,-1.8965,-1.8998,-1.8784,-1.882,-1.9082,-1.932,-1.9587,-1.9872,-2.0177,-2.0411,-2.0605,-2.0615,-2.0615,-2.0615,-2.0615,-2.0615,-2.0615,-2.0615,-2.0615,-2.0615,-2.0615,-2.0615,-2.0615,-2.0615,-2.0615,-2.0615,-2.0615,-2.0615,-2.0615,-2.0615,-2.0615,-2.0615,-2.0615,-2.0615,-2.0615,-2.0615,-2.0615,-2.0615,-2.0615,-2.0615,-2.0615,-2.0615,-2.0615,-2.0635,-2.0615,-2.0615,-2.0615,-2.0615,-2.0722,-2.0838,-2.0915,-2.1079,-2.1185,-2.1252,-2.1252,-2.1262,-2.2392,-2.3001,-2.315,-2.3298,-2.3567,-2.3787,-2.3751,-2.4007,-2.408,-2.4189,-2.4189,-2.4189,-2.4273,-2.4381,-2.449,-2.479,-2.511,-2.5048,-2.5356,-2.5658,-1.7589,-1.7589,-1.7589,-1.7589,-1.7589,-1.7589,-1.7589,-1.7589,-1.7589,-1.7589,-1.7589,-1.7589,-1.7589,-1.7589,-1.7589,-1.7589,-1.7569,-1.7427,-1.7447,-1.7569,-1.7589,-1.7475,-1.7367,-1.734,-1.734,-1.734,-1.734,-1.7443,-1.7764,-1.8304,-1.8786,-1.9258,-1.9683,-2.0092,-2.0426,-2.036,-2.0292,-2.0172,-1.9667,-1.9436,-1.9531,-1.9401,-1.9389,-1.9731,-2.0101,-2.0232,-2.0147,-2.045,-2.0615,-2.0615,-2.0615,-2.0615,-2.0615,-2.0615,-2.0615,-2.0615,-2.0615,-2.0615,-2.0615,-2.0615,-2.0615,-2.0615,-2.0615,-2.0615,-2.0615,-2.0615,-2.0615,-2.0625,-2.0762,-2.0781,-2.0781,-2.0791,-2.0723,-2.0654,-2.0615,-2.0615,-2.0615,-2.0615,-2.0683,-2.0771,-2.081,-2.0791,-2.0781,-2.0781,-2.0723,-2.0644,-2.0615,-2.0615,-2.0615,-2.0615,-2.0615,-2.0615,-2.0683,-2.0722,-2.0876,-2.1759,-2.2327,-2.2515,-2.3075,-2.3604,-2.4055,-2.4007,-2.408,-2.4152,-2.4189,-2.4189,-2.4225,-2.4298,-2.4334,-2.437,-2.4754,-2.5205,-2.5357,-2.5687,-2.5906,-1.7589,-1.7589,-1.7589,-1.7589,-1.7589,-1.7589,-1.7589,-1.7589,-1.7589,-1.7589,-1.7589,-1.7589,-1.7589,-1.7589,-1.7589,-1.7589,-1.7575,-1.7601,-1.7549,-1.7589,-1.7589,-1.7582,-1.7601,-1.7542,-1.764,-1.7699,-1.7674,-1.8035,-1.8762,-1.9011,-1.9605,-2.0402,-2.0417,-2.0567,-2.0857,-2.0514,-2.0317,-2.0206,-1.9836,-1.9877,-2.0324,-2.0343,-2.037,-2.0542,-2.0909,-2.0975,-2.0644,-2.0635,-2.0615,-2.0615,-2.0615,-2.0615,-2.0615,-2.0615,-2.0615,-2.0615,-2.0615,-2.0615,-2.0635,-2.0664,-2.0693,-2.0762,-2.0683,-2.0752,-2.0791,-2.0762,-2.0752,-2.082,-2.1025,-2.12,-2.12,-2.12,-2.1094,-2.0723,-2.0723,-2.0693,-2.0713,-2.0664,-2.0742,-2.1094,-2.1151,-2.119,-2.12,-2.1132,-2.1016,-2.0752,-2.0644,-2.0615,-2.0615,-2.0615,-2.0615,-2.0615,-2.0615,-2.0615,-2.0809,-2.1079,-2.1349,-2.1693,-2.2402,-2.3012,-2.3604,-2.3824,-2.4007,-2.408,-2.4189,-2.4189,-2.4225,-2.4298,-2.4454,-2.4562,-2.4969,-2.5218,-2.5371,-2.5595,-2.5968,-1.7589,-1.7589,-1.7589,-1.7589,-1.7589,-1.7589,-1.7589,-1.7589,-1.7589,-1.7589,-1.7589,-1.7589,-1.7589,-1.7589,-1.7589,-1.7589,-1.7589,-1.7589,-1.7589,-1.7589,-1.7589,-1.7589,-1.7589,-1.7589,-1.7898,-1.8356,-1.8415,-1.8878,-1.962,-2.0206,-2.0694,-2.076,-2.124,-2.1251,-2.0891,-2.0754,-2.0583,-2.0275,-1.9888,-1.9788,-1.9965,-2.0305,-2.0499,-2.0606,-2.1259,-2.1611,-2.1505,-2.0938,-2.0625,-2.0625,-2.0615,-2.0615,-2.0615,-2.0615,-2.0615,-2.0615,-2.0615,-2.0732,-2.0986,-2.1025,-2.1162,-2.1427,-2.1496,-2.1515,-2.1515,-2.1486,-2.1476,-2.1496,-2.1611,-2.1689,-2.168,-2.1689,-2.1611,-2.1484,-2.1211,-2.1143,-2.1388,-2.1476,-2.1387,-2.1279,-2.1494,-2.166,-2.1621,-2.1494,-2.124,-2.1045,-2.0781,-2.0644,-2.0625,-2.0664,-2.0615,-2.0615,-2.0615,-2.0625,-2.076,-2.0964,-2.1233,-2.1683,-2.2327,-2.2889,-2.342,-2.3824,-2.397,-2.408,-2.4152,-2.4189,-2.4225,-2.4298,-2.4418,-2.4526,-2.4694,-2.4921,-2.5135,-2.5454,-2.5828,-1.7589,-1.7589,-1.7589,-1.7589,-1.7589,-1.7589,-1.7589,-1.7589,-1.7589,-1.7589,-1.7589,-1.7589,-1.7589,-1.7589,-1.7589,-1.7589,-1.7589,-1.7589,-1.7589,-1.7589,-1.7589,-1.7589,-1.7609,-1.7716,-1.7968,-1.8485,-1.8847,-1.936,-2.013,-2.0774,-2.1167,-2.147,-2.1673,-2.1559,-2.1088,-2.0934,-2.0686,-2.0309,-2.0069,-1.9994,-2.0253,-2.0665,-2.094,-2.1076,-2.1732,-2.1999,-2.1875,-2.1368,-2.0986,-2.086,-2.0713,-2.0615,-2.0615,-2.0615,-2.0615,-2.0635,-2.0732,-2.0947,-2.1181,-2.1327,-2.1572,-2.1836,-2.1936,-2.1926,-2.1885,-2.1936,-2.1936,-2.1936,-2.2031,-2.2109,-2.2109,-2.2119,-2.2178,-2.2344,-2.1816,-2.1631,-2.1846,-2.1936,-2.1885,-2.1797,-2.1973,-2.208,-2.2041,-2.1934,-2.1631,-2.1475,-2.1103,-2.081,-2.081,-2.083,-2.0771,-2.0742,-2.0781,-2.0772,-2.0625,-2.0876,-2.1195,-2.1797,-2.2467,-2.299,-2.3519,-2.3897,-2.4152,-2.4152,-2.42,-2.4189,-2.4225,-2.4189,-2.4309,-2.4345,-2.4454,-2.4634,-2.4885,-2.5265,-2.5641,-1.7589,-1.7589,-1.7589,-1.7589,-1.7589,-1.7589,-1.7589,-1.7589,-1.7589,-1.7589,-1.7589,-1.7589,-1.7589,-1.7589,-1.7589,-1.7589,-1.7589,-1.7589,-1.7589,-1.7602,-1.7629,-1.7675,-1.7762,-1.7969,-1.8171,-1.8434,-1.9085,-1.9715,-2.0369,-2.0881,-2.1428,-2.2315,-2.1869,-2.149,-2.1405,-2.1097,-2.0754,-2.0437,-2.03,-2.0466,-2.0827,-2.1364,-2.1662,-2.1753,-2.224,-2.2393,-2.2119,-2.1924,-2.166,-2.124,-2.084,-2.0664,-2.0664,-2.0664,-2.0772,-2.0811,-2.1064,-2.1279,-2.1366,-2.1728,-2.1973,-2.207,-2.209,-2.1963,-2.208,-2.2129,-2.2129,-2.2119,-2.2363,-2.2539,-2.2549,-2.2549,-2.2662,-2.2896,-2.2432,-2.207,-2.1934,-2.1982,-2.2158,-2.2383,-2.251,-2.2549,-2.2539,-2.2471,-2.2236,-2.1953,-2.1553,-2.1318,-2.122,-2.1221,-2.1064,-2.1045,-2.1103,-2.0947,-2.0869,-2.0693,-2.0974,-2.13,-2.2052,-2.2767,-2.3446,-2.3897,-2.4189,-2.4189,-2.4189,-2.4189,-2.4189,-2.4189,-2.4189,-2.4273,-2.4345,-2.4418,-2.4658,-2.5076,-2.5418,-1.7589,-1.7589,-1.7589,-1.7589,-1.7589,-1.7589,-1.7589,-1.7589,-1.7589,-1.7589,-1.7589,-1.7589,-1.7589,-1.7589,-1.7589,-1.7589,-1.7589,-1.7589,-1.7589,-1.7622,-1.7836,-1.805,-1.8217,-1.8323,-1.8638,-1.9192,-1.9811,-2.0581,-2.1334,-2.1733,-2.2231,-2.2577,-2.2379,-2.2122,-2.1833,-2.1448,-2.1088,-2.0728,-2.042,-2.0346,-2.0626,-2.1293,-2.1695,-2.178,-2.2524,-2.2823,-2.2773,-2.251,-2.1951,-2.1268,-2.1143,-2.1015,-2.1084,-2.1318,-2.1496,-2.1535,-2.1611,-2.1855,-2.2109,-2.2275,-2.2471,-2.273,-2.2672,-2.2812,-2.2812,-2.2803,-2.276,-2.2789,-2.2896,-2.2916,-2.2925,-2.2916,-2.2994,-2.3042,-2.2828,-2.2594,-2.2461,-2.2574,-2.2711,-2.2545,-2.274,-2.2867,-2.2891,-2.2715,-2.25,-2.2324,-2.2012,-2.1709,-2.1709,-2.1699,-2.1582,-2.1494,-2.1455,-2.125,-2.1025,-2.0772,-2.0702,-2.0838,-2.1482,-2.2289,-2.3038,-2.3787,-2.4043,-2.4189,-2.4189,-2.4189,-2.4189,-2.4189,-2.4189,-2.4189,-2.4236,-2.4345,-2.4514,-2.4814,-2.5206,-1.7589,-1.7589,-1.7589,-1.7589,-1.7589,-1.7589,-1.7589,-1.7589,-1.7589,-1.7589,-1.7589,-1.7589,-1.7589,-1.7589,-1.7589,-1.7589,-1.7589,-1.7589,-1.7655,-1.7849,-1.8223,-1.8497,-1.8637,-1.8671,-1.8944,-1.9389,-2.0301,-2.0833,-2.1333,-2.2154,-2.2569,-2.2594,-2.2603,-2.2405,-2.1987,-2.179,-2.1465,-2.1105,-2.0746,-2.054,-2.0632,-2.1275,-2.1651,-2.1865,-2.2574,-2.3101,-2.3033,-2.2734,-2.2146,-2.166,-2.1514,-2.1514,-2.1533,-2.1738,-2.1936,-2.1936,-2.2041,-2.2266,-2.248,-2.2656,-2.2838,-2.3033,-2.3101,-2.3101,-2.3071,-2.3101,-2.3101,-2.3071,-2.3101,-2.3101,-2.3101,-2.3101,-2.3101,-2.3091,-2.3101,-2.2994,-2.275,-2.2925,-2.2964,-2.292,-2.2935,-2.3101,-2.3101,-2.2867,-2.2769,-2.2705,-2.2412,-2.2236,-2.2148,-2.2148,-2.209,-2.1943,-2.1728,-2.1494,-2.1152,-2.083,-2.0635,-2.0722,-2.1069,-2.1835,-2.2703,-2.3519,-2.3861,-2.4043,-2.4116,-2.4189,-2.4189,-2.4189,-2.4189,-2.4189,-2.4189,-2.4225,-2.4406,-2.4778,-2.5135,-1.7589,-1.7589,-1.7589,-1.7589,-1.7589,-1.7589,-1.7589,-1.7589,-1.7589,-1.7589,-1.7589,-1.7589,-1.7589,-1.7589,-1.7589,-1.7602,-1.7642,-1.7682,-1.7883,-1.8196,-1.8597,-1.8885,-1.8951,-1.8971,-1.9028,-1.9294,-2.0398,-2.0779,-2.112,-2.2008,-2.2561,-2.2603,-2.2603,-2.2439,-2.2141,-2.2013,-2.1799,-2.1482,-2.1114,-2.0934,-2.1043,-2.148,-2.1842,-2.1949,-2.2637,-2.3057,-2.3013,-2.276,-2.2412,-2.2051,-2.1982,-2.1953,-2.1953,-2.1982,-2.207,-2.2148,-2.2412,-2.2588,-2.2594,-2.2886,-2.3062,-2.3101,-2.3101,-2.3101,-2.3101,-2.3101,-2.3101,-2.3101,-2.3101,-2.3101,-2.3101,-2.3101,-2.3101,-2.3101,-2.3101,-2.3101,-2.3101,-2.3101,-2.3101,-2.3101,-2.3101,-2.3101,-2.3101,-2.3101,-2.3081,-2.2925,-2.2701,-2.2604,-2.2578,-2.2568,-2.2451,-2.2266,-2.2012,-2.1719,-2.1318,-2.0908,-2.0742,-2.0644,-2.0925,-2.153,-2.2365,-2.3113,-2.3556,-2.3824,-2.397,-2.4116,-2.4189,-2.4189,-2.4189,-2.4189,-2.4189,-2.4189,-2.4261,-2.4862,-2.5312,-1.7589,-1.7589,-1.7589,-1.7589,-1.7589,-1.7589,-1.7589,-1.7589,-1.7589,-1.7589,-1.7589,-1.7589,-1.7589,-1.7589,-1.7595,-1.7695,-1.7896,-1.7909,-1.8162,-1.8711,-1.8818,-1.9065,-1.9205,-1.9252,-1.9259,-1.9533,-2.0424,-2.0947,-2.1162,-2.1873,-2.2603,-2.2594,-2.2594,-2.2568,-2.2457,-2.215,-2.1978,-2.1816,-2.1499,-2.1302,-2.1406,-2.1783,-2.2099,-2.2198,-2.278,-2.3067,-2.3091,-2.3013,-2.2916,-2.2769,-2.2516,-2.2383,-2.2422,-2.2604,-2.273,-2.275,-2.2838,-2.2945,-2.2974,-2.3023,-2.3101,-2.3101,-2.3101,-2.3101,-2.3101,-2.3101,-2.3101,-2.3101,-2.3101,-2.3101,-2.3101,-2.3101,-2.3101,-2.3101,-2.3101,-2.3101,-2.3101,-2.3101,-2.3101,-2.3101,-2.3101,-2.3101,-2.3101,-2.3101,-2.3091,-2.3081,-2.3033,-2.2964,-2.2925,-2.2896,-2.276,-2.2588,-2.2236,-2.1953,-2.1699,-2.124,-2.0869,-2.0674,-2.0858,-2.1041,-2.1863,-2.274,-2.3224,-2.3593,-2.3897,-2.4007,-2.4189,-2.4189,-2.4189,-2.4189,-2.4189,-2.4189,-2.437,-2.4933,-2.5312,-1.7589,-1.7589,-1.7589,-1.7589,-1.7589,-1.7589,-1.7589,-1.7589,-1.7589,-1.7589,-1.7589,-1.7589,-1.7589,-1.7589,-1.7602,-1.7742,-1.8056,-1.8295,-1.8562,-1.8918,-1.9045,-1.9219,-1.9319,-1.9424,-1.9417,-1.9523,-2.0194,-2.0666,-2.1194,-2.1764,-2.2324,-2.2603,-2.2611,-2.2594,-2.2603,-2.2397,-2.2328,-2.2184,-2.1893,-2.1679,-2.1755,-2.1837,-2.2144,-2.2452,-2.2984,-2.3325,-2.312,-2.3091,-2.3091,-2.3042,-2.2886,-2.276,-2.2779,-2.2964,-2.3081,-2.3101,-2.3101,-2.3101,-2.3091,-2.3101,-2.3101,-2.3101,-2.3101,-2.3101,-2.3101,-2.3101,-2.3101,-2.3101,-2.3101,-2.3101,-2.3101,-2.3101,-2.3101,-2.3101,-2.3101,-2.3101,-2.3101,-2.3101,-2.3101,-2.3101,-2.3101,-2.3101,-2.3101,-2.3101,-2.3091,-2.3091,-2.3091,-2.3033,-2.3033,-2.3013,-2.3033,-2.2828,-2.248,-2.2197,-2.2021,-2.1621,-2.1074,-2.0859,-2.0801,-2.0829,-2.1146,-2.2052,-2.2964,-2.3298,-2.3714,-2.4043,-2.4189,-2.4189,-2.4189,-2.4189,-2.4189,-2.4189,-2.4345,-2.473,-2.5076,-1.7589,-1.7589,-1.7589,-1.7589,-1.7589,-1.7589,-1.7589,-1.7589,-1.7589,-1.7589,-1.7589,-1.7589,-1.7589,-1.7589,-1.7589,-1.7776,-1.8196,-1.8691,-1.9018,-1.9058,-1.9225,-1.9383,-1.9424,-1.9424,-1.9424,-1.9448,-1.997,-2.0467,-2.0882,-2.1421,-2.1828,-2.2272,-2.2452,-2.2393,-2.2452,-2.2561,-2.2551,-2.2491,-2.2276,-2.2073,-2.2085,-2.1965,-2.2179,-2.2725,-2.3261,-2.3528,-2.3354,-2.3247,-2.3188,-2.311,-2.3101,-2.3101,-2.3101,-2.3101,-2.3101,-2.3101,-2.3101,-2.3101,-2.3101,-2.3101,-2.3101,-2.3101,-2.3101,-2.3101,-2.3101,-2.3101,-2.3101,-2.3101,-2.3101,-2.3101,-2.3101,-2.3101,-2.3101,-2.3101,-2.3101,-2.3101,-2.3101,-2.3101,-2.3101,-2.3101,-2.3101,-2.3101,-2.3101,-2.3101,-2.3101,-2.3101,-2.3101,-2.3101,-2.3101,-2.3101,-2.3101,-2.2994,-2.2637,-2.2227,-2.2031,-2.1934,-2.1387,-2.1064,-2.0918,-2.0791,-2.0819,-2.1749,-2.2703,-2.315,-2.353,-2.3934,-2.4189,-2.4189,-2.4189,-2.4189,-2.4189,-2.4189,-2.4345,-2.4574,-2.4838,-1.7589,-1.7589,-1.7589,-1.7589,-1.7589,-1.7589,-1.7589,-1.7589,-1.7589,-1.7589,-1.7589,-1.7589,-1.7589,-1.7589,-1.7589,-1.7889,-1.841,-1.8945,-1.9259,-1.9259,-1.9403,-1.9424,-1.9424,-1.9424,-1.9424,-1.9574,-1.9877,-2.0236,-2.0475,-2.0843,-2.1255,-2.1376,-2.1764,-2.1999,-2.2107,-2.2324,-2.2603,-2.2603,-2.25,-2.2448,-2.2436,-2.2526,-2.258,-2.3102,-2.3491,-2.3604,-2.3641,-2.3633,-2.3516,-2.314,-2.3101,-2.3101,-2.3101,-2.3101,-2.3101,-2.3101,-2.3101,-2.3101,-2.3101,-2.3101,-2.3101,-2.3101,-2.3101,-2.3101,-2.3101,-2.3101,-2.3101,-2.3101,-2.3101,-2.3101,-2.3101,-2.3101,-2.3101,-2.3101,-2.3101,-2.3101,-2.3101,-2.3101,-2.3101,-2.3101,-2.3101,-2.3101,-2.3101,-2.3101,-2.3101,-2.3101,-2.3101,-2.3101,-2.3101,-2.3101,-2.3101,-2.2935,-2.2764,-2.2344,-2.1973,-2.1943,-2.1699,-2.1375,-2.1151,-2.0918,-2.1134,-2.1811,-2.244,-2.2852,-2.3457,-2.4043,-2.4189,-2.4189,-2.4189,-2.4189,-2.4189,-2.4189,-2.4309,-2.4465,-2.4682,-1.7589,-1.7589,-1.7589,-1.7589,-1.7589,-1.7589,-1.7589,-1.7589,-1.7589,-1.7589,-1.7589,-1.7589,-1.7589,-1.7589,-1.7589,-1.7923,-1.851,-1.9156,-1.9403,-1.9424,-1.9424,-1.9424,-1.9424,-1.9424,-1.9424,-1.9448,-1.9665,-1.9941,-2.0187,-2.0434,-2.0714,-2.1133,-2.1555,-2.1816,-2.1936,-2.2324,-2.2578,-2.2603,-2.2603,-2.2603,-2.2653,-2.2828,-2.3,-2.2764,-2.3439,-2.3642,-2.322,-2.3676,-2.3564,-2.3232,-2.3101,-2.3101,-2.3101,-2.3101,-2.3101,-2.3101,-2.3101,-2.3101,-2.3101,-2.3101,-2.3101,-2.3101,-2.3101,-2.3101,-2.3101,-2.3101,-2.3101,-2.3101,-2.3101,-2.3101,-2.3101,-2.3101,-2.3101,-2.3101,-2.3101,-2.3101,-2.3101,-2.3101,-2.3101,-2.3101,-2.3101,-2.3101,-2.3101,-2.3101,-2.3101,-2.3101,-2.3101,-2.3101,-2.3101,-2.3101,-2.3101,-2.3013,-2.2857,-2.2691,-2.2373,-2.2246,-2.21,-2.1765,-2.1463,-2.124,-2.1292,-2.1909,-2.2212,-2.2515,-2.3224,-2.4116,-2.4189,-2.4189,-2.4189,-2.4189,-2.4189,-2.42,-2.4236,-2.4345,-2.4574,-1.7589,-1.7589,-1.7589,-1.7589,-1.7589,-1.7589,-1.7589,-1.7589,-1.7589,-1.7589,-1.7589,-1.7589,-1.7589,-1.7609,-1.7716,-1.7989,-1.8524,-1.9109,-1.9265,-1.9424,-1.9424,-1.9424,-1.9424,-1.9424,-1.9424,-1.9424,-1.9461,-1.9635,-1.987,-2.0019,-2.0312,-2.0575,-2.1148,-2.1592,-2.1679,-2.208,-2.2393,-2.2603,-2.2603,-2.2603,-2.2695,-2.2885,-2.2841,-2.2061,-2.3301,-2.3467,-2.2855,-2.3357,-2.3419,-2.3173,-2.3091,-2.3198,-2.312,-2.3101,-2.3101,-2.3101,-2.3101,-2.3101,-2.3101,-2.3101,-2.3101,-2.3101,-2.3101,-2.3101,-2.3101,-2.3101,-2.3101,-2.3101,-2.3101,-2.3101,-2.3101,-2.3101,-2.3101,-2.3101,-2.3101,-2.3101,-2.3101,-2.3101,-2.3101,-2.3101,-2.3101,-2.3101,-2.3101,-2.3101,-2.3101,-2.3101,-2.3101,-2.3101,-2.3101,-2.3101,-2.3101,-2.3101,-2.3052,-2.3042,-2.2857,-2.2715,-2.2529,-2.2256,-2.1892,-2.159,-2.171,-2.1968,-2.2189,-2.2504,-2.3409,-2.4189,-2.4189,-2.4189,-2.4189,-2.4189,-2.4189,-2.42,-2.4236,-2.4236,-2.4381,-1.7589,-1.7589,-1.7589,-1.7589,-1.7589,-1.7589,-1.7589,-1.7589,-1.7589,-1.7589,-1.7589,-1.7589,-1.7589,-1.7669,-1.7896,-1.8176,-1.8531,-1.8878,-1.9185,-1.9403,-1.9424,-1.9424,-1.9424,-1.9424,-1.9424,-1.9424,-1.9424,-1.941,-1.9554,-1.9611,-1.956,-1.9811,-2.0298,-2.0663,-2.1279,-2.1804,-2.2107,-2.2519,-2.2611,-2.2603,-2.2653,-2.2695,-2.2807,-2.2929,-2.3055,-2.3021,-2.2824,-2.327,-2.3263,-2.2701,-2.3283,-2.3442,-2.3188,-2.3101,-2.3101,-2.3101,-2.3101,-2.3101,-2.3101,-2.3101,-2.3101,-2.3101,-2.3101,-2.3101,-2.3101,-2.3101,-2.3101,-2.3101,-2.3101,-2.3101,-2.3101,-2.3101,-2.3101,-2.3101,-2.3101,-2.3101,-2.3101,-2.3101,-2.3101,-2.3101,-2.3101,-2.3101,-2.3101,-2.3101,-2.3101,-2.3101,-2.3101,-2.3101,-2.3101,-2.3101,-2.3101,-2.3101,-2.3101,-2.3101,-2.3091,-2.2945,-2.2871,-2.2637,-2.2314,-2.1973,-2.1959,-2.2075,-2.2387,-2.2837,-2.3682,-2.4152,-2.4189,-2.4189,-2.4189,-2.4189,-2.4189,-2.4189,-2.42,-2.4236,-2.4236,-1.7589,-1.7589,-1.7589,-1.7589,-1.7589,-1.7589,-1.7589,-1.7589,-1.7589,-1.7589,-1.7589,-1.7589,-1.7662,-1.7849,-1.8156,-1.8457,-1.8751,-1.9018,-1.9225,-1.939,-1.9424,-1.9424,-1.9424,-1.9424,-1.9424,-1.9424,-1.9424,-1.9424,-1.9424,-1.9424,-1.9424,-1.9492,-1.9976,-2.0625,-2.1182,-2.165,-2.2201,-2.2647,-2.274,-2.2611,-2.2603,-2.2636,-2.26,-2.2609,-2.2857,-2.2823,-2.2652,-2.2952,-2.2936,-2.2497,-2.2865,-2.2897,-2.2842,-2.2925,-2.3101,-2.3101,-2.3101,-2.3101,-2.3101,-2.3101,-2.3101,-2.3101,-2.3101,-2.3101,-2.3101,-2.3101,-2.3101,-2.3101,-2.3101,-2.3101,-2.3101,-2.3101,-2.3101,-2.3101,-2.3101,-2.3101,-2.3101,-2.3101,-2.3101,-2.3101,-2.3101,-2.3101,-2.3101,-2.3101,-2.3101,-2.3101,-2.3101,-2.3101,-2.3101,-2.3101,-2.3101,-2.3101,-2.3101,-2.3101,-2.3101,-2.3042,-2.3023,-2.2818,-2.2588,-2.2259,-2.2055,-2.216,-2.2501,-2.2902,-2.3538,-2.3934,-2.4116,-2.4189,-2.4189,-2.4189,-2.4189,-2.4189,-2.4189,-2.42,-2.4284,-1.7589,-1.7589,-1.7589,-1.7589,-1.7589,-1.7589,-1.7589,-1.7589,-1.7589,-1.7589,-1.7589,-1.7595,-1.7749,-1.8009,-1.8257,-1.851,-1.8918,-1.9158,-1.935,-1.9397,-1.9424,-1.9424,-1.9424,-1.9424,-1.9424,-1.9424,-1.9424,-1.9424,-1.9424,-1.9424,-1.9424,-1.9475,-2.0074,-2.0723,-2.1412,-2.1975,-2.249,-2.2946,-2.2766,-2.262,-2.2603,-2.2603,-2.2448,-2.2445,-2.2574,-2.2716,-2.2272,-2.2613,-2.2708,-2.2254,-2.2463,-2.2668,-2.2732,-2.2782,-2.3076,-2.3174,-2.3218,-2.3101,-2.3101,-2.3101,-2.3101,-2.3101,-2.3101,-2.3101,-2.3101,-2.3101,-2.3101,-2.3101,-2.3101,-2.3101,-2.3101,-2.3101,-2.3101,-2.3101,-2.3101,-2.3101,-2.3101,-2.3101,-2.3101,-2.3101,-2.3101,-2.3101,-2.3101,-2.3101,-2.3101,-2.3101,-2.3101,-2.3101,-2.3101,-2.3101,-2.3101,-2.3101,-2.3101,-2.3101,-2.3101,-2.3101,-2.3101,-2.3033,-2.2803,-2.2454,-2.215,-2.2292,-2.2639,-2.3058,-2.3435,-2.3824,-2.408,-2.4152,-2.4189,-2.4189,-2.4189,-2.4189,-2.4189,-2.42,-2.4344,-1.7589,-1.7589,-1.7589,-1.7589,-1.7589,-1.7589,-1.7589,-1.7589,-1.7589,-1.7589,-1.7589,-1.7609,-1.7762,-1.7969,-1.8183,-1.8408,-1.8945,-1.8945,-1.9152,-1.9312,-1.9424,-1.9424,-1.9424,-1.9424,-1.9424,-1.9424,-1.9424,-1.9424,-1.9424,-1.9424,-1.9424,-1.9519,-2.0014,-2.0819,-2.1666,-2.2448,-2.281,-2.3055,-2.2834,-2.2637,-2.2611,-2.2603,-2.256,-2.2482,-2.2268,-2.2045,-2.2059,-2.2496,-2.2481,-2.1842,-2.2343,-2.2612,-2.2608,-2.2754,-2.3041,-2.3303,-2.3344,-2.3237,-2.3208,-2.314,-2.3101,-2.3101,-2.3101,-2.3101,-2.3101,-2.3101,-2.3101,-2.3101,-2.3101,-2.3101,-2.3101,-2.3101,-2.3101,-2.3101,-2.3101,-2.3101,-2.3101,-2.3101,-2.3101,-2.3101,-2.3101,-2.3101,-2.3101,-2.3101,-2.3101,-2.3101,-2.3101,-2.3101,-2.3101,-2.3101,-2.3101,-2.3101,-2.3101,-2.3101,-2.3101,-2.3101,-2.3101,-2.3101,-2.2945,-2.2549,-2.2112,-2.2392,-2.2863,-2.2797,-2.3112,-2.3583,-2.4043,-2.4116,-2.4152,-2.4189,-2.4189,-2.4189,-2.433,-2.4424,-2.4606,-1.7589,-1.7589,-1.7589,-1.7589,-1.7589,-1.7589,-1.7589,-1.7589,-1.7589,-1.7589,-1.7589,-1.7609,-1.7862,-1.8203,-1.835,-1.8637,-1.9138,-1.9192,-1.9279,-1.9383,-1.9424,-1.9424,-1.9424,-1.9424,-1.9424,-1.9424,-1.9424,-1.9424,-1.9424,-1.9424,-1.9424,-1.9591,-1.9815,-2.078,-2.1711,-2.2742,-2.3198,-2.3036,-2.2903,-2.28,-2.2611,-2.2603,-2.2603,-2.2568,-2.2517,-2.2388,-2.2354,-2.2296,-2.2134,-2.2044,-2.2277,-2.2357,-2.2446,-2.274,-2.3104,-2.3431,-2.3399,-2.3491,-2.3457,-2.3276,-2.3101,-2.3101,-2.3101,-2.311,-2.3149,-2.312,-2.3101,-2.3101,-2.313,-2.3159,-2.311,-2.3101,-2.3101,-2.3101,-2.3101,-2.3101,-2.3101,-2.3101,-2.3101,-2.3101,-2.3101,-2.3101,-2.3101,-2.3101,-2.3101,-2.3101,-2.3101,-2.3101,-2.3101,-2.3101,-2.3101,-2.3101,-2.3101,-2.3101,-2.3101,-2.3101,-2.3101,-2.3101,-2.3091,-2.2682,-2.2347,-2.282,-2.3176,-2.2953,-2.2857,-2.3435,-2.3868,-2.4027,-2.4116,-2.4189,-2.4189,-2.4189,-2.4401,-2.4626,-2.489,-1.7589,-1.7589,-1.7589,-1.7589,-1.7589,-1.7589,-1.7589,-1.7589,-1.7589,-1.7589,-1.7595,-1.7682,-1.7996,-1.8397,-1.8611,-1.8865,-1.9239,-1.9397,-1.941,-1.9424,-1.9424,-1.9424,-1.9424,-1.9424,-1.9424,-1.9424,-1.9424,-1.9424,-1.9424,-1.9424,-1.9424,-1.9424,-1.9482,-2.0364,-2.1454,-2.2624,-2.2984,-2.2656,-2.2533,-2.245,-2.2207,-2.2493,-2.2603,-2.2603,-2.2568,-2.256,-2.2508,-2.2404,-2.2173,-2.2065,-2.2061,-2.2048,-2.225,-2.2573,-2.3084,-2.3369,-2.3537,-2.3667,-2.3764,-2.3477,-2.313,-2.3101,-2.333,-2.334,-2.3305,-2.3393,-2.3598,-2.3539,-2.3486,-2.333,-2.331,-2.3218,-2.312,-2.3101,-2.3101,-2.3101,-2.3101,-2.3101,-2.3101,-2.3101,-2.3101,-2.3101,-2.3101,-2.3101,-2.3101,-2.3101,-2.3101,-2.3101,-2.3101,-2.3101,-2.3101,-2.3101,-2.3101,-2.3101,-2.3101,-2.3101,-2.3101,-2.3101,-2.3052,-2.2847,-2.2745,-2.314,-2.3172,-2.2907,-2.2963,-2.3406,-2.3738,-2.4016,-2.4134,-2.4189,-2.4189,-2.42,-2.4424,-2.4709,-2.5208,-1.7589,-1.7589,-1.7589,-1.7589,-1.7589,-1.7589,-1.7589,-1.7589,-1.7589,-1.7589,-1.7622,-1.7856,-1.8163,-1.8497,-1.8731,-1.9045,-1.935,-1.9424,-1.9424,-1.9424,-1.9424,-1.9424,-1.9424,-1.9424,-1.9424,-1.9424,-1.9424,-1.9424,-1.9424,-1.9424,-1.9424,-1.9424,-1.9482,-1.9866,-2.0716,-2.1065,-2.1186,-2.121,-2.1394,-2.1417,-2.1487,-2.1928,-2.2139,-2.219,-2.2342,-2.235,-2.2308,-2.2484,-2.2312,-2.2165,-2.2028,-2.2125,-2.2479,-2.2108,-2.2653,-2.3758,-2.3334,-2.3542,-2.4091,-2.3456,-2.3139,-2.3296,-2.3643,-2.3769,-2.3867,-2.4053,-2.4219,-2.4053,-2.3955,-2.3799,-2.3643,-2.3467,-2.3325,-2.3188,-2.3208,-2.314,-2.3149,-2.3101,-2.3101,-2.3101,-2.3101,-2.3101,-2.3101,-2.3101,-2.3101,-2.3101,-2.3101,-2.3101,-2.3101,-2.3101,-2.3101,-2.3101,-2.3101,-2.3101,-2.3101,-2.3101,-2.3101,-2.3101,-2.3042,-2.2896,-2.2803,-2.2886,-2.2878,-2.2727,-2.2913,-2.3211,-2.3645,-2.4041,-2.413,-2.4189,-2.4189,-2.4259,-2.4484,-2.4885,-2.5468,-1.7589,-1.7589,-1.7589,-1.7589,-1.7589,-1.7589,-1.7589,-1.7589,-1.7589,-1.7589,-1.7649,-1.7909,-1.8155,-1.8504,-1.8791,-1.9078,-1.937,-1.9424,-1.9424,-1.9424,-1.9424,-1.9424,-1.9424,-1.9424,-1.9424,-1.9424,-1.9424,-1.9424,-1.9424,-1.9424,-1.9424,-1.9424,-1.9482,-1.9873,-2.0687,-2.126,-2.166,-2.1216,-2.1147,-2.1004,-2.0612,-2.0858,-2.1054,-2.1054,-2.1522,-2.1733,-2.1776,-2.2131,-2.224,-2.2146,-2.1985,-2.2096,-2.2316,-2.2027,-2.2515,-2.3092,-2.274,-2.2778,-2.2756,-2.2342,-2.2853,-2.3464,-2.3997,-2.4124,-2.4258,-2.4307,-2.4404,-2.4443,-2.4346,-2.4219,-2.4141,-2.4102,-2.3975,-2.3662,-2.3564,-2.3335,-2.3257,-2.3149,-2.3101,-2.3101,-2.3101,-2.3101,-2.3101,-2.3101,-2.3101,-2.3101,-2.3101,-2.3101,-2.3101,-2.3101,-2.3101,-2.3101,-2.3101,-2.3101,-2.3101,-2.3101,-2.3101,-2.3101,-2.3101,-2.3042,-2.2925,-2.2861,-2.2761,-2.2765,-2.2839,-2.2951,-2.3503,-2.3921,-2.4132,-2.4189,-2.4189,-2.42,-2.4342,-2.5011,-2.5974,-1.7589,-1.7589,-1.7589,-1.7589,-1.7589,-1.7589,-1.7589,-1.7589,-1.7589,-1.7589,-1.7655,-1.7909,-1.8082,-1.8404,-1.8744,-1.8985,-1.9225,-1.939,-1.9424,-1.9424,-1.9424,-1.9424,-1.9424,-1.9424,-1.9424,-1.9424,-1.9424,-1.9424,-1.9424,-1.9424,-1.9424,-1.9424,-1.9424,-1.9649,-2.0221,-2.0544,-2.0618,-2.0274,-2.0197,-2.0225,-2.0016,-2.0074,-2.0189,-2.0336,-2.0593,-2.0909,-2.1062,-2.1369,-2.1768,-2.1752,-2.1779,-2.1728,-2.191,-2.2178,-2.2482,-2.2624,-2.2849,-2.2823,-2.2447,-2.2336,-2.2953,-2.3577,-2.4034,-2.4316,-2.4602,-2.4853,-2.4922,-2.4912,-2.4736,-2.4658,-2.4639,-2.4629,-2.4355,-2.4043,-2.3945,-2.3769,-2.3672,-2.3539,-2.3389,-2.3359,-2.312,-2.311,-2.3101,-2.3101,-2.3101,-2.3101,-2.3101,-2.3101,-2.3101,-2.3101,-2.3101,-2.3101,-2.3101,-2.3101,-2.3101,-2.3101,-2.3101,-2.3101,-2.3101,-2.3101,-2.3081,-2.2964,-2.2857,-2.2843,-2.3083,-2.3313,-2.3515,-2.3828,-2.4121,-2.4223,-2.4189,-2.42,-2.4212,-2.5066,-2.6171,-1.7589,-1.7589,-1.7589,-1.7589,-1.7589,-1.7589,-1.7589,-1.7589,-1.7589,-1.7589,-1.7609,-1.7909,-1.8022,-1.8129,-1.8664,-1.8931,-1.9025,-1.9245,-1.9397,-1.9424,-1.9424,-1.9424,-1.9424,-1.9424,-1.9424,-1.9424,-1.9424,-1.9424,-1.9424,-1.9424,-1.9424,-1.9424,-1.9424,-1.9533,-1.9581,-1.958,-1.9446,-1.9438,-1.9421,-1.9395,-1.9266,-1.9493,-1.9539,-1.9665,-1.9872,-2.0027,-2.013,-2.0336,-2.0388,-2.057,-2.0888,-2.1167,-2.1441,-2.1736,-2.2477,-2.3005,-2.328,-2.286,-2.258,-2.2388,-2.2611,-2.2945,-2.3299,-2.4049,-2.4705,-2.5052,-2.514,-2.5294,-2.5254,-2.5146,-2.5078,-2.4844,-2.46,-2.4482,-2.4443,-2.4336,-2.4238,-2.4072,-2.3838,-2.3613,-2.3301,-2.3149,-2.311,-2.3101,-2.3101,-2.3101,-2.3101,-2.3101,-2.3101,-2.3101,-2.3101,-2.3101,-2.3101,-2.3101,-2.3101,-2.3101,-2.3101,-2.3101,-2.3101,-2.3101,-2.3101,-2.3101,-2.3003,-2.3084,-2.3423,-2.3615,-2.3595,-2.3868,-2.4251,-2.4326,-2.4476,-2.4464,-2.4556,-2.5261,-2.62,-1.7589,-1.7589,-1.7589,-1.7589,-1.7589,-1.7589,-1.7589,-1.7589,-1.7589,-1.7589,-1.7602,-1.7856,-1.7955,-1.8049,-1.8601,-1.8808,-1.9025,-1.9192,-1.9383,-1.9424,-1.9424,-1.9424,-1.9424,-1.9424,-1.9424,-1.9424,-1.9424,-1.9424,-1.9424,-1.9424,-1.9424,-1.9424,-1.9424,-1.9424,-1.939,-1.9272,-1.9112,-1.8941,-1.885,-1.8728,-1.8522,-1.8565,-1.8597,-1.8632,-1.8982,-1.9138,-1.9242,-1.9717,-1.9872,-2.013,-2.0553,-2.0917,-2.1344,-2.1712,-2.2238,-2.2235,-2.1996,-2.1567,-2.1471,-2.1243,-2.1393,-2.1947,-2.2224,-2.3205,-2.4079,-2.4689,-2.4977,-2.5083,-2.5324,-2.5198,-2.5236,-2.5081,-2.4953,-2.4922,-2.4873,-2.4795,-2.4678,-2.4453,-2.4189,-2.373,-2.3418,-2.3188,-2.3149,-2.3101,-2.3101,-2.3101,-2.3101,-2.3101,-2.3101,-2.3101,-2.3101,-2.3101,-2.3101,-2.3101,-2.3101,-2.3101,-2.3101,-2.3101,-2.3101,-2.3101,-2.3101,-2.3101,-2.3101,-2.3249,-2.3474,-2.3509,-2.3444,-2.3857,-2.4471,-2.4829,-2.5004,-2.4923,-2.5018,-2.5688,-2.6171,-1.7534,-1.7575,-1.7589,-1.7589,-1.7589,-1.7589,-1.7589,-1.7589,-1.7589,-1.7589,-1.7602,-1.7769,-1.7816,-1.7943,-1.8437,-1.8744,-1.8778,-1.9172,-1.9424,-1.9424,-1.9424,-1.9424,-1.9424,-1.9424,-1.9424,-1.9424,-1.9424,-1.9424,-1.9424,-1.9424,-1.9424,-1.9424,-1.9424,-1.9424,-1.9417,-1.9383,-1.9185,-1.8971,-1.8724,-1.8497,-1.8203,-1.7889,-1.7742,-1.7694,-1.8206,-1.8304,-1.8408,-1.9034,-1.9094,-1.925,-1.9556,-2.0257,-2.0845,-2.1512,-2.1955,-2.195,-2.1457,-2.1169,-2.0997,-2.0632,-2.0772,-2.097,-2.1213,-2.1912,-2.2823,-2.3532,-2.3984,-2.4269,-2.4794,-2.516,-2.5286,-2.5431,-2.5372,-2.5361,-2.5293,-2.5215,-2.5019,-2.4805,-2.4375,-2.3877,-2.3574,-2.3305,-2.3198,-2.3149,-2.3101,-2.3101,-2.3101,-2.3101,-2.3101,-2.3101,-2.3101,-2.3101,-2.3101,-2.3101,-2.3101,-2.3101,-2.3101,-2.3101,-2.3101,-2.3101,-2.3101,-2.3096,-2.3144,-2.3232,-2.342,-2.353,-2.3662,-2.4225,-2.4777,-2.5115,-2.5482,-2.5532,-2.5589,-2.5927,-2.635,-1.7373,-1.7589,-1.7589,-1.7589,-1.7589,-1.7589,-1.7589,-1.7589,-1.7589,-1.7589,-1.7589,-1.7595,-1.7615,-1.7762,-1.821,-1.8484,-1.8677,-1.9038,-1.937,-1.9417,-1.9424,-1.9424,-1.9424,-1.9424,-1.9424,-1.9424,-1.9424,-1.9424,-1.9424,-1.9417,-1.941,-1.9403,-1.9424,-1.9397,-1.9265,-1.9316,-1.9132,-1.8958,-1.8791,-1.8604,-1.8357,-1.811,-1.7862,-1.7635,-1.7687,-1.7687,-1.7687,-1.7694,-1.7641,-1.7891,-1.8565,-1.9487,-2.0688,-2.1403,-2.1849,-2.1764,-2.1268,-2.1071,-2.0848,-2.0566,-2.0412,-2.0423,-2.038,-2.0915,-2.1756,-2.2582,-2.3036,-2.3672,-2.4193,-2.4631,-2.4871,-2.5363,-2.5557,-2.5566,-2.5527,-2.5488,-2.54,-2.5117,-2.4697,-2.4258,-2.3984,-2.3769,-2.3588,-2.3569,-2.3481,-2.3305,-2.3218,-2.3227,-2.311,-2.311,-2.3101,-2.3101,-2.3101,-2.3101,-2.3101,-2.3101,-2.3101,-2.3101,-2.3101,-2.3101,-2.3101,-2.311,-2.3185,-2.3303,-2.3441,-2.3812,-2.4093,-2.4612,-2.5004,-2.5379,-2.5722,-2.6067,-2.6267,-2.6427,-2.6565,-1.7321,-1.7635,-1.7589,-1.7589,-1.7589,-1.7589,-1.7589,-1.7589,-1.7589,-1.7589,-1.7589,-1.7589,-1.7589,-1.7662,-1.7996,-1.827,-1.8544,-1.8878,-1.9138,-1.9285,-1.9403,-1.9424,-1.9424,-1.9424,-1.9424,-1.9424,-1.9424,-1.9424,-1.9424,-1.9403,-1.9252,-1.9105,-1.9219,-1.9363,-1.9125,-1.9105,-1.9005,-1.8918,-1.8664,-1.8477,-1.8149,-1.7909,-1.7629,-1.7589,-1.7589,-1.7589,-1.7589,-1.7589,-1.7589,-1.7793,-1.9086,-2.0483,-2.1912,-2.1985,-2.203,-2.1867,-2.1384,-2.1105,-2.0994,-2.0703,-2.0446,-2.0489,-2.0534,-2.0494,-2.0835,-2.1593,-2.2324,-2.3008,-2.3626,-2.4051,-2.4565,-2.516,-2.5684,-2.5684,-2.5684,-2.5684,-2.5684,-2.5381,-2.5047,-2.4707,-2.4424,-2.4248,-2.4046,-2.3939,-2.3906,-2.3809,-2.3691,-2.3574,-2.3237,-2.313,-2.3101,-2.3101,-2.3101,-2.3101,-2.3101,-2.3101,-2.3101,-2.3101,-2.3101,-2.3101,-2.3101,-2.3129,-2.3138,-2.3293,-2.3514,-2.3784,-2.4182,-2.4759,-2.5183,-2.5592,-2.6029,-2.6371,-2.6668,-2.6909,-2.699,-1.7201,-1.7569,-1.7589,-1.7589,-1.7589,-1.7589,-1.7589,-1.7589,-1.7589,-1.7589,-1.7589,-1.7589,-1.7589,-1.7635,-1.7916,-1.8049,-1.837,-1.8751,-1.8971,-1.9145,-1.9319,-1.9417,-1.9424,-1.9424,-1.9424,-1.9424,-1.9424,-1.9424,-1.9424,-1.9417,-1.9265,-1.9125,-1.9272,-1.9259,-1.9065,-1.9005,-1.8841,-1.8848,-1.851,-1.8217,-1.7975,-1.7862,-1.7682,-1.7655,-1.7589,-1.7589,-1.7589,-1.7589,-1.7589,-1.8055,-1.919,-2.013,-2.1237,-2.1686,-2.2074,-2.1944,-2.1542,-2.1037,-2.1071,-2.084,-2.0437,-2.0497,-2.0489,-2.0371,-2.0523,-2.1204,-2.1421,-2.2103,-2.3045,-2.355,-2.407,-2.4631,-2.5392,-2.5684,-2.5684,-2.5684,-2.5674,-2.5528,-2.5234,-2.4932,-2.4717,-2.458,-2.4414,-2.4248,-2.417,-2.4056,-2.4014,-2.3809,-2.3516,-2.3208,-2.3159,-2.3101,-2.3101,-2.3101,-2.3101,-2.3101,-2.3101,-2.3101,-2.3101,-2.3101,-2.3091,-2.3091,-2.3168,-2.3219,-2.3355,-2.3568,-2.4022,-2.4584,-2.5319,-2.5787,-2.624,-2.6666,-2.6974,-2.7149,-2.7156,-1.6987,-1.7495,-1.7569,-1.7589,-1.7589,-1.7589,-1.7589,-1.7589,-1.7589,-1.7589,-1.7589,-1.7589,-1.7589,-1.7689,-1.7842,-1.7909,-1.8135,-1.8591,-1.8811,-1.9025,-1.9259,-1.939,-1.9424,-1.9424,-1.9424,-1.9424,-1.9424,-1.9424,-1.9424,-1.941,-1.9332,-1.9305,-1.9279,-1.9259,-1.9152,-1.8971,-1.8668,-1.8571,-1.829,-1.7975,-1.7922,-1.7935,-1.7789,-1.7649,-1.7589,-1.7589,-1.7589,-1.7589,-1.7589,-1.8108,-1.8938,-1.9761,-2.0542,-2.1195,-2.1603,-2.1624,-2.1331,-2.1075,-2.1071,-2.0686,-2.0472,-2.0377,-2.0326,-2.0363,-2.0523,-2.0818,-2.0987,-2.1602,-2.2526,-2.3381,-2.389,-2.4459,-2.5218,-2.5684,-2.5684,-2.5684,-2.5674,-2.5664,-2.5449,-2.5166,-2.5068,-2.4932,-2.4805,-2.4629,-2.4521,-2.4387,-2.4248,-2.4004,-2.376,-2.3516,-2.335,-2.3188,-2.3101,-2.3101,-2.3101,-2.3101,-2.3101,-2.3101,-2.3101,-2.3101,-2.3091,-2.3091,-2.3091,-2.3115,-2.3254,-2.3391,-2.3713,-2.4152,-2.4925,-2.5608,-2.6193,-2.6539,-2.6757,-2.6933,-2.7149,-1.6693,-1.73,-1.7534,-1.7582,-1.7589,-1.7589,-1.7589,-1.7589,-1.7589,-1.7589,-1.7589,-1.7589,-1.7589,-1.7589,-1.7629,-1.7782,-1.8055,-1.847,-1.8731,-1.8945,-1.9232,-1.939,-1.9424,-1.9424,-1.9424,-1.9424,-1.9424,-1.9424,-1.9397,-1.9325,-1.9138,-1.8818,-1.8965,-1.8798,-1.837,-1.8222,-1.8249,-1.8217,-1.8029,-1.7736,-1.7729,-1.7716,-1.7662,-1.7595,-1.7589,-1.7589,-1.7589,-1.7589,-1.7589,-1.7898,-1.852,-1.9346,-1.9987,-2.0564,-2.093,-2.1106,-2.081,-2.0894,-2.0789,-2.0614,-2.0489,-2.0626,-2.0549,-2.0326,-2.0674,-2.114,-2.143,-2.1765,-2.2739,-2.3795,-2.4421,-2.5006,-2.5674,-2.5684,-2.5684,-2.5684,-2.5674,-2.5674,-2.5567,-2.5527,-2.5498,-2.5439,-2.542,-2.5264,-2.5156,-2.5029,-2.4824,-2.4541,-2.4088,-2.3779,-2.3525,-2.3369,-2.3169,-2.3101,-2.3101,-2.3101,-2.3101,-2.3101,-2.3101,-2.3101,-2.3101,-2.3101,-2.3101,-2.3101,-2.3101,-2.3217,-2.3517,-2.3777,-2.4198,-2.4893,-2.5757,-2.629,-2.6509,-2.6715,-2.6891]}]]